<?xml version="1.0" encoding="UTF-8" standalone="no" ?>
<gpx xmlns="http://www.topografix.com/GPX/1/1" xmlns:xsi="http://www.w3.org/2001/XMLSchema-instance" xsi:schemaLocation="http://www.topografix.com/GPX/1/1 http://www.topografix.com/GPX/1/1/gpx.xsd" version="1.1" creator="VisuGPX - https://www.visugpx.com">
  <metadata>
    <name>VTT du 8 août 2012</name>
    <desc><![CDATA[Belle sortie, terrain sec, RAS
(j\\\'ai oublié de valider la trace, donc je recommence)]]></desc>
  </metadata>
  <trk>
    <name><![CDATA[Port30]]></name>
    <trkseg>
      <trkpt lat="47.68625" lon="6.04547">
        <ele>222.19999694824</ele>
        <time>2012-08-08T07:33:36.000Z</time>
      </trkpt>
      <trkpt lat="47.68625" lon="6.04547">
        <ele>222.19999694824</ele>
        <time>2012-08-08T07:33:37.000Z</time>
      </trkpt>
      <trkpt lat="47.68627" lon="6.04544">
        <ele>239.80000305176</ele>
        <time>2012-08-08T07:36:36.000Z</time>
      </trkpt>
      <trkpt lat="47.68631" lon="6.04538">
        <ele>239.80000305176</ele>
        <time>2012-08-08T07:36:38.000Z</time>
      </trkpt>
      <trkpt lat="47.68638" lon="6.04538">
        <ele>239.80000305176</ele>
        <time>2012-08-08T07:36:41.000Z</time>
      </trkpt>
      <trkpt lat="47.6864" lon="6.0454">
        <ele>239.80000305176</ele>
        <time>2012-08-08T07:36:42.000Z</time>
      </trkpt>
      <trkpt lat="47.68651" lon="6.04549">
        <ele>239.80000305176</ele>
        <time>2012-08-08T07:36:49.000Z</time>
      </trkpt>
      <trkpt lat="47.68665" lon="6.04565">
        <ele>239.80000305176</ele>
        <time>2012-08-08T07:36:58.000Z</time>
      </trkpt>
      <trkpt lat="47.68677" lon="6.04585">
        <ele>239.80000305176</ele>
        <time>2012-08-08T07:37:06.000Z</time>
      </trkpt>
      <trkpt lat="47.6868" lon="6.04592">
        <ele>240.19999694824</ele>
        <time>2012-08-08T07:37:08.000Z</time>
      </trkpt>
      <trkpt lat="47.68682" lon="6.04595">
        <ele>240.60000610352</ele>
        <time>2012-08-08T07:37:09.000Z</time>
      </trkpt>
      <trkpt lat="47.68683" lon="6.04597">
        <ele>241</ele>
        <time>2012-08-08T07:37:10.000Z</time>
      </trkpt>
      <trkpt lat="47.68684" lon="6.04601">
        <ele>241.39999389648</ele>
        <time>2012-08-08T07:37:11.000Z</time>
      </trkpt>
      <trkpt lat="47.68685" lon="6.04604">
        <ele>241.80000305176</ele>
        <time>2012-08-08T07:37:12.000Z</time>
      </trkpt>
      <trkpt lat="47.68687" lon="6.0461">
        <ele>241.80000305176</ele>
        <time>2012-08-08T07:37:14.000Z</time>
      </trkpt>
      <trkpt lat="47.68698" lon="6.04635">
        <ele>241.80000305176</ele>
        <time>2012-08-08T07:37:22.000Z</time>
      </trkpt>
      <trkpt lat="47.6871" lon="6.04661">
        <ele>241.80000305176</ele>
        <time>2012-08-08T07:37:30.000Z</time>
      </trkpt>
      <trkpt lat="47.68721" lon="6.04685">
        <ele>241.80000305176</ele>
        <time>2012-08-08T07:37:36.000Z</time>
      </trkpt>
      <trkpt lat="47.68735" lon="6.04716">
        <ele>241.80000305176</ele>
        <time>2012-08-08T07:37:43.000Z</time>
      </trkpt>
      <trkpt lat="47.68747" lon="6.04756">
        <ele>241.80000305176</ele>
        <time>2012-08-08T07:37:51.000Z</time>
      </trkpt>
      <trkpt lat="47.68759" lon="6.048">
        <ele>241.80000305176</ele>
        <time>2012-08-08T07:37:58.000Z</time>
      </trkpt>
      <trkpt lat="47.68775" lon="6.04859">
        <ele>241.39999389648</ele>
        <time>2012-08-08T07:38:06.000Z</time>
      </trkpt>
      <trkpt lat="47.68777" lon="6.04866">
        <ele>240.80000305176</ele>
        <time>2012-08-08T07:38:07.000Z</time>
      </trkpt>
      <trkpt lat="47.68779" lon="6.04874">
        <ele>240.39999389648</ele>
        <time>2012-08-08T07:38:08.000Z</time>
      </trkpt>
      <trkpt lat="47.68781" lon="6.04881">
        <ele>239.80000305176</ele>
        <time>2012-08-08T07:38:09.000Z</time>
      </trkpt>
      <trkpt lat="47.68783" lon="6.04889">
        <ele>239.19999694824</ele>
        <time>2012-08-08T07:38:10.000Z</time>
      </trkpt>
      <trkpt lat="47.68789" lon="6.04915">
        <ele>239.19999694824</ele>
        <time>2012-08-08T07:38:14.000Z</time>
      </trkpt>
      <trkpt lat="47.68795" lon="6.04936">
        <ele>239.19999694824</ele>
        <time>2012-08-08T07:38:19.000Z</time>
      </trkpt>
      <trkpt lat="47.68797" lon="6.04944">
        <ele>239.19999694824</ele>
        <time>2012-08-08T07:38:22.000Z</time>
      </trkpt>
      <trkpt lat="47.68796" lon="6.04948">
        <ele>239.19999694824</ele>
        <time>2012-08-08T07:38:24.000Z</time>
      </trkpt>
      <trkpt lat="47.68788" lon="6.04959">
        <ele>239.19999694824</ele>
        <time>2012-08-08T07:38:30.000Z</time>
      </trkpt>
      <trkpt lat="47.68778" lon="6.04976">
        <ele>239.19999694824</ele>
        <time>2012-08-08T07:38:36.000Z</time>
      </trkpt>
      <trkpt lat="47.68769" lon="6.04989">
        <ele>239.60000610352</ele>
        <time>2012-08-08T07:38:41.000Z</time>
      </trkpt>
      <trkpt lat="47.68767" lon="6.04992">
        <ele>240</ele>
        <time>2012-08-08T07:38:42.000Z</time>
      </trkpt>
      <trkpt lat="47.68765" lon="6.04995">
        <ele>240.39999389648</ele>
        <time>2012-08-08T07:38:43.000Z</time>
      </trkpt>
      <trkpt lat="47.68763" lon="6.04998">
        <ele>240.80000305176</ele>
        <time>2012-08-08T07:38:44.000Z</time>
      </trkpt>
      <trkpt lat="47.68761" lon="6.05">
        <ele>241.19999694824</ele>
        <time>2012-08-08T07:38:45.000Z</time>
      </trkpt>
      <trkpt lat="47.68746" lon="6.05016">
        <ele>241.19999694824</ele>
        <time>2012-08-08T07:38:51.000Z</time>
      </trkpt>
      <trkpt lat="47.68728" lon="6.05039">
        <ele>241.19999694824</ele>
        <time>2012-08-08T07:38:59.000Z</time>
      </trkpt>
      <trkpt lat="47.68711" lon="6.0506">
        <ele>241.19999694824</ele>
        <time>2012-08-08T07:39:07.000Z</time>
      </trkpt>
      <trkpt lat="47.68699" lon="6.05077">
        <ele>241.19999694824</ele>
        <time>2012-08-08T07:39:13.000Z</time>
      </trkpt>
      <trkpt lat="47.68695" lon="6.05083">
        <ele>241.60000610352</ele>
        <time>2012-08-08T07:39:15.000Z</time>
      </trkpt>
      <trkpt lat="47.68693" lon="6.05086">
        <ele>242</ele>
        <time>2012-08-08T07:39:16.000Z</time>
      </trkpt>
      <trkpt lat="47.6869" lon="6.05089">
        <ele>242.60000610352</ele>
        <time>2012-08-08T07:39:17.000Z</time>
      </trkpt>
      <trkpt lat="47.68688" lon="6.05091">
        <ele>243.39999389648</ele>
        <time>2012-08-08T07:39:18.000Z</time>
      </trkpt>
      <trkpt lat="47.68684" lon="6.05097">
        <ele>243.39999389648</ele>
        <time>2012-08-08T07:39:20.000Z</time>
      </trkpt>
      <trkpt lat="47.68668" lon="6.05115">
        <ele>243.39999389648</ele>
        <time>2012-08-08T07:39:27.000Z</time>
      </trkpt>
      <trkpt lat="47.68643" lon="6.05134">
        <ele>243.39999389648</ele>
        <time>2012-08-08T07:39:36.000Z</time>
      </trkpt>
      <trkpt lat="47.68617" lon="6.05155">
        <ele>243.39999389648</ele>
        <time>2012-08-08T07:39:45.000Z</time>
      </trkpt>
      <trkpt lat="47.68612" lon="6.0516">
        <ele>243.80000305176</ele>
        <time>2012-08-08T07:39:47.000Z</time>
      </trkpt>
      <trkpt lat="47.68609" lon="6.05163">
        <ele>244.19999694824</ele>
        <time>2012-08-08T07:39:48.000Z</time>
      </trkpt>
      <trkpt lat="47.68607" lon="6.05165">
        <ele>244.60000610352</ele>
        <time>2012-08-08T07:39:49.000Z</time>
      </trkpt>
      <trkpt lat="47.68605" lon="6.05168">
        <ele>245</ele>
        <time>2012-08-08T07:39:50.000Z</time>
      </trkpt>
      <trkpt lat="47.68602" lon="6.05169">
        <ele>245.39999389648</ele>
        <time>2012-08-08T07:39:51.000Z</time>
      </trkpt>
      <trkpt lat="47.68581" lon="6.05181">
        <ele>245.39999389648</ele>
        <time>2012-08-08T07:39:58.000Z</time>
      </trkpt>
      <trkpt lat="47.68563" lon="6.05199">
        <ele>245.39999389648</ele>
        <time>2012-08-08T07:40:05.000Z</time>
      </trkpt>
      <trkpt lat="47.68544" lon="6.05216">
        <ele>245.80000305176</ele>
        <time>2012-08-08T07:40:13.000Z</time>
      </trkpt>
      <trkpt lat="47.68541" lon="6.05217">
        <ele>246.19999694824</ele>
        <time>2012-08-08T07:40:14.000Z</time>
      </trkpt>
      <trkpt lat="47.68539" lon="6.05219">
        <ele>246.60000610352</ele>
        <time>2012-08-08T07:40:15.000Z</time>
      </trkpt>
      <trkpt lat="47.68536" lon="6.05221">
        <ele>247</ele>
        <time>2012-08-08T07:40:16.000Z</time>
      </trkpt>
      <trkpt lat="47.68533" lon="6.05223">
        <ele>247.39999389648</ele>
        <time>2012-08-08T07:40:17.000Z</time>
      </trkpt>
      <trkpt lat="47.68531" lon="6.05225">
        <ele>247.39999389648</ele>
        <time>2012-08-08T07:40:18.000Z</time>
      </trkpt>
      <trkpt lat="47.68514" lon="6.05239">
        <ele>247.39999389648</ele>
        <time>2012-08-08T07:40:25.000Z</time>
      </trkpt>
      <trkpt lat="47.68494" lon="6.05253">
        <ele>247.39999389648</ele>
        <time>2012-08-08T07:40:33.000Z</time>
      </trkpt>
      <trkpt lat="47.68483" lon="6.0526">
        <ele>247.80000305176</ele>
        <time>2012-08-08T07:40:37.000Z</time>
      </trkpt>
      <trkpt lat="47.68481" lon="6.05262">
        <ele>248.19999694824</ele>
        <time>2012-08-08T07:40:38.000Z</time>
      </trkpt>
      <trkpt lat="47.68478" lon="6.05263">
        <ele>248.60000610352</ele>
        <time>2012-08-08T07:40:39.000Z</time>
      </trkpt>
      <trkpt lat="47.68475" lon="6.05265">
        <ele>249</ele>
        <time>2012-08-08T07:40:40.000Z</time>
      </trkpt>
      <trkpt lat="47.68473" lon="6.05267">
        <ele>249.39999389648</ele>
        <time>2012-08-08T07:40:41.000Z</time>
      </trkpt>
      <trkpt lat="47.68462" lon="6.05276">
        <ele>249.39999389648</ele>
        <time>2012-08-08T07:40:46.000Z</time>
      </trkpt>
      <trkpt lat="47.6844" lon="6.05291">
        <ele>249.39999389648</ele>
        <time>2012-08-08T07:40:55.000Z</time>
      </trkpt>
      <trkpt lat="47.68421" lon="6.05301">
        <ele>249.80000305176</ele>
        <time>2012-08-08T07:41:02.000Z</time>
      </trkpt>
      <trkpt lat="47.68418" lon="6.05302">
        <ele>250.19999694824</ele>
        <time>2012-08-08T07:41:03.000Z</time>
      </trkpt>
      <trkpt lat="47.68416" lon="6.05303">
        <ele>250.60000610352</ele>
        <time>2012-08-08T07:41:04.000Z</time>
      </trkpt>
      <trkpt lat="47.68413" lon="6.05305">
        <ele>251.19999694824</ele>
        <time>2012-08-08T07:41:05.000Z</time>
      </trkpt>
      <trkpt lat="47.68411" lon="6.05307">
        <ele>251.60000610352</ele>
        <time>2012-08-08T07:41:06.000Z</time>
      </trkpt>
      <trkpt lat="47.68403" lon="6.05311">
        <ele>251.60000610352</ele>
        <time>2012-08-08T07:41:09.000Z</time>
      </trkpt>
      <trkpt lat="47.68386" lon="6.05319">
        <ele>252</ele>
        <time>2012-08-08T07:41:16.000Z</time>
      </trkpt>
      <trkpt lat="47.68384" lon="6.0532">
        <ele>252.39999389648</ele>
        <time>2012-08-08T07:41:17.000Z</time>
      </trkpt>
      <trkpt lat="47.68382" lon="6.05321">
        <ele>252.80000305176</ele>
        <time>2012-08-08T07:41:18.000Z</time>
      </trkpt>
      <trkpt lat="47.6838" lon="6.05322">
        <ele>253.19999694824</ele>
        <time>2012-08-08T07:41:19.000Z</time>
      </trkpt>
      <trkpt lat="47.68377" lon="6.05322">
        <ele>253.60000610352</ele>
        <time>2012-08-08T07:41:20.000Z</time>
      </trkpt>
      <trkpt lat="47.68363" lon="6.05327">
        <ele>254</ele>
        <time>2012-08-08T07:41:27.000Z</time>
      </trkpt>
      <trkpt lat="47.68361" lon="6.05328">
        <ele>254.39999389648</ele>
        <time>2012-08-08T07:41:28.000Z</time>
      </trkpt>
      <trkpt lat="47.68359" lon="6.05329">
        <ele>254.80000305176</ele>
        <time>2012-08-08T07:41:29.000Z</time>
      </trkpt>
      <trkpt lat="47.68357" lon="6.05329">
        <ele>255.19999694824</ele>
        <time>2012-08-08T07:41:30.000Z</time>
      </trkpt>
      <trkpt lat="47.68355" lon="6.0533">
        <ele>255.60000610352</ele>
        <time>2012-08-08T07:41:31.000Z</time>
      </trkpt>
      <trkpt lat="47.68346" lon="6.05332">
        <ele>255.60000610352</ele>
        <time>2012-08-08T07:41:35.000Z</time>
      </trkpt>
      <trkpt lat="47.68336" lon="6.05334">
        <ele>256</ele>
        <time>2012-08-08T07:41:40.000Z</time>
      </trkpt>
      <trkpt lat="47.68334" lon="6.05334">
        <ele>256.39999389648</ele>
        <time>2012-08-08T07:41:41.000Z</time>
      </trkpt>
      <trkpt lat="47.68332" lon="6.05334">
        <ele>256.79998779297</ele>
        <time>2012-08-08T07:41:42.000Z</time>
      </trkpt>
      <trkpt lat="47.6833" lon="6.05334">
        <ele>257.20001220703</ele>
        <time>2012-08-08T07:41:43.000Z</time>
      </trkpt>
      <trkpt lat="47.68328" lon="6.05335">
        <ele>257.60000610352</ele>
        <time>2012-08-08T07:41:44.000Z</time>
      </trkpt>
      <trkpt lat="47.68313" lon="6.05336">
        <ele>257.60000610352</ele>
        <time>2012-08-08T07:41:51.000Z</time>
      </trkpt>
      <trkpt lat="47.68308" lon="6.05336">
        <ele>258</ele>
        <time>2012-08-08T07:41:54.000Z</time>
      </trkpt>
      <trkpt lat="47.68306" lon="6.05336">
        <ele>258.39999389648</ele>
        <time>2012-08-08T07:41:55.000Z</time>
      </trkpt>
      <trkpt lat="47.68304" lon="6.05336">
        <ele>258.79998779297</ele>
        <time>2012-08-08T07:41:56.000Z</time>
      </trkpt>
      <trkpt lat="47.68302" lon="6.05336">
        <ele>259.20001220703</ele>
        <time>2012-08-08T07:41:57.000Z</time>
      </trkpt>
      <trkpt lat="47.683" lon="6.05336">
        <ele>259.60000610352</ele>
        <time>2012-08-08T07:41:58.000Z</time>
      </trkpt>
      <trkpt lat="47.68295" lon="6.05339">
        <ele>259.60000610352</ele>
        <time>2012-08-08T07:42:00.000Z</time>
      </trkpt>
      <trkpt lat="47.68281" lon="6.05353">
        <ele>259.60000610352</ele>
        <time>2012-08-08T07:42:05.000Z</time>
      </trkpt>
      <trkpt lat="47.68262" lon="6.05379">
        <ele>259.60000610352</ele>
        <time>2012-08-08T07:42:10.000Z</time>
      </trkpt>
      <trkpt lat="47.68258" lon="6.05384">
        <ele>258.79998779297</ele>
        <time>2012-08-08T07:42:11.000Z</time>
      </trkpt>
      <trkpt lat="47.68254" lon="6.0539">
        <ele>258.39999389648</ele>
        <time>2012-08-08T07:42:12.000Z</time>
      </trkpt>
      <trkpt lat="47.6825" lon="6.05395">
        <ele>258</ele>
        <time>2012-08-08T07:42:13.000Z</time>
      </trkpt>
      <trkpt lat="47.68247" lon="6.054">
        <ele>257.39999389648</ele>
        <time>2012-08-08T07:42:14.000Z</time>
      </trkpt>
      <trkpt lat="47.68245" lon="6.05405">
        <ele>257</ele>
        <time>2012-08-08T07:42:15.000Z</time>
      </trkpt>
      <trkpt lat="47.68242" lon="6.0541">
        <ele>256.60000610352</ele>
        <time>2012-08-08T07:42:16.000Z</time>
      </trkpt>
      <trkpt lat="47.68239" lon="6.05414">
        <ele>256.20001220703</ele>
        <time>2012-08-08T07:42:17.000Z</time>
      </trkpt>
      <trkpt lat="47.68235" lon="6.05418">
        <ele>255.80000305176</ele>
        <time>2012-08-08T07:42:18.000Z</time>
      </trkpt>
      <trkpt lat="47.68232" lon="6.05421">
        <ele>255.19999694824</ele>
        <time>2012-08-08T07:42:19.000Z</time>
      </trkpt>
      <trkpt lat="47.68229" lon="6.05423">
        <ele>255.19999694824</ele>
        <time>2012-08-08T07:42:20.000Z</time>
      </trkpt>
      <trkpt lat="47.68225" lon="6.05426">
        <ele>254.80000305176</ele>
        <time>2012-08-08T07:42:21.000Z</time>
      </trkpt>
      <trkpt lat="47.68222" lon="6.05428">
        <ele>254.39999389648</ele>
        <time>2012-08-08T07:42:22.000Z</time>
      </trkpt>
      <trkpt lat="47.68218" lon="6.05429">
        <ele>254</ele>
        <time>2012-08-08T07:42:23.000Z</time>
      </trkpt>
      <trkpt lat="47.68214" lon="6.05429">
        <ele>253.39999389648</ele>
        <time>2012-08-08T07:42:24.000Z</time>
      </trkpt>
      <trkpt lat="47.6821" lon="6.05428">
        <ele>253</ele>
        <time>2012-08-08T07:42:25.000Z</time>
      </trkpt>
      <trkpt lat="47.68207" lon="6.05427">
        <ele>252.60000610352</ele>
        <time>2012-08-08T07:42:26.000Z</time>
      </trkpt>
      <trkpt lat="47.68203" lon="6.05425">
        <ele>252</ele>
        <time>2012-08-08T07:42:27.000Z</time>
      </trkpt>
      <trkpt lat="47.682" lon="6.05423">
        <ele>251.60000610352</ele>
        <time>2012-08-08T07:42:28.000Z</time>
      </trkpt>
      <trkpt lat="47.68196" lon="6.05421">
        <ele>251</ele>
        <time>2012-08-08T07:42:29.000Z</time>
      </trkpt>
      <trkpt lat="47.68193" lon="6.0542">
        <ele>250.60000610352</ele>
        <time>2012-08-08T07:42:30.000Z</time>
      </trkpt>
      <trkpt lat="47.68189" lon="6.0542">
        <ele>250.19999694824</ele>
        <time>2012-08-08T07:42:31.000Z</time>
      </trkpt>
      <trkpt lat="47.68185" lon="6.0542">
        <ele>249.80000305176</ele>
        <time>2012-08-08T07:42:32.000Z</time>
      </trkpt>
      <trkpt lat="47.68181" lon="6.05421">
        <ele>249.39999389648</ele>
        <time>2012-08-08T07:42:33.000Z</time>
      </trkpt>
      <trkpt lat="47.68178" lon="6.05423">
        <ele>249</ele>
        <time>2012-08-08T07:42:34.000Z</time>
      </trkpt>
      <trkpt lat="47.68176" lon="6.05425">
        <ele>248.39999389648</ele>
        <time>2012-08-08T07:42:35.000Z</time>
      </trkpt>
      <trkpt lat="47.68173" lon="6.05427">
        <ele>248</ele>
        <time>2012-08-08T07:42:36.000Z</time>
      </trkpt>
      <trkpt lat="47.6817" lon="6.0543">
        <ele>247.60000610352</ele>
        <time>2012-08-08T07:42:37.000Z</time>
      </trkpt>
      <trkpt lat="47.68168" lon="6.05434">
        <ele>247.19999694824</ele>
        <time>2012-08-08T07:42:38.000Z</time>
      </trkpt>
      <trkpt lat="47.68167" lon="6.05439">
        <ele>246.60000610352</ele>
        <time>2012-08-08T07:42:39.000Z</time>
      </trkpt>
      <trkpt lat="47.68165" lon="6.05445">
        <ele>246.19999694824</ele>
        <time>2012-08-08T07:42:40.000Z</time>
      </trkpt>
      <trkpt lat="47.68164" lon="6.05459">
        <ele>245.80000305176</ele>
        <time>2012-08-08T07:42:42.000Z</time>
      </trkpt>
      <trkpt lat="47.68163" lon="6.05467">
        <ele>245.39999389648</ele>
        <time>2012-08-08T07:42:43.000Z</time>
      </trkpt>
      <trkpt lat="47.68161" lon="6.05474">
        <ele>245</ele>
        <time>2012-08-08T07:42:44.000Z</time>
      </trkpt>
      <trkpt lat="47.68159" lon="6.05482">
        <ele>244.60000610352</ele>
        <time>2012-08-08T07:42:45.000Z</time>
      </trkpt>
      <trkpt lat="47.68157" lon="6.05489">
        <ele>244.19999694824</ele>
        <time>2012-08-08T07:42:46.000Z</time>
      </trkpt>
      <trkpt lat="47.68155" lon="6.05498">
        <ele>243.80000305176</ele>
        <time>2012-08-08T07:42:47.000Z</time>
      </trkpt>
      <trkpt lat="47.68154" lon="6.05506">
        <ele>243.19999694824</ele>
        <time>2012-08-08T07:42:48.000Z</time>
      </trkpt>
      <trkpt lat="47.68153" lon="6.05514">
        <ele>242.80000305176</ele>
        <time>2012-08-08T07:42:49.000Z</time>
      </trkpt>
      <trkpt lat="47.68151" lon="6.05522">
        <ele>242.39999389648</ele>
        <time>2012-08-08T07:42:50.000Z</time>
      </trkpt>
      <trkpt lat="47.6815" lon="6.0553">
        <ele>242</ele>
        <time>2012-08-08T07:42:51.000Z</time>
      </trkpt>
      <trkpt lat="47.68149" lon="6.05538">
        <ele>241.60000610352</ele>
        <time>2012-08-08T07:42:52.000Z</time>
      </trkpt>
      <trkpt lat="47.68148" lon="6.05547">
        <ele>241.19999694824</ele>
        <time>2012-08-08T07:42:53.000Z</time>
      </trkpt>
      <trkpt lat="47.68146" lon="6.05556">
        <ele>240.80000305176</ele>
        <time>2012-08-08T07:42:54.000Z</time>
      </trkpt>
      <trkpt lat="47.68144" lon="6.05564">
        <ele>240.39999389648</ele>
        <time>2012-08-08T07:42:55.000Z</time>
      </trkpt>
      <trkpt lat="47.68142" lon="6.05572">
        <ele>240</ele>
        <time>2012-08-08T07:42:56.000Z</time>
      </trkpt>
      <trkpt lat="47.68139" lon="6.05579">
        <ele>239.39999389648</ele>
        <time>2012-08-08T07:42:57.000Z</time>
      </trkpt>
      <trkpt lat="47.68135" lon="6.05587">
        <ele>239</ele>
        <time>2012-08-08T07:42:58.000Z</time>
      </trkpt>
      <trkpt lat="47.68131" lon="6.05593">
        <ele>238.60000610352</ele>
        <time>2012-08-08T07:42:59.000Z</time>
      </trkpt>
      <trkpt lat="47.68127" lon="6.05599">
        <ele>237.80000305176</ele>
        <time>2012-08-08T07:43:00.000Z</time>
      </trkpt>
      <trkpt lat="47.68122" lon="6.05605">
        <ele>237.80000305176</ele>
        <time>2012-08-08T07:43:01.000Z</time>
      </trkpt>
      <trkpt lat="47.68117" lon="6.0561">
        <ele>237.39999389648</ele>
        <time>2012-08-08T07:43:02.000Z</time>
      </trkpt>
      <trkpt lat="47.68111" lon="6.05615">
        <ele>237</ele>
        <time>2012-08-08T07:43:03.000Z</time>
      </trkpt>
      <trkpt lat="47.68106" lon="6.05619">
        <ele>236.60000610352</ele>
        <time>2012-08-08T07:43:04.000Z</time>
      </trkpt>
      <trkpt lat="47.681" lon="6.05623">
        <ele>236.19999694824</ele>
        <time>2012-08-08T07:43:05.000Z</time>
      </trkpt>
      <trkpt lat="47.68095" lon="6.05627">
        <ele>235.80000305176</ele>
        <time>2012-08-08T07:43:06.000Z</time>
      </trkpt>
      <trkpt lat="47.6809" lon="6.05632">
        <ele>235.80000305176</ele>
        <time>2012-08-08T07:43:07.000Z</time>
      </trkpt>
      <trkpt lat="47.68068" lon="6.05648">
        <ele>235.80000305176</ele>
        <time>2012-08-08T07:43:12.000Z</time>
      </trkpt>
      <trkpt lat="47.68047" lon="6.05665">
        <ele>235.80000305176</ele>
        <time>2012-08-08T07:43:18.000Z</time>
      </trkpt>
      <trkpt lat="47.68031" lon="6.0568">
        <ele>235.80000305176</ele>
        <time>2012-08-08T07:43:24.000Z</time>
      </trkpt>
      <trkpt lat="47.68018" lon="6.0569">
        <ele>235.80000305176</ele>
        <time>2012-08-08T07:43:29.000Z</time>
      </trkpt>
      <trkpt lat="47.68002" lon="6.05706">
        <ele>235.80000305176</ele>
        <time>2012-08-08T07:43:37.000Z</time>
      </trkpt>
      <trkpt lat="47.67997" lon="6.05717">
        <ele>235.80000305176</ele>
        <time>2012-08-08T07:43:43.000Z</time>
      </trkpt>
      <trkpt lat="47.67996" lon="6.05719">
        <ele>235.80000305176</ele>
        <time>2012-08-08T07:43:44.000Z</time>
      </trkpt>
      <trkpt lat="47.67992" lon="6.05727">
        <ele>235.80000305176</ele>
        <time>2012-08-08T07:44:09.000Z</time>
      </trkpt>
      <trkpt lat="47.6799" lon="6.0573">
        <ele>235.80000305176</ele>
        <time>2012-08-08T07:44:11.000Z</time>
      </trkpt>
      <trkpt lat="47.67984" lon="6.05736">
        <ele>236.60000610352</ele>
        <time>2012-08-08T07:44:15.000Z</time>
      </trkpt>
      <trkpt lat="47.67983" lon="6.05737">
        <ele>237</ele>
        <time>2012-08-08T07:44:16.000Z</time>
      </trkpt>
      <trkpt lat="47.67981" lon="6.05739">
        <ele>237.39999389648</ele>
        <time>2012-08-08T07:44:17.000Z</time>
      </trkpt>
      <trkpt lat="47.67979" lon="6.0574">
        <ele>237.80000305176</ele>
        <time>2012-08-08T07:44:18.000Z</time>
      </trkpt>
      <trkpt lat="47.67967" lon="6.05751">
        <ele>237.80000305176</ele>
        <time>2012-08-08T07:44:26.000Z</time>
      </trkpt>
      <trkpt lat="47.6796" lon="6.05754">
        <ele>238.19999694824</ele>
        <time>2012-08-08T07:44:30.000Z</time>
      </trkpt>
      <trkpt lat="47.67958" lon="6.05756">
        <ele>238.60000610352</ele>
        <time>2012-08-08T07:44:31.000Z</time>
      </trkpt>
      <trkpt lat="47.67956" lon="6.05757">
        <ele>239</ele>
        <time>2012-08-08T07:44:32.000Z</time>
      </trkpt>
      <trkpt lat="47.67955" lon="6.05758">
        <ele>239.39999389648</ele>
        <time>2012-08-08T07:44:33.000Z</time>
      </trkpt>
      <trkpt lat="47.67955" lon="6.0576">
        <ele>239.80000305176</ele>
        <time>2012-08-08T07:44:34.000Z</time>
      </trkpt>
      <trkpt lat="47.67955" lon="6.0577">
        <ele>239.80000305176</ele>
        <time>2012-08-08T07:44:38.000Z</time>
      </trkpt>
      <trkpt lat="47.67954" lon="6.05773">
        <ele>239.80000305176</ele>
        <time>2012-08-08T07:44:39.000Z</time>
      </trkpt>
      <trkpt lat="47.67951" lon="6.05785">
        <ele>240.19999694824</ele>
        <time>2012-08-08T07:44:45.000Z</time>
      </trkpt>
      <trkpt lat="47.67951" lon="6.05789">
        <ele>240.60000610352</ele>
        <time>2012-08-08T07:44:46.000Z</time>
      </trkpt>
      <trkpt lat="47.67951" lon="6.05791">
        <ele>241</ele>
        <time>2012-08-08T07:44:47.000Z</time>
      </trkpt>
      <trkpt lat="47.67952" lon="6.05793">
        <ele>241.39999389648</ele>
        <time>2012-08-08T07:44:48.000Z</time>
      </trkpt>
      <trkpt lat="47.67952" lon="6.05796">
        <ele>242</ele>
        <time>2012-08-08T07:44:49.000Z</time>
      </trkpt>
      <trkpt lat="47.67953" lon="6.05803">
        <ele>242</ele>
        <time>2012-08-08T07:44:52.000Z</time>
      </trkpt>
      <trkpt lat="47.67956" lon="6.05811">
        <ele>242</ele>
        <time>2012-08-08T07:44:56.000Z</time>
      </trkpt>
      <trkpt lat="47.67957" lon="6.05816">
        <ele>242.39999389648</ele>
        <time>2012-08-08T07:44:59.000Z</time>
      </trkpt>
      <trkpt lat="47.67958" lon="6.05817">
        <ele>242.80000305176</ele>
        <time>2012-08-08T07:45:00.000Z</time>
      </trkpt>
      <trkpt lat="47.67958" lon="6.05819">
        <ele>243.19999694824</ele>
        <time>2012-08-08T07:45:01.000Z</time>
      </trkpt>
      <trkpt lat="47.67958" lon="6.05819">
        <ele>243.60000610352</ele>
        <time>2012-08-08T07:45:02.000Z</time>
      </trkpt>
      <trkpt lat="47.67957" lon="6.05821">
        <ele>244</ele>
        <time>2012-08-08T07:45:03.000Z</time>
      </trkpt>
      <trkpt lat="47.67956" lon="6.05824">
        <ele>244</ele>
        <time>2012-08-08T07:45:05.000Z</time>
      </trkpt>
      <trkpt lat="47.67956" lon="6.05829">
        <ele>244.39999389648</ele>
        <time>2012-08-08T07:45:07.000Z</time>
      </trkpt>
      <trkpt lat="47.67956" lon="6.0583">
        <ele>244.80000305176</ele>
        <time>2012-08-08T07:45:08.000Z</time>
      </trkpt>
      <trkpt lat="47.67956" lon="6.05832">
        <ele>245.19999694824</ele>
        <time>2012-08-08T07:45:09.000Z</time>
      </trkpt>
      <trkpt lat="47.67955" lon="6.05833">
        <ele>245.60000610352</ele>
        <time>2012-08-08T07:45:10.000Z</time>
      </trkpt>
      <trkpt lat="47.67955" lon="6.05835">
        <ele>246</ele>
        <time>2012-08-08T07:45:11.000Z</time>
      </trkpt>
      <trkpt lat="47.67955" lon="6.05837">
        <ele>246</ele>
        <time>2012-08-08T07:45:12.000Z</time>
      </trkpt>
      <trkpt lat="47.67954" lon="6.05854">
        <ele>246</ele>
        <time>2012-08-08T07:45:19.000Z</time>
      </trkpt>
      <trkpt lat="47.67953" lon="6.05856">
        <ele>246.39999389648</ele>
        <time>2012-08-08T07:45:20.000Z</time>
      </trkpt>
      <trkpt lat="47.67953" lon="6.05857">
        <ele>246.80000305176</ele>
        <time>2012-08-08T07:45:21.000Z</time>
      </trkpt>
      <trkpt lat="47.67952" lon="6.05859">
        <ele>247.39999389648</ele>
        <time>2012-08-08T07:45:22.000Z</time>
      </trkpt>
      <trkpt lat="47.67951" lon="6.05861">
        <ele>247.80000305176</ele>
        <time>2012-08-08T07:45:23.000Z</time>
      </trkpt>
      <trkpt lat="47.6795" lon="6.05862">
        <ele>248.19999694824</ele>
        <time>2012-08-08T07:45:24.000Z</time>
      </trkpt>
      <trkpt lat="47.67946" lon="6.05867">
        <ele>248.19999694824</ele>
        <time>2012-08-08T07:45:27.000Z</time>
      </trkpt>
      <trkpt lat="47.67941" lon="6.05879">
        <ele>248.60000610352</ele>
        <time>2012-08-08T07:45:34.000Z</time>
      </trkpt>
      <trkpt lat="47.67942" lon="6.05882">
        <ele>249</ele>
        <time>2012-08-08T07:45:35.000Z</time>
      </trkpt>
      <trkpt lat="47.67941" lon="6.05884">
        <ele>249.39999389648</ele>
        <time>2012-08-08T07:45:36.000Z</time>
      </trkpt>
      <trkpt lat="47.67941" lon="6.05886">
        <ele>249.80000305176</ele>
        <time>2012-08-08T07:45:37.000Z</time>
      </trkpt>
      <trkpt lat="47.67942" lon="6.05889">
        <ele>250.39999389648</ele>
        <time>2012-08-08T07:45:38.000Z</time>
      </trkpt>
      <trkpt lat="47.67942" lon="6.05893">
        <ele>250.39999389648</ele>
        <time>2012-08-08T07:45:40.000Z</time>
      </trkpt>
      <trkpt lat="47.6794" lon="6.05904">
        <ele>250.39999389648</ele>
        <time>2012-08-08T07:45:47.000Z</time>
      </trkpt>
      <trkpt lat="47.6794" lon="6.05906">
        <ele>250.80000305176</ele>
        <time>2012-08-08T07:45:49.000Z</time>
      </trkpt>
      <trkpt lat="47.6794" lon="6.05908">
        <ele>251.19999694824</ele>
        <time>2012-08-08T07:45:50.000Z</time>
      </trkpt>
      <trkpt lat="47.67896" lon="6.05958">
        <ele>258.60000610352</ele>
        <time>2012-08-08T07:47:01.000Z</time>
      </trkpt>
      <trkpt lat="47.67894" lon="6.05962">
        <ele>258.60000610352</ele>
        <time>2012-08-08T07:47:03.000Z</time>
      </trkpt>
      <trkpt lat="47.67883" lon="6.05973">
        <ele>259</ele>
        <time>2012-08-08T07:47:10.000Z</time>
      </trkpt>
      <trkpt lat="47.67882" lon="6.05975">
        <ele>259.39999389648</ele>
        <time>2012-08-08T07:47:11.000Z</time>
      </trkpt>
      <trkpt lat="47.67882" lon="6.05977">
        <ele>259.79998779297</ele>
        <time>2012-08-08T07:47:12.000Z</time>
      </trkpt>
      <trkpt lat="47.67881" lon="6.05978">
        <ele>260.20001220703</ele>
        <time>2012-08-08T07:47:13.000Z</time>
      </trkpt>
      <trkpt lat="47.6788" lon="6.0598">
        <ele>260.60000610352</ele>
        <time>2012-08-08T07:47:14.000Z</time>
      </trkpt>
      <trkpt lat="47.67875" lon="6.05986">
        <ele>260.60000610352</ele>
        <time>2012-08-08T07:47:18.000Z</time>
      </trkpt>
      <trkpt lat="47.67869" lon="6.05998">
        <ele>260.60000610352</ele>
        <time>2012-08-08T07:47:25.000Z</time>
      </trkpt>
      <trkpt lat="47.67863" lon="6.06003">
        <ele>260.60000610352</ele>
        <time>2012-08-08T07:47:30.000Z</time>
      </trkpt>
      <trkpt lat="47.67862" lon="6.06004">
        <ele>260.60000610352</ele>
        <time>2012-08-08T07:47:32.000Z</time>
      </trkpt>
      <trkpt lat="47.67861" lon="6.06005">
        <ele>261</ele>
        <time>2012-08-08T07:47:34.000Z</time>
      </trkpt>
      <trkpt lat="47.6786" lon="6.06005">
        <ele>261.60000610352</ele>
        <time>2012-08-08T07:47:35.000Z</time>
      </trkpt>
      <trkpt lat="47.67859" lon="6.06005">
        <ele>262</ele>
        <time>2012-08-08T07:47:36.000Z</time>
      </trkpt>
      <trkpt lat="47.67858" lon="6.06006">
        <ele>262.39999389648</ele>
        <time>2012-08-08T07:47:37.000Z</time>
      </trkpt>
      <trkpt lat="47.67856" lon="6.06007">
        <ele>262.79998779297</ele>
        <time>2012-08-08T07:47:38.000Z</time>
      </trkpt>
      <trkpt lat="47.67853" lon="6.06009">
        <ele>262.79998779297</ele>
        <time>2012-08-08T07:47:40.000Z</time>
      </trkpt>
      <trkpt lat="47.67847" lon="6.06013">
        <ele>262.79998779297</ele>
        <time>2012-08-08T07:47:43.000Z</time>
      </trkpt>
      <trkpt lat="47.67837" lon="6.06021">
        <ele>262.79998779297</ele>
        <time>2012-08-08T07:47:49.000Z</time>
      </trkpt>
      <trkpt lat="47.67831" lon="6.06033">
        <ele>262.79998779297</ele>
        <time>2012-08-08T07:47:55.000Z</time>
      </trkpt>
      <trkpt lat="47.67826" lon="6.06038">
        <ele>263.20001220703</ele>
        <time>2012-08-08T07:47:59.000Z</time>
      </trkpt>
      <trkpt lat="47.67825" lon="6.06039">
        <ele>263.60000610352</ele>
        <time>2012-08-08T07:48:00.000Z</time>
      </trkpt>
      <trkpt lat="47.67825" lon="6.06041">
        <ele>264</ele>
        <time>2012-08-08T07:48:01.000Z</time>
      </trkpt>
      <trkpt lat="47.67824" lon="6.06042">
        <ele>264.39999389648</ele>
        <time>2012-08-08T07:48:02.000Z</time>
      </trkpt>
      <trkpt lat="47.67822" lon="6.06044">
        <ele>264.79998779297</ele>
        <time>2012-08-08T07:48:03.000Z</time>
      </trkpt>
      <trkpt lat="47.67815" lon="6.06053">
        <ele>264.79998779297</ele>
        <time>2012-08-08T07:48:09.000Z</time>
      </trkpt>
      <trkpt lat="47.67806" lon="6.06061">
        <ele>265.20001220703</ele>
        <time>2012-08-08T07:48:15.000Z</time>
      </trkpt>
      <trkpt lat="47.67805" lon="6.06063">
        <ele>265.60000610352</ele>
        <time>2012-08-08T07:48:16.000Z</time>
      </trkpt>
      <trkpt lat="47.67805" lon="6.06065">
        <ele>266</ele>
        <time>2012-08-08T07:48:17.000Z</time>
      </trkpt>
      <trkpt lat="47.67804" lon="6.06066">
        <ele>266.39999389648</ele>
        <time>2012-08-08T07:48:18.000Z</time>
      </trkpt>
      <trkpt lat="47.67803" lon="6.06068">
        <ele>267</ele>
        <time>2012-08-08T07:48:19.000Z</time>
      </trkpt>
      <trkpt lat="47.67797" lon="6.06077">
        <ele>267.39999389648</ele>
        <time>2012-08-08T07:48:25.000Z</time>
      </trkpt>
      <trkpt lat="47.67797" lon="6.06077">
        <ele>267.79998779297</ele>
        <time>2012-08-08T07:48:26.000Z</time>
      </trkpt>
      <trkpt lat="47.67796" lon="6.06077">
        <ele>268.20001220703</ele>
        <time>2012-08-08T07:48:27.000Z</time>
      </trkpt>
      <trkpt lat="47.67785" lon="6.06089">
        <ele>269</ele>
        <time>2012-08-08T07:50:16.000Z</time>
      </trkpt>
      <trkpt lat="47.67782" lon="6.06096">
        <ele>269</ele>
        <time>2012-08-08T07:50:19.000Z</time>
      </trkpt>
      <trkpt lat="47.67778" lon="6.06106">
        <ele>269.79998779297</ele>
        <time>2012-08-08T07:50:24.000Z</time>
      </trkpt>
      <trkpt lat="47.67777" lon="6.06108">
        <ele>270.20001220703</ele>
        <time>2012-08-08T07:50:25.000Z</time>
      </trkpt>
      <trkpt lat="47.67774" lon="6.06142">
        <ele>271</ele>
        <time>2012-08-08T07:50:53.000Z</time>
      </trkpt>
      <trkpt lat="47.6777" lon="6.0615">
        <ele>271</ele>
        <time>2012-08-08T07:50:57.000Z</time>
      </trkpt>
      <trkpt lat="47.67766" lon="6.06158">
        <ele>271</ele>
        <time>2012-08-08T07:51:02.000Z</time>
      </trkpt>
      <trkpt lat="47.67759" lon="6.06167">
        <ele>271</ele>
        <time>2012-08-08T07:51:08.000Z</time>
      </trkpt>
      <trkpt lat="47.67754" lon="6.06175">
        <ele>271.39999389648</ele>
        <time>2012-08-08T07:51:13.000Z</time>
      </trkpt>
      <trkpt lat="47.67753" lon="6.06178">
        <ele>272.20001220703</ele>
        <time>2012-08-08T07:51:14.000Z</time>
      </trkpt>
      <trkpt lat="47.67752" lon="6.06181">
        <ele>272.60000610352</ele>
        <time>2012-08-08T07:51:15.000Z</time>
      </trkpt>
      <trkpt lat="47.67752" lon="6.06184">
        <ele>273</ele>
        <time>2012-08-08T07:51:16.000Z</time>
      </trkpt>
      <trkpt lat="47.67749" lon="6.06195">
        <ele>273</ele>
        <time>2012-08-08T07:51:20.000Z</time>
      </trkpt>
      <trkpt lat="47.67744" lon="6.06211">
        <ele>273</ele>
        <time>2012-08-08T07:51:26.000Z</time>
      </trkpt>
      <trkpt lat="47.67735" lon="6.06229">
        <ele>273</ele>
        <time>2012-08-08T07:51:32.000Z</time>
      </trkpt>
      <trkpt lat="47.67729" lon="6.06246">
        <ele>273</ele>
        <time>2012-08-08T07:51:37.000Z</time>
      </trkpt>
      <trkpt lat="47.67728" lon="6.06249">
        <ele>273.79998779297</ele>
        <time>2012-08-08T07:51:38.000Z</time>
      </trkpt>
      <trkpt lat="47.67728" lon="6.06253">
        <ele>274.20001220703</ele>
        <time>2012-08-08T07:51:39.000Z</time>
      </trkpt>
      <trkpt lat="47.67726" lon="6.06257">
        <ele>274.60000610352</ele>
        <time>2012-08-08T07:51:40.000Z</time>
      </trkpt>
      <trkpt lat="47.67725" lon="6.0626">
        <ele>275</ele>
        <time>2012-08-08T07:51:41.000Z</time>
      </trkpt>
      <trkpt lat="47.67716" lon="6.06282">
        <ele>275</ele>
        <time>2012-08-08T07:51:47.000Z</time>
      </trkpt>
      <trkpt lat="47.67701" lon="6.06303">
        <ele>275</ele>
        <time>2012-08-08T07:51:53.000Z</time>
      </trkpt>
      <trkpt lat="47.6768" lon="6.06329">
        <ele>275</ele>
        <time>2012-08-08T07:51:59.000Z</time>
      </trkpt>
      <trkpt lat="47.67664" lon="6.0635">
        <ele>274.60000610352</ele>
        <time>2012-08-08T07:52:03.000Z</time>
      </trkpt>
      <trkpt lat="47.6766" lon="6.06355">
        <ele>274.20001220703</ele>
        <time>2012-08-08T07:52:04.000Z</time>
      </trkpt>
      <trkpt lat="47.67657" lon="6.06362">
        <ele>273.79998779297</ele>
        <time>2012-08-08T07:52:05.000Z</time>
      </trkpt>
      <trkpt lat="47.67655" lon="6.06368">
        <ele>273.39999389648</ele>
        <time>2012-08-08T07:52:06.000Z</time>
      </trkpt>
      <trkpt lat="47.67652" lon="6.06374">
        <ele>273</ele>
        <time>2012-08-08T07:52:07.000Z</time>
      </trkpt>
      <trkpt lat="47.6765" lon="6.0638">
        <ele>273</ele>
        <time>2012-08-08T07:52:08.000Z</time>
      </trkpt>
      <trkpt lat="47.67637" lon="6.06411">
        <ele>273</ele>
        <time>2012-08-08T07:52:13.000Z</time>
      </trkpt>
      <trkpt lat="47.67628" lon="6.06423">
        <ele>272.39999389648</ele>
        <time>2012-08-08T07:52:15.000Z</time>
      </trkpt>
      <trkpt lat="47.67625" lon="6.06428">
        <ele>272</ele>
        <time>2012-08-08T07:52:16.000Z</time>
      </trkpt>
      <trkpt lat="47.67622" lon="6.06435">
        <ele>271.60000610352</ele>
        <time>2012-08-08T07:52:17.000Z</time>
      </trkpt>
      <trkpt lat="47.67619" lon="6.06443">
        <ele>271.20001220703</ele>
        <time>2012-08-08T07:52:18.000Z</time>
      </trkpt>
      <trkpt lat="47.67616" lon="6.06451">
        <ele>270.60000610352</ele>
        <time>2012-08-08T07:52:19.000Z</time>
      </trkpt>
      <trkpt lat="47.67604" lon="6.06491">
        <ele>270.60000610352</ele>
        <time>2012-08-08T07:52:25.000Z</time>
      </trkpt>
      <trkpt lat="47.67599" lon="6.06511">
        <ele>270.60000610352</ele>
        <time>2012-08-08T07:52:30.000Z</time>
      </trkpt>
      <trkpt lat="47.67592" lon="6.0653">
        <ele>270.60000610352</ele>
        <time>2012-08-08T07:52:37.000Z</time>
      </trkpt>
      <trkpt lat="47.67588" lon="6.06543">
        <ele>270.20001220703</ele>
        <time>2012-08-08T07:52:43.000Z</time>
      </trkpt>
      <trkpt lat="47.67588" lon="6.06545">
        <ele>269.79998779297</ele>
        <time>2012-08-08T07:52:44.000Z</time>
      </trkpt>
      <trkpt lat="47.67587" lon="6.06547">
        <ele>269.39999389648</ele>
        <time>2012-08-08T07:52:45.000Z</time>
      </trkpt>
      <trkpt lat="47.67586" lon="6.06549">
        <ele>269</ele>
        <time>2012-08-08T07:52:46.000Z</time>
      </trkpt>
      <trkpt lat="47.67586" lon="6.06551">
        <ele>268.60000610352</ele>
        <time>2012-08-08T07:52:47.000Z</time>
      </trkpt>
      <trkpt lat="47.67584" lon="6.06558">
        <ele>268.60000610352</ele>
        <time>2012-08-08T07:52:50.000Z</time>
      </trkpt>
      <trkpt lat="47.67585" lon="6.06565">
        <ele>268.60000610352</ele>
        <time>2012-08-08T07:52:53.000Z</time>
      </trkpt>
      <trkpt lat="47.67583" lon="6.06571">
        <ele>268.60000610352</ele>
        <time>2012-08-08T07:52:55.000Z</time>
      </trkpt>
      <trkpt lat="47.67581" lon="6.06577">
        <ele>268.60000610352</ele>
        <time>2012-08-08T07:52:57.000Z</time>
      </trkpt>
      <trkpt lat="47.67577" lon="6.06589">
        <ele>268.60000610352</ele>
        <time>2012-08-08T07:53:01.000Z</time>
      </trkpt>
      <trkpt lat="47.67568" lon="6.06603">
        <ele>268.60000610352</ele>
        <time>2012-08-08T07:53:07.000Z</time>
      </trkpt>
      <trkpt lat="47.67561" lon="6.06619">
        <ele>268.60000610352</ele>
        <time>2012-08-08T07:53:13.000Z</time>
      </trkpt>
      <trkpt lat="47.67558" lon="6.06629">
        <ele>268.60000610352</ele>
        <time>2012-08-08T07:53:18.000Z</time>
      </trkpt>
      <trkpt lat="47.67558" lon="6.06632">
        <ele>269</ele>
        <time>2012-08-08T07:53:20.000Z</time>
      </trkpt>
      <trkpt lat="47.67558" lon="6.06634">
        <ele>269.39999389648</ele>
        <time>2012-08-08T07:53:21.000Z</time>
      </trkpt>
      <trkpt lat="47.67558" lon="6.06637">
        <ele>269.79998779297</ele>
        <time>2012-08-08T07:53:22.000Z</time>
      </trkpt>
      <trkpt lat="47.67558" lon="6.0664">
        <ele>270.20001220703</ele>
        <time>2012-08-08T07:53:23.000Z</time>
      </trkpt>
      <trkpt lat="47.67559" lon="6.06644">
        <ele>270.79998779297</ele>
        <time>2012-08-08T07:53:24.000Z</time>
      </trkpt>
      <trkpt lat="47.6756" lon="6.06648">
        <ele>270.79998779297</ele>
        <time>2012-08-08T07:53:25.000Z</time>
      </trkpt>
      <trkpt lat="47.67554" lon="6.06663">
        <ele>270.79998779297</ele>
        <time>2012-08-08T07:53:32.000Z</time>
      </trkpt>
      <trkpt lat="47.67553" lon="6.06672">
        <ele>271.20001220703</ele>
        <time>2012-08-08T07:53:35.000Z</time>
      </trkpt>
      <trkpt lat="47.67553" lon="6.06674">
        <ele>271.60000610352</ele>
        <time>2012-08-08T07:53:36.000Z</time>
      </trkpt>
      <trkpt lat="47.67553" lon="6.06677">
        <ele>272</ele>
        <time>2012-08-08T07:53:37.000Z</time>
      </trkpt>
      <trkpt lat="47.67554" lon="6.0668">
        <ele>272.39999389648</ele>
        <time>2012-08-08T07:53:38.000Z</time>
      </trkpt>
      <trkpt lat="47.67554" lon="6.06683">
        <ele>272.79998779297</ele>
        <time>2012-08-08T07:53:39.000Z</time>
      </trkpt>
      <trkpt lat="47.67556" lon="6.06693">
        <ele>272.79998779297</ele>
        <time>2012-08-08T07:53:42.000Z</time>
      </trkpt>
      <trkpt lat="47.67556" lon="6.06696">
        <ele>272.79998779297</ele>
        <time>2012-08-08T07:53:43.000Z</time>
      </trkpt>
      <trkpt lat="47.67555" lon="6.06705">
        <ele>272.79998779297</ele>
        <time>2012-08-08T07:53:47.000Z</time>
      </trkpt>
      <trkpt lat="47.67553" lon="6.0671">
        <ele>272.79998779297</ele>
        <time>2012-08-08T07:53:50.000Z</time>
      </trkpt>
      <trkpt lat="47.67552" lon="6.06712">
        <ele>273.20001220703</ele>
        <time>2012-08-08T07:53:51.000Z</time>
      </trkpt>
      <trkpt lat="47.67551" lon="6.06714">
        <ele>273.60000610352</ele>
        <time>2012-08-08T07:53:52.000Z</time>
      </trkpt>
      <trkpt lat="47.67551" lon="6.06716">
        <ele>274</ele>
        <time>2012-08-08T07:53:53.000Z</time>
      </trkpt>
      <trkpt lat="47.6755" lon="6.06719">
        <ele>274.39999389648</ele>
        <time>2012-08-08T07:53:54.000Z</time>
      </trkpt>
      <trkpt lat="47.67549" lon="6.06722">
        <ele>274.79998779297</ele>
        <time>2012-08-08T07:53:55.000Z</time>
      </trkpt>
      <trkpt lat="47.67547" lon="6.06726">
        <ele>274.79998779297</ele>
        <time>2012-08-08T07:53:57.000Z</time>
      </trkpt>
      <trkpt lat="47.67546" lon="6.0674">
        <ele>274.79998779297</ele>
        <time>2012-08-08T07:54:03.000Z</time>
      </trkpt>
      <trkpt lat="47.67546" lon="6.06756">
        <ele>274.79998779297</ele>
        <time>2012-08-08T07:54:10.000Z</time>
      </trkpt>
      <trkpt lat="47.67544" lon="6.06762">
        <ele>275.39999389648</ele>
        <time>2012-08-08T07:54:13.000Z</time>
      </trkpt>
      <trkpt lat="47.67543" lon="6.06765">
        <ele>275.79998779297</ele>
        <time>2012-08-08T07:54:14.000Z</time>
      </trkpt>
      <trkpt lat="47.67543" lon="6.06766">
        <ele>276.20001220703</ele>
        <time>2012-08-08T07:54:15.000Z</time>
      </trkpt>
      <trkpt lat="47.67543" lon="6.06768">
        <ele>276.60000610352</ele>
        <time>2012-08-08T07:54:16.000Z</time>
      </trkpt>
      <trkpt lat="47.67543" lon="6.0677">
        <ele>277</ele>
        <time>2012-08-08T07:54:17.000Z</time>
      </trkpt>
      <trkpt lat="47.67543" lon="6.06779">
        <ele>277</ele>
        <time>2012-08-08T07:54:21.000Z</time>
      </trkpt>
      <trkpt lat="47.67538" lon="6.06795">
        <ele>277</ele>
        <time>2012-08-08T07:54:28.000Z</time>
      </trkpt>
      <trkpt lat="47.67539" lon="6.06798">
        <ele>277</ele>
        <time>2012-08-08T07:54:29.000Z</time>
      </trkpt>
      <trkpt lat="47.67538" lon="6.06805">
        <ele>277</ele>
        <time>2012-08-08T07:54:33.000Z</time>
      </trkpt>
      <trkpt lat="47.67538" lon="6.06807">
        <ele>277</ele>
        <time>2012-08-08T07:54:34.000Z</time>
      </trkpt>
      <trkpt lat="47.67538" lon="6.06809">
        <ele>277.39999389648</ele>
        <time>2012-08-08T07:54:35.000Z</time>
      </trkpt>
      <trkpt lat="47.67538" lon="6.06811">
        <ele>277.79998779297</ele>
        <time>2012-08-08T07:54:36.000Z</time>
      </trkpt>
      <trkpt lat="47.67538" lon="6.06813">
        <ele>278.39999389648</ele>
        <time>2012-08-08T07:54:37.000Z</time>
      </trkpt>
      <trkpt lat="47.67539" lon="6.06815">
        <ele>278.79998779297</ele>
        <time>2012-08-08T07:54:38.000Z</time>
      </trkpt>
      <trkpt lat="47.67539" lon="6.06818">
        <ele>279.20001220703</ele>
        <time>2012-08-08T07:54:39.000Z</time>
      </trkpt>
      <trkpt lat="47.67537" lon="6.06831">
        <ele>279.20001220703</ele>
        <time>2012-08-08T07:54:45.000Z</time>
      </trkpt>
      <trkpt lat="47.67533" lon="6.06852">
        <ele>279.20001220703</ele>
        <time>2012-08-08T07:54:53.000Z</time>
      </trkpt>
      <trkpt lat="47.67532" lon="6.06866">
        <ele>279.20001220703</ele>
        <time>2012-08-08T07:55:00.000Z</time>
      </trkpt>
      <trkpt lat="47.67533" lon="6.06867">
        <ele>279.20001220703</ele>
        <time>2012-08-08T07:55:01.000Z</time>
      </trkpt>
      <trkpt lat="47.67523" lon="6.06894">
        <ele>279.20001220703</ele>
        <time>2012-08-08T07:55:29.000Z</time>
      </trkpt>
      <trkpt lat="47.67523" lon="6.06898">
        <ele>279.20001220703</ele>
        <time>2012-08-08T07:55:31.000Z</time>
      </trkpt>
      <trkpt lat="47.67523" lon="6.06902">
        <ele>279.20001220703</ele>
        <time>2012-08-08T07:55:35.000Z</time>
      </trkpt>
      <trkpt lat="47.67524" lon="6.06909">
        <ele>279.20001220703</ele>
        <time>2012-08-08T07:55:46.000Z</time>
      </trkpt>
      <trkpt lat="47.67523" lon="6.06911">
        <ele>279.20001220703</ele>
        <time>2012-08-08T07:55:47.000Z</time>
      </trkpt>
      <trkpt lat="47.67516" lon="6.06935">
        <ele>279.20001220703</ele>
        <time>2012-08-08T07:55:53.000Z</time>
      </trkpt>
      <trkpt lat="47.6751" lon="6.06962">
        <ele>279.20001220703</ele>
        <time>2012-08-08T07:56:00.000Z</time>
      </trkpt>
      <trkpt lat="47.67506" lon="6.06984">
        <ele>279.20001220703</ele>
        <time>2012-08-08T07:56:06.000Z</time>
      </trkpt>
      <trkpt lat="47.67503" lon="6.07001">
        <ele>278.79998779297</ele>
        <time>2012-08-08T07:56:11.000Z</time>
      </trkpt>
      <trkpt lat="47.67503" lon="6.07004">
        <ele>278.39999389648</ele>
        <time>2012-08-08T07:56:12.000Z</time>
      </trkpt>
      <trkpt lat="47.67502" lon="6.07007">
        <ele>278</ele>
        <time>2012-08-08T07:56:13.000Z</time>
      </trkpt>
      <trkpt lat="47.67501" lon="6.0701">
        <ele>277.39999389648</ele>
        <time>2012-08-08T07:56:14.000Z</time>
      </trkpt>
      <trkpt lat="47.67499" lon="6.07014">
        <ele>277</ele>
        <time>2012-08-08T07:56:15.000Z</time>
      </trkpt>
      <trkpt lat="47.67493" lon="6.07032">
        <ele>277</ele>
        <time>2012-08-08T07:56:20.000Z</time>
      </trkpt>
      <trkpt lat="47.67486" lon="6.07054">
        <ele>277</ele>
        <time>2012-08-08T07:56:26.000Z</time>
      </trkpt>
      <trkpt lat="47.67484" lon="6.07081">
        <ele>277</ele>
        <time>2012-08-08T07:56:33.000Z</time>
      </trkpt>
      <trkpt lat="47.67482" lon="6.07093">
        <ele>276.60000610352</ele>
        <time>2012-08-08T07:56:37.000Z</time>
      </trkpt>
      <trkpt lat="47.67482" lon="6.07097">
        <ele>276.20001220703</ele>
        <time>2012-08-08T07:56:38.000Z</time>
      </trkpt>
      <trkpt lat="47.67482" lon="6.071">
        <ele>275.79998779297</ele>
        <time>2012-08-08T07:56:39.000Z</time>
      </trkpt>
      <trkpt lat="47.67481" lon="6.07104">
        <ele>275.39999389648</ele>
        <time>2012-08-08T07:56:40.000Z</time>
      </trkpt>
      <trkpt lat="47.67481" lon="6.07109">
        <ele>275</ele>
        <time>2012-08-08T07:56:41.000Z</time>
      </trkpt>
      <trkpt lat="47.6748" lon="6.07125">
        <ele>275</ele>
        <time>2012-08-08T07:56:45.000Z</time>
      </trkpt>
      <trkpt lat="47.67473" lon="6.07143">
        <ele>275</ele>
        <time>2012-08-08T07:56:50.000Z</time>
      </trkpt>
      <trkpt lat="47.67469" lon="6.07156">
        <ele>274.60000610352</ele>
        <time>2012-08-08T07:56:54.000Z</time>
      </trkpt>
      <trkpt lat="47.67468" lon="6.07158">
        <ele>274.20001220703</ele>
        <time>2012-08-08T07:56:55.000Z</time>
      </trkpt>
      <trkpt lat="47.67467" lon="6.07161">
        <ele>273.79998779297</ele>
        <time>2012-08-08T07:56:56.000Z</time>
      </trkpt>
      <trkpt lat="47.67466" lon="6.07165">
        <ele>273.39999389648</ele>
        <time>2012-08-08T07:56:57.000Z</time>
      </trkpt>
      <trkpt lat="47.67465" lon="6.07171">
        <ele>273</ele>
        <time>2012-08-08T07:56:58.000Z</time>
      </trkpt>
      <trkpt lat="47.67464" lon="6.07178">
        <ele>273</ele>
        <time>2012-08-08T07:56:59.000Z</time>
      </trkpt>
      <trkpt lat="47.67463" lon="6.07202">
        <ele>272.39999389648</ele>
        <time>2012-08-08T07:57:03.000Z</time>
      </trkpt>
      <trkpt lat="47.67463" lon="6.07208">
        <ele>272</ele>
        <time>2012-08-08T07:57:04.000Z</time>
      </trkpt>
      <trkpt lat="47.67462" lon="6.07212">
        <ele>271.60000610352</ele>
        <time>2012-08-08T07:57:05.000Z</time>
      </trkpt>
      <trkpt lat="47.67462" lon="6.07217">
        <ele>271.20001220703</ele>
        <time>2012-08-08T07:57:06.000Z</time>
      </trkpt>
      <trkpt lat="47.6746" lon="6.07222">
        <ele>270.79998779297</ele>
        <time>2012-08-08T07:57:07.000Z</time>
      </trkpt>
      <trkpt lat="47.67457" lon="6.07236">
        <ele>270.79998779297</ele>
        <time>2012-08-08T07:57:10.000Z</time>
      </trkpt>
      <trkpt lat="47.67456" lon="6.0724">
        <ele>270.39999389648</ele>
        <time>2012-08-08T07:57:11.000Z</time>
      </trkpt>
      <trkpt lat="47.67455" lon="6.07244">
        <ele>270</ele>
        <time>2012-08-08T07:57:12.000Z</time>
      </trkpt>
      <trkpt lat="47.67454" lon="6.07248">
        <ele>269.60000610352</ele>
        <time>2012-08-08T07:57:13.000Z</time>
      </trkpt>
      <trkpt lat="47.67453" lon="6.07252">
        <ele>269</ele>
        <time>2012-08-08T07:57:14.000Z</time>
      </trkpt>
      <trkpt lat="47.67451" lon="6.07258">
        <ele>268.60000610352</ele>
        <time>2012-08-08T07:57:15.000Z</time>
      </trkpt>
      <trkpt lat="47.67449" lon="6.07263">
        <ele>268.60000610352</ele>
        <time>2012-08-08T07:57:16.000Z</time>
      </trkpt>
      <trkpt lat="47.67446" lon="6.07276">
        <ele>268.20001220703</ele>
        <time>2012-08-08T07:57:18.000Z</time>
      </trkpt>
      <trkpt lat="47.67444" lon="6.07284">
        <ele>267.79998779297</ele>
        <time>2012-08-08T07:57:19.000Z</time>
      </trkpt>
      <trkpt lat="47.67442" lon="6.07292">
        <ele>267.39999389648</ele>
        <time>2012-08-08T07:57:20.000Z</time>
      </trkpt>
      <trkpt lat="47.67441" lon="6.07301">
        <ele>266.79998779297</ele>
        <time>2012-08-08T07:57:21.000Z</time>
      </trkpt>
      <trkpt lat="47.67439" lon="6.0731">
        <ele>266.39999389648</ele>
        <time>2012-08-08T07:57:22.000Z</time>
      </trkpt>
      <trkpt lat="47.67437" lon="6.07318">
        <ele>265.79998779297</ele>
        <time>2012-08-08T07:57:23.000Z</time>
      </trkpt>
      <trkpt lat="47.67435" lon="6.07325">
        <ele>264.79998779297</ele>
        <time>2012-08-08T07:57:24.000Z</time>
      </trkpt>
      <trkpt lat="47.67433" lon="6.07332">
        <ele>264.39999389648</ele>
        <time>2012-08-08T07:57:25.000Z</time>
      </trkpt>
      <trkpt lat="47.67431" lon="6.07338">
        <ele>264.39999389648</ele>
        <time>2012-08-08T07:57:26.000Z</time>
      </trkpt>
      <trkpt lat="47.67427" lon="6.07352">
        <ele>264</ele>
        <time>2012-08-08T07:57:28.000Z</time>
      </trkpt>
      <trkpt lat="47.67425" lon="6.07359">
        <ele>263.39999389648</ele>
        <time>2012-08-08T07:57:29.000Z</time>
      </trkpt>
      <trkpt lat="47.67423" lon="6.07366">
        <ele>263</ele>
        <time>2012-08-08T07:57:30.000Z</time>
      </trkpt>
      <trkpt lat="47.6742" lon="6.07373">
        <ele>262.60000610352</ele>
        <time>2012-08-08T07:57:31.000Z</time>
      </trkpt>
      <trkpt lat="47.67418" lon="6.0738">
        <ele>262.20001220703</ele>
        <time>2012-08-08T07:57:32.000Z</time>
      </trkpt>
      <trkpt lat="47.67399" lon="6.07422">
        <ele>261.79998779297</ele>
        <time>2012-08-08T07:57:38.000Z</time>
      </trkpt>
      <trkpt lat="47.67395" lon="6.0743">
        <ele>261.39999389648</ele>
        <time>2012-08-08T07:57:39.000Z</time>
      </trkpt>
      <trkpt lat="47.67392" lon="6.07437">
        <ele>261</ele>
        <time>2012-08-08T07:57:40.000Z</time>
      </trkpt>
      <trkpt lat="47.67389" lon="6.07443">
        <ele>260.60000610352</ele>
        <time>2012-08-08T07:57:41.000Z</time>
      </trkpt>
      <trkpt lat="47.67386" lon="6.07449">
        <ele>260.20001220703</ele>
        <time>2012-08-08T07:57:42.000Z</time>
      </trkpt>
      <trkpt lat="47.67374" lon="6.07476">
        <ele>260.20001220703</ele>
        <time>2012-08-08T07:57:46.000Z</time>
      </trkpt>
      <trkpt lat="47.67357" lon="6.07511">
        <ele>259.79998779297</ele>
        <time>2012-08-08T07:57:51.000Z</time>
      </trkpt>
      <trkpt lat="47.67353" lon="6.07518">
        <ele>259.20001220703</ele>
        <time>2012-08-08T07:57:52.000Z</time>
      </trkpt>
      <trkpt lat="47.6735" lon="6.07526">
        <ele>258.79998779297</ele>
        <time>2012-08-08T07:57:53.000Z</time>
      </trkpt>
      <trkpt lat="47.67346" lon="6.07534">
        <ele>258.39999389648</ele>
        <time>2012-08-08T07:57:54.000Z</time>
      </trkpt>
      <trkpt lat="47.67341" lon="6.07542">
        <ele>258</ele>
        <time>2012-08-08T07:57:55.000Z</time>
      </trkpt>
      <trkpt lat="47.67337" lon="6.0755">
        <ele>258</ele>
        <time>2012-08-08T07:57:56.000Z</time>
      </trkpt>
      <trkpt lat="47.67328" lon="6.07566">
        <ele>258</ele>
        <time>2012-08-08T07:57:58.000Z</time>
      </trkpt>
      <trkpt lat="47.6732" lon="6.07583">
        <ele>257.39999389648</ele>
        <time>2012-08-08T07:58:00.000Z</time>
      </trkpt>
      <trkpt lat="47.67316" lon="6.07591">
        <ele>257</ele>
        <time>2012-08-08T07:58:01.000Z</time>
      </trkpt>
      <trkpt lat="47.67311" lon="6.076">
        <ele>256.60000610352</ele>
        <time>2012-08-08T07:58:02.000Z</time>
      </trkpt>
      <trkpt lat="47.67307" lon="6.07608">
        <ele>256.20001220703</ele>
        <time>2012-08-08T07:58:03.000Z</time>
      </trkpt>
      <trkpt lat="47.67302" lon="6.07616">
        <ele>255.80000305176</ele>
        <time>2012-08-08T07:58:04.000Z</time>
      </trkpt>
      <trkpt lat="47.67298" lon="6.07624">
        <ele>255.80000305176</ele>
        <time>2012-08-08T07:58:05.000Z</time>
      </trkpt>
      <trkpt lat="47.67269" lon="6.07676">
        <ele>255.80000305176</ele>
        <time>2012-08-08T07:58:12.000Z</time>
      </trkpt>
      <trkpt lat="47.67265" lon="6.07684">
        <ele>255</ele>
        <time>2012-08-08T07:58:13.000Z</time>
      </trkpt>
      <trkpt lat="47.6726" lon="6.07691">
        <ele>254.60000610352</ele>
        <time>2012-08-08T07:58:14.000Z</time>
      </trkpt>
      <trkpt lat="47.67257" lon="6.07699">
        <ele>254</ele>
        <time>2012-08-08T07:58:15.000Z</time>
      </trkpt>
      <trkpt lat="47.67253" lon="6.07707">
        <ele>253.60000610352</ele>
        <time>2012-08-08T07:58:16.000Z</time>
      </trkpt>
      <trkpt lat="47.67247" lon="6.07722">
        <ele>253.60000610352</ele>
        <time>2012-08-08T07:58:18.000Z</time>
      </trkpt>
      <trkpt lat="47.67231" lon="6.07765">
        <ele>253.60000610352</ele>
        <time>2012-08-08T07:58:24.000Z</time>
      </trkpt>
      <trkpt lat="47.67228" lon="6.07769">
        <ele>253.60000610352</ele>
        <time>2012-08-08T07:58:25.000Z</time>
      </trkpt>
      <trkpt lat="47.67204" lon="6.07788">
        <ele>253.60000610352</ele>
        <time>2012-08-08T07:58:32.000Z</time>
      </trkpt>
      <trkpt lat="47.672" lon="6.0779">
        <ele>253.19999694824</ele>
        <time>2012-08-08T07:58:33.000Z</time>
      </trkpt>
      <trkpt lat="47.67196" lon="6.07793">
        <ele>252.80000305176</ele>
        <time>2012-08-08T07:58:34.000Z</time>
      </trkpt>
      <trkpt lat="47.67192" lon="6.07796">
        <ele>252.39999389648</ele>
        <time>2012-08-08T07:58:35.000Z</time>
      </trkpt>
      <trkpt lat="47.67188" lon="6.07799">
        <ele>252</ele>
        <time>2012-08-08T07:58:36.000Z</time>
      </trkpt>
      <trkpt lat="47.67184" lon="6.07801">
        <ele>251.60000610352</ele>
        <time>2012-08-08T07:58:37.000Z</time>
      </trkpt>
      <trkpt lat="47.67176" lon="6.07806">
        <ele>251.60000610352</ele>
        <time>2012-08-08T07:58:39.000Z</time>
      </trkpt>
      <trkpt lat="47.67145" lon="6.07817">
        <ele>251.19999694824</ele>
        <time>2012-08-08T07:58:45.000Z</time>
      </trkpt>
      <trkpt lat="47.67139" lon="6.07818">
        <ele>250.80000305176</ele>
        <time>2012-08-08T07:58:46.000Z</time>
      </trkpt>
      <trkpt lat="47.67133" lon="6.07819">
        <ele>250.19999694824</ele>
        <time>2012-08-08T07:58:47.000Z</time>
      </trkpt>
      <trkpt lat="47.67127" lon="6.0782">
        <ele>249.80000305176</ele>
        <time>2012-08-08T07:58:48.000Z</time>
      </trkpt>
      <trkpt lat="47.67121" lon="6.07822">
        <ele>249.39999389648</ele>
        <time>2012-08-08T07:58:49.000Z</time>
      </trkpt>
      <trkpt lat="47.6711" lon="6.07827">
        <ele>249.39999389648</ele>
        <time>2012-08-08T07:58:51.000Z</time>
      </trkpt>
      <trkpt lat="47.67096" lon="6.07833">
        <ele>249</ele>
        <time>2012-08-08T07:58:54.000Z</time>
      </trkpt>
      <trkpt lat="47.67091" lon="6.07836">
        <ele>248.60000610352</ele>
        <time>2012-08-08T07:58:55.000Z</time>
      </trkpt>
      <trkpt lat="47.67087" lon="6.07839">
        <ele>248.19999694824</ele>
        <time>2012-08-08T07:58:56.000Z</time>
      </trkpt>
      <trkpt lat="47.67082" lon="6.07842">
        <ele>247.80000305176</ele>
        <time>2012-08-08T07:58:57.000Z</time>
      </trkpt>
      <trkpt lat="47.67078" lon="6.07845">
        <ele>247.39999389648</ele>
        <time>2012-08-08T07:58:58.000Z</time>
      </trkpt>
      <trkpt lat="47.67064" lon="6.07856">
        <ele>246.80000305176</ele>
        <time>2012-08-08T07:59:01.000Z</time>
      </trkpt>
      <trkpt lat="47.67059" lon="6.07862">
        <ele>246.39999389648</ele>
        <time>2012-08-08T07:59:02.000Z</time>
      </trkpt>
      <trkpt lat="47.67055" lon="6.07869">
        <ele>245.60000610352</ele>
        <time>2012-08-08T07:59:03.000Z</time>
      </trkpt>
      <trkpt lat="47.67051" lon="6.07875">
        <ele>245</ele>
        <time>2012-08-08T07:59:04.000Z</time>
      </trkpt>
      <trkpt lat="47.67048" lon="6.07881">
        <ele>244.60000610352</ele>
        <time>2012-08-08T07:59:05.000Z</time>
      </trkpt>
      <trkpt lat="47.67045" lon="6.07888">
        <ele>244</ele>
        <time>2012-08-08T07:59:06.000Z</time>
      </trkpt>
      <trkpt lat="47.67042" lon="6.07894">
        <ele>243.60000610352</ele>
        <time>2012-08-08T07:59:07.000Z</time>
      </trkpt>
      <trkpt lat="47.67039" lon="6.079">
        <ele>243</ele>
        <time>2012-08-08T07:59:08.000Z</time>
      </trkpt>
      <trkpt lat="47.67036" lon="6.07905">
        <ele>242.60000610352</ele>
        <time>2012-08-08T07:59:09.000Z</time>
      </trkpt>
      <trkpt lat="47.67031" lon="6.0791">
        <ele>242.19999694824</ele>
        <time>2012-08-08T07:59:10.000Z</time>
      </trkpt>
      <trkpt lat="47.67027" lon="6.07913">
        <ele>241.80000305176</ele>
        <time>2012-08-08T07:59:11.000Z</time>
      </trkpt>
      <trkpt lat="47.67021" lon="6.07916">
        <ele>241.39999389648</ele>
        <time>2012-08-08T07:59:12.000Z</time>
      </trkpt>
      <trkpt lat="47.67016" lon="6.07917">
        <ele>241</ele>
        <time>2012-08-08T07:59:13.000Z</time>
      </trkpt>
      <trkpt lat="47.67011" lon="6.07916">
        <ele>240.39999389648</ele>
        <time>2012-08-08T07:59:14.000Z</time>
      </trkpt>
      <trkpt lat="47.67006" lon="6.07914">
        <ele>240</ele>
        <time>2012-08-08T07:59:15.000Z</time>
      </trkpt>
      <trkpt lat="47.67001" lon="6.07911">
        <ele>239.60000610352</ele>
        <time>2012-08-08T07:59:16.000Z</time>
      </trkpt>
      <trkpt lat="47.66995" lon="6.07908">
        <ele>239</ele>
        <time>2012-08-08T07:59:17.000Z</time>
      </trkpt>
      <trkpt lat="47.66989" lon="6.07906">
        <ele>239</ele>
        <time>2012-08-08T07:59:18.000Z</time>
      </trkpt>
      <trkpt lat="47.66984" lon="6.07906">
        <ele>239</ele>
        <time>2012-08-08T07:59:19.000Z</time>
      </trkpt>
      <trkpt lat="47.66979" lon="6.07908">
        <ele>239</ele>
        <time>2012-08-08T07:59:20.000Z</time>
      </trkpt>
      <trkpt lat="47.6697" lon="6.07917">
        <ele>238.60000610352</ele>
        <time>2012-08-08T07:59:22.000Z</time>
      </trkpt>
      <trkpt lat="47.66966" lon="6.07926">
        <ele>238.19999694824</ele>
        <time>2012-08-08T07:59:23.000Z</time>
      </trkpt>
      <trkpt lat="47.66963" lon="6.07934">
        <ele>237.80000305176</ele>
        <time>2012-08-08T07:59:24.000Z</time>
      </trkpt>
      <trkpt lat="47.6696" lon="6.07941">
        <ele>237.39999389648</ele>
        <time>2012-08-08T07:59:25.000Z</time>
      </trkpt>
      <trkpt lat="47.66956" lon="6.07949">
        <ele>237</ele>
        <time>2012-08-08T07:59:26.000Z</time>
      </trkpt>
      <trkpt lat="47.66945" lon="6.07967">
        <ele>237</ele>
        <time>2012-08-08T07:59:29.000Z</time>
      </trkpt>
      <trkpt lat="47.66928" lon="6.07991">
        <ele>237</ele>
        <time>2012-08-08T07:59:35.000Z</time>
      </trkpt>
      <trkpt lat="47.66915" lon="6.08006">
        <ele>237</ele>
        <time>2012-08-08T07:59:41.000Z</time>
      </trkpt>
      <trkpt lat="47.66911" lon="6.08005">
        <ele>237</ele>
        <time>2012-08-08T07:59:42.000Z</time>
      </trkpt>
      <trkpt lat="47.66906" lon="6.07997">
        <ele>237</ele>
        <time>2012-08-08T07:59:44.000Z</time>
      </trkpt>
      <trkpt lat="47.66889" lon="6.07973">
        <ele>237</ele>
        <time>2012-08-08T07:59:50.000Z</time>
      </trkpt>
      <trkpt lat="47.66874" lon="6.07955">
        <ele>236.60000610352</ele>
        <time>2012-08-08T07:59:55.000Z</time>
      </trkpt>
      <trkpt lat="47.66871" lon="6.07952">
        <ele>236.19999694824</ele>
        <time>2012-08-08T07:59:56.000Z</time>
      </trkpt>
      <trkpt lat="47.66867" lon="6.07949">
        <ele>235.80000305176</ele>
        <time>2012-08-08T07:59:57.000Z</time>
      </trkpt>
      <trkpt lat="47.66864" lon="6.07949">
        <ele>235.19999694824</ele>
        <time>2012-08-08T07:59:58.000Z</time>
      </trkpt>
      <trkpt lat="47.6686" lon="6.07949">
        <ele>234.80000305176</ele>
        <time>2012-08-08T07:59:59.000Z</time>
      </trkpt>
      <trkpt lat="47.66847" lon="6.07958">
        <ele>234.80000305176</ele>
        <time>2012-08-08T08:00:03.000Z</time>
      </trkpt>
      <trkpt lat="47.66834" lon="6.07968">
        <ele>234.80000305176</ele>
        <time>2012-08-08T08:00:08.000Z</time>
      </trkpt>
      <trkpt lat="47.66832" lon="6.07967">
        <ele>234.80000305176</ele>
        <time>2012-08-08T08:00:09.000Z</time>
      </trkpt>
      <trkpt lat="47.66822" lon="6.07955">
        <ele>234.80000305176</ele>
        <time>2012-08-08T08:00:14.000Z</time>
      </trkpt>
      <trkpt lat="47.6682" lon="6.07951">
        <ele>234.80000305176</ele>
        <time>2012-08-08T08:00:15.000Z</time>
      </trkpt>
      <trkpt lat="47.66807" lon="6.07922">
        <ele>234.80000305176</ele>
        <time>2012-08-08T08:00:22.000Z</time>
      </trkpt>
      <trkpt lat="47.66791" lon="6.07891">
        <ele>234.80000305176</ele>
        <time>2012-08-08T08:00:28.000Z</time>
      </trkpt>
      <trkpt lat="47.66763" lon="6.07851">
        <ele>234.80000305176</ele>
        <time>2012-08-08T08:00:37.000Z</time>
      </trkpt>
      <trkpt lat="47.66744" lon="6.07821">
        <ele>234.80000305176</ele>
        <time>2012-08-08T08:00:44.000Z</time>
      </trkpt>
      <trkpt lat="47.66723" lon="6.0779">
        <ele>234.80000305176</ele>
        <time>2012-08-08T08:00:51.000Z</time>
      </trkpt>
      <trkpt lat="47.66703" lon="6.07759">
        <ele>234.80000305176</ele>
        <time>2012-08-08T08:00:58.000Z</time>
      </trkpt>
      <trkpt lat="47.66693" lon="6.07747">
        <ele>234.80000305176</ele>
        <time>2012-08-08T08:01:01.000Z</time>
      </trkpt>
      <trkpt lat="47.66686" lon="6.07741">
        <ele>234.80000305176</ele>
        <time>2012-08-08T08:01:03.000Z</time>
      </trkpt>
      <trkpt lat="47.6666" lon="6.07718">
        <ele>234.80000305176</ele>
        <time>2012-08-08T08:01:10.000Z</time>
      </trkpt>
      <trkpt lat="47.66635" lon="6.07697">
        <ele>234.80000305176</ele>
        <time>2012-08-08T08:01:17.000Z</time>
      </trkpt>
      <trkpt lat="47.66611" lon="6.07668">
        <ele>234.80000305176</ele>
        <time>2012-08-08T08:01:25.000Z</time>
      </trkpt>
      <trkpt lat="47.66592" lon="6.07643">
        <ele>235.19999694824</ele>
        <time>2012-08-08T08:01:32.000Z</time>
      </trkpt>
      <trkpt lat="47.6659" lon="6.0764">
        <ele>235.80000305176</ele>
        <time>2012-08-08T08:01:33.000Z</time>
      </trkpt>
      <trkpt lat="47.66588" lon="6.07636">
        <ele>236.19999694824</ele>
        <time>2012-08-08T08:01:34.000Z</time>
      </trkpt>
      <trkpt lat="47.66585" lon="6.07632">
        <ele>236.60000610352</ele>
        <time>2012-08-08T08:01:35.000Z</time>
      </trkpt>
      <trkpt lat="47.66583" lon="6.07629">
        <ele>237</ele>
        <time>2012-08-08T08:01:36.000Z</time>
      </trkpt>
      <trkpt lat="47.66571" lon="6.07613">
        <ele>237</ele>
        <time>2012-08-08T08:01:41.000Z</time>
      </trkpt>
      <trkpt lat="47.66566" lon="6.07607">
        <ele>237</ele>
        <time>2012-08-08T08:01:43.000Z</time>
      </trkpt>
      <trkpt lat="47.6655" lon="6.07583">
        <ele>237</ele>
        <time>2012-08-08T08:01:50.000Z</time>
      </trkpt>
      <trkpt lat="47.66536" lon="6.07566">
        <ele>237.39999389648</ele>
        <time>2012-08-08T08:01:57.000Z</time>
      </trkpt>
      <trkpt lat="47.66535" lon="6.07564">
        <ele>237.80000305176</ele>
        <time>2012-08-08T08:01:58.000Z</time>
      </trkpt>
      <trkpt lat="47.66533" lon="6.07561">
        <ele>238.19999694824</ele>
        <time>2012-08-08T08:01:59.000Z</time>
      </trkpt>
      <trkpt lat="47.66531" lon="6.07559">
        <ele>238.60000610352</ele>
        <time>2012-08-08T08:02:00.000Z</time>
      </trkpt>
      <trkpt lat="47.66529" lon="6.07556">
        <ele>239</ele>
        <time>2012-08-08T08:02:01.000Z</time>
      </trkpt>
      <trkpt lat="47.66519" lon="6.07545">
        <ele>239</ele>
        <time>2012-08-08T08:02:07.000Z</time>
      </trkpt>
      <trkpt lat="47.66501" lon="6.0753">
        <ele>239</ele>
        <time>2012-08-08T08:02:16.000Z</time>
      </trkpt>
      <trkpt lat="47.66493" lon="6.07526">
        <ele>239.39999389648</ele>
        <time>2012-08-08T08:02:20.000Z</time>
      </trkpt>
      <trkpt lat="47.66491" lon="6.07524">
        <ele>240.19999694824</ele>
        <time>2012-08-08T08:02:21.000Z</time>
      </trkpt>
      <trkpt lat="47.66489" lon="6.07523">
        <ele>240.60000610352</ele>
        <time>2012-08-08T08:02:22.000Z</time>
      </trkpt>
      <trkpt lat="47.66487" lon="6.07521">
        <ele>241</ele>
        <time>2012-08-08T08:02:23.000Z</time>
      </trkpt>
      <trkpt lat="47.66486" lon="6.0752">
        <ele>241</ele>
        <time>2012-08-08T08:02:24.000Z</time>
      </trkpt>
      <trkpt lat="47.66477" lon="6.07509">
        <ele>241</ele>
        <time>2012-08-08T08:02:30.000Z</time>
      </trkpt>
      <trkpt lat="47.6647" lon="6.07501">
        <ele>241.39999389648</ele>
        <time>2012-08-08T08:02:35.000Z</time>
      </trkpt>
      <trkpt lat="47.66469" lon="6.07499">
        <ele>241.80000305176</ele>
        <time>2012-08-08T08:02:36.000Z</time>
      </trkpt>
      <trkpt lat="47.66468" lon="6.07498">
        <ele>242.19999694824</ele>
        <time>2012-08-08T08:02:37.000Z</time>
      </trkpt>
      <trkpt lat="47.66466" lon="6.07496">
        <ele>242.60000610352</ele>
        <time>2012-08-08T08:02:38.000Z</time>
      </trkpt>
      <trkpt lat="47.66465" lon="6.07495">
        <ele>243</ele>
        <time>2012-08-08T08:02:39.000Z</time>
      </trkpt>
      <trkpt lat="47.66461" lon="6.07484">
        <ele>243</ele>
        <time>2012-08-08T08:02:45.000Z</time>
      </trkpt>
      <trkpt lat="47.66459" lon="6.07479">
        <ele>243.60000610352</ele>
        <time>2012-08-08T08:02:48.000Z</time>
      </trkpt>
      <trkpt lat="47.66458" lon="6.07478">
        <ele>244</ele>
        <time>2012-08-08T08:02:49.000Z</time>
      </trkpt>
      <trkpt lat="47.66457" lon="6.07477">
        <ele>244.39999389648</ele>
        <time>2012-08-08T08:02:50.000Z</time>
      </trkpt>
      <trkpt lat="47.66456" lon="6.07476">
        <ele>244.80000305176</ele>
        <time>2012-08-08T08:02:51.000Z</time>
      </trkpt>
      <trkpt lat="47.66456" lon="6.07475">
        <ele>245.19999694824</ele>
        <time>2012-08-08T08:02:52.000Z</time>
      </trkpt>
      <trkpt lat="47.66452" lon="6.07466">
        <ele>245.19999694824</ele>
        <time>2012-08-08T08:02:59.000Z</time>
      </trkpt>
      <trkpt lat="47.66451" lon="6.07465">
        <ele>245.60000610352</ele>
        <time>2012-08-08T08:03:00.000Z</time>
      </trkpt>
      <trkpt lat="47.66451" lon="6.07463">
        <ele>246</ele>
        <time>2012-08-08T08:03:01.000Z</time>
      </trkpt>
      <trkpt lat="47.6645" lon="6.07461">
        <ele>246.39999389648</ele>
        <time>2012-08-08T08:03:02.000Z</time>
      </trkpt>
      <trkpt lat="47.66449" lon="6.0746">
        <ele>246.80000305176</ele>
        <time>2012-08-08T08:03:03.000Z</time>
      </trkpt>
      <trkpt lat="47.66448" lon="6.07459">
        <ele>247.19999694824</ele>
        <time>2012-08-08T08:03:04.000Z</time>
      </trkpt>
      <trkpt lat="47.66445" lon="6.07454">
        <ele>247.19999694824</ele>
        <time>2012-08-08T08:03:07.000Z</time>
      </trkpt>
      <trkpt lat="47.66442" lon="6.0745">
        <ele>247.60000610352</ele>
        <time>2012-08-08T08:03:10.000Z</time>
      </trkpt>
      <trkpt lat="47.66441" lon="6.07448">
        <ele>248</ele>
        <time>2012-08-08T08:03:11.000Z</time>
      </trkpt>
      <trkpt lat="47.6644" lon="6.07447">
        <ele>248.39999389648</ele>
        <time>2012-08-08T08:03:12.000Z</time>
      </trkpt>
      <trkpt lat="47.66439" lon="6.07446">
        <ele>248.80000305176</ele>
        <time>2012-08-08T08:03:13.000Z</time>
      </trkpt>
      <trkpt lat="47.66438" lon="6.07445">
        <ele>249.19999694824</ele>
        <time>2012-08-08T08:03:14.000Z</time>
      </trkpt>
      <trkpt lat="47.66437" lon="6.07444">
        <ele>249.19999694824</ele>
        <time>2012-08-08T08:03:15.000Z</time>
      </trkpt>
      <trkpt lat="47.6643" lon="6.07437">
        <ele>249.19999694824</ele>
        <time>2012-08-08T08:03:21.000Z</time>
      </trkpt>
      <trkpt lat="47.66427" lon="6.07436">
        <ele>249.19999694824</ele>
        <time>2012-08-08T08:03:23.000Z</time>
      </trkpt>
      <trkpt lat="47.66426" lon="6.07436">
        <ele>249.60000610352</ele>
        <time>2012-08-08T08:03:24.000Z</time>
      </trkpt>
      <trkpt lat="47.66425" lon="6.07437">
        <ele>250.19999694824</ele>
        <time>2012-08-08T08:03:25.000Z</time>
      </trkpt>
      <trkpt lat="47.66424" lon="6.07437">
        <ele>250.60000610352</ele>
        <time>2012-08-08T08:03:26.000Z</time>
      </trkpt>
      <trkpt lat="47.66422" lon="6.07437">
        <ele>251</ele>
        <time>2012-08-08T08:03:27.000Z</time>
      </trkpt>
      <trkpt lat="47.66421" lon="6.07437">
        <ele>251.39999389648</ele>
        <time>2012-08-08T08:03:28.000Z</time>
      </trkpt>
      <trkpt lat="47.66418" lon="6.07437">
        <ele>251.39999389648</ele>
        <time>2012-08-08T08:03:31.000Z</time>
      </trkpt>
      <trkpt lat="47.66414" lon="6.07438">
        <ele>251.80000305176</ele>
        <time>2012-08-08T08:03:35.000Z</time>
      </trkpt>
      <trkpt lat="47.66413" lon="6.07438">
        <ele>252.19999694824</ele>
        <time>2012-08-08T08:03:36.000Z</time>
      </trkpt>
      <trkpt lat="47.66411" lon="6.07439">
        <ele>252.60000610352</ele>
        <time>2012-08-08T08:03:37.000Z</time>
      </trkpt>
      <trkpt lat="47.6641" lon="6.0744">
        <ele>253</ele>
        <time>2012-08-08T08:03:38.000Z</time>
      </trkpt>
      <trkpt lat="47.66409" lon="6.0744">
        <ele>253.39999389648</ele>
        <time>2012-08-08T08:03:39.000Z</time>
      </trkpt>
      <trkpt lat="47.66402" lon="6.0744">
        <ele>253.39999389648</ele>
        <time>2012-08-08T08:03:44.000Z</time>
      </trkpt>
      <trkpt lat="47.66397" lon="6.07443">
        <ele>253.80000305176</ele>
        <time>2012-08-08T08:03:48.000Z</time>
      </trkpt>
      <trkpt lat="47.66396" lon="6.07442">
        <ele>254.19999694824</ele>
        <time>2012-08-08T08:03:49.000Z</time>
      </trkpt>
      <trkpt lat="47.66395" lon="6.07443">
        <ele>254.60000610352</ele>
        <time>2012-08-08T08:03:50.000Z</time>
      </trkpt>
      <trkpt lat="47.66394" lon="6.07443">
        <ele>255</ele>
        <time>2012-08-08T08:03:51.000Z</time>
      </trkpt>
      <trkpt lat="47.66393" lon="6.07444">
        <ele>255.39999389648</ele>
        <time>2012-08-08T08:03:52.000Z</time>
      </trkpt>
      <trkpt lat="47.66383" lon="6.07445">
        <ele>255.39999389648</ele>
        <time>2012-08-08T08:03:58.000Z</time>
      </trkpt>
      <trkpt lat="47.66376" lon="6.07446">
        <ele>255.80000305176</ele>
        <time>2012-08-08T08:04:03.000Z</time>
      </trkpt>
      <trkpt lat="47.66374" lon="6.07446">
        <ele>256.39999389648</ele>
        <time>2012-08-08T08:04:04.000Z</time>
      </trkpt>
      <trkpt lat="47.66372" lon="6.07446">
        <ele>256.79998779297</ele>
        <time>2012-08-08T08:04:05.000Z</time>
      </trkpt>
      <trkpt lat="47.6637" lon="6.07447">
        <ele>257.20001220703</ele>
        <time>2012-08-08T08:04:06.000Z</time>
      </trkpt>
      <trkpt lat="47.66368" lon="6.07447">
        <ele>257.60000610352</ele>
        <time>2012-08-08T08:04:07.000Z</time>
      </trkpt>
      <trkpt lat="47.66366" lon="6.07448">
        <ele>257.60000610352</ele>
        <time>2012-08-08T08:04:09.000Z</time>
      </trkpt>
      <trkpt lat="47.66363" lon="6.07448">
        <ele>257.60000610352</ele>
        <time>2012-08-08T08:04:11.000Z</time>
      </trkpt>
      <trkpt lat="47.66349" lon="6.07451">
        <ele>257.60000610352</ele>
        <time>2012-08-08T08:04:20.000Z</time>
      </trkpt>
      <trkpt lat="47.66342" lon="6.07455">
        <ele>258</ele>
        <time>2012-08-08T08:04:25.000Z</time>
      </trkpt>
      <trkpt lat="47.6634" lon="6.07455">
        <ele>258.39999389648</ele>
        <time>2012-08-08T08:04:26.000Z</time>
      </trkpt>
      <trkpt lat="47.66339" lon="6.07456">
        <ele>258.79998779297</ele>
        <time>2012-08-08T08:04:27.000Z</time>
      </trkpt>
      <trkpt lat="47.66337" lon="6.07455">
        <ele>259.20001220703</ele>
        <time>2012-08-08T08:04:28.000Z</time>
      </trkpt>
      <trkpt lat="47.66336" lon="6.07456">
        <ele>259.60000610352</ele>
        <time>2012-08-08T08:04:29.000Z</time>
      </trkpt>
      <trkpt lat="47.66328" lon="6.07457">
        <ele>259.60000610352</ele>
        <time>2012-08-08T08:04:34.000Z</time>
      </trkpt>
      <trkpt lat="47.66316" lon="6.07459">
        <ele>259.60000610352</ele>
        <time>2012-08-08T08:04:41.000Z</time>
      </trkpt>
      <trkpt lat="47.66312" lon="6.0746">
        <ele>260</ele>
        <time>2012-08-08T08:04:43.000Z</time>
      </trkpt>
      <trkpt lat="47.6631" lon="6.0746">
        <ele>260.39999389648</ele>
        <time>2012-08-08T08:04:44.000Z</time>
      </trkpt>
      <trkpt lat="47.66308" lon="6.0746">
        <ele>260.79998779297</ele>
        <time>2012-08-08T08:04:45.000Z</time>
      </trkpt>
      <trkpt lat="47.66306" lon="6.0746">
        <ele>261.20001220703</ele>
        <time>2012-08-08T08:04:46.000Z</time>
      </trkpt>
      <trkpt lat="47.66304" lon="6.07459">
        <ele>261.60000610352</ele>
        <time>2012-08-08T08:04:47.000Z</time>
      </trkpt>
      <trkpt lat="47.66302" lon="6.07459">
        <ele>261.60000610352</ele>
        <time>2012-08-08T08:04:48.000Z</time>
      </trkpt>
      <trkpt lat="47.66287" lon="6.07459">
        <ele>261.60000610352</ele>
        <time>2012-08-08T08:04:55.000Z</time>
      </trkpt>
      <trkpt lat="47.66267" lon="6.07458">
        <ele>261.60000610352</ele>
        <time>2012-08-08T08:05:02.000Z</time>
      </trkpt>
      <trkpt lat="47.66244" lon="6.07452">
        <ele>261.60000610352</ele>
        <time>2012-08-08T08:05:08.000Z</time>
      </trkpt>
      <trkpt lat="47.66217" lon="6.07443">
        <ele>261.60000610352</ele>
        <time>2012-08-08T08:05:14.000Z</time>
      </trkpt>
      <trkpt lat="47.66188" lon="6.07431">
        <ele>261.60000610352</ele>
        <time>2012-08-08T08:05:21.000Z</time>
      </trkpt>
      <trkpt lat="47.66165" lon="6.07422">
        <ele>261.60000610352</ele>
        <time>2012-08-08T08:05:27.000Z</time>
      </trkpt>
      <trkpt lat="47.66154" lon="6.0742">
        <ele>261.60000610352</ele>
        <time>2012-08-08T08:05:33.000Z</time>
      </trkpt>
      <trkpt lat="47.66154" lon="6.0742">
        <ele>261.60000610352</ele>
        <time>2012-08-08T08:05:34.000Z</time>
      </trkpt>
      <trkpt lat="47.66152" lon="6.0742">
        <ele>261.60000610352</ele>
        <time>2012-08-08T08:06:06.000Z</time>
      </trkpt>
      <trkpt lat="47.66148" lon="6.0742">
        <ele>261.60000610352</ele>
        <time>2012-08-08T08:06:08.000Z</time>
      </trkpt>
      <trkpt lat="47.66136" lon="6.0742">
        <ele>261.60000610352</ele>
        <time>2012-08-08T08:06:13.000Z</time>
      </trkpt>
      <trkpt lat="47.66114" lon="6.0742">
        <ele>261.60000610352</ele>
        <time>2012-08-08T08:06:22.000Z</time>
      </trkpt>
      <trkpt lat="47.66096" lon="6.07421">
        <ele>262</ele>
        <time>2012-08-08T08:06:29.000Z</time>
      </trkpt>
      <trkpt lat="47.66093" lon="6.07421">
        <ele>262.39999389648</ele>
        <time>2012-08-08T08:06:30.000Z</time>
      </trkpt>
      <trkpt lat="47.6609" lon="6.07421">
        <ele>262.79998779297</ele>
        <time>2012-08-08T08:06:31.000Z</time>
      </trkpt>
      <trkpt lat="47.66087" lon="6.07421">
        <ele>263.20001220703</ele>
        <time>2012-08-08T08:06:32.000Z</time>
      </trkpt>
      <trkpt lat="47.66084" lon="6.07421">
        <ele>263.60000610352</ele>
        <time>2012-08-08T08:06:33.000Z</time>
      </trkpt>
      <trkpt lat="47.66076" lon="6.07421">
        <ele>263.60000610352</ele>
        <time>2012-08-08T08:06:36.000Z</time>
      </trkpt>
      <trkpt lat="47.6606" lon="6.0742">
        <ele>263.60000610352</ele>
        <time>2012-08-08T08:06:42.000Z</time>
      </trkpt>
      <trkpt lat="47.66037" lon="6.07415">
        <ele>263.60000610352</ele>
        <time>2012-08-08T08:06:51.000Z</time>
      </trkpt>
      <trkpt lat="47.6602" lon="6.0741">
        <ele>263.60000610352</ele>
        <time>2012-08-08T08:06:58.000Z</time>
      </trkpt>
      <trkpt lat="47.66009" lon="6.07407">
        <ele>264</ele>
        <time>2012-08-08T08:07:03.000Z</time>
      </trkpt>
      <trkpt lat="47.66006" lon="6.07407">
        <ele>264.39999389648</ele>
        <time>2012-08-08T08:07:04.000Z</time>
      </trkpt>
      <trkpt lat="47.66004" lon="6.07407">
        <ele>264.79998779297</ele>
        <time>2012-08-08T08:07:05.000Z</time>
      </trkpt>
      <trkpt lat="47.66002" lon="6.07408">
        <ele>265.20001220703</ele>
        <time>2012-08-08T08:07:06.000Z</time>
      </trkpt>
      <trkpt lat="47.66" lon="6.07408">
        <ele>265.60000610352</ele>
        <time>2012-08-08T08:07:07.000Z</time>
      </trkpt>
      <trkpt lat="47.65988" lon="6.0741">
        <ele>265.60000610352</ele>
        <time>2012-08-08T08:07:13.000Z</time>
      </trkpt>
      <trkpt lat="47.65966" lon="6.07415">
        <ele>265.60000610352</ele>
        <time>2012-08-08T08:07:23.000Z</time>
      </trkpt>
      <trkpt lat="47.65964" lon="6.07415">
        <ele>266</ele>
        <time>2012-08-08T08:07:24.000Z</time>
      </trkpt>
      <trkpt lat="47.65962" lon="6.07415">
        <ele>266.39999389648</ele>
        <time>2012-08-08T08:07:25.000Z</time>
      </trkpt>
      <trkpt lat="47.65959" lon="6.07416">
        <ele>266.79998779297</ele>
        <time>2012-08-08T08:07:26.000Z</time>
      </trkpt>
      <trkpt lat="47.65957" lon="6.07416">
        <ele>267.20001220703</ele>
        <time>2012-08-08T08:07:27.000Z</time>
      </trkpt>
      <trkpt lat="47.65955" lon="6.07416">
        <ele>267.79998779297</ele>
        <time>2012-08-08T08:07:28.000Z</time>
      </trkpt>
      <trkpt lat="47.65944" lon="6.07417">
        <ele>267.79998779297</ele>
        <time>2012-08-08T08:07:32.000Z</time>
      </trkpt>
      <trkpt lat="47.65924" lon="6.07418">
        <ele>267.79998779297</ele>
        <time>2012-08-08T08:07:40.000Z</time>
      </trkpt>
      <trkpt lat="47.65903" lon="6.07417">
        <ele>267.79998779297</ele>
        <time>2012-08-08T08:07:48.000Z</time>
      </trkpt>
      <trkpt lat="47.65882" lon="6.07413">
        <ele>267.79998779297</ele>
        <time>2012-08-08T08:07:55.000Z</time>
      </trkpt>
      <trkpt lat="47.65863" lon="6.07406">
        <ele>267.79998779297</ele>
        <time>2012-08-08T08:08:00.000Z</time>
      </trkpt>
      <trkpt lat="47.65859" lon="6.07406">
        <ele>267.79998779297</ele>
        <time>2012-08-08T08:08:01.000Z</time>
      </trkpt>
      <trkpt lat="47.65837" lon="6.07404">
        <ele>267.79998779297</ele>
        <time>2012-08-08T08:08:06.000Z</time>
      </trkpt>
      <trkpt lat="47.65793" lon="6.07402">
        <ele>267.79998779297</ele>
        <time>2012-08-08T08:08:16.000Z</time>
      </trkpt>
      <trkpt lat="47.65788" lon="6.07402">
        <ele>267.20001220703</ele>
        <time>2012-08-08T08:08:17.000Z</time>
      </trkpt>
      <trkpt lat="47.65783" lon="6.07403">
        <ele>266.79998779297</ele>
        <time>2012-08-08T08:08:18.000Z</time>
      </trkpt>
      <trkpt lat="47.65779" lon="6.07402">
        <ele>266.39999389648</ele>
        <time>2012-08-08T08:08:19.000Z</time>
      </trkpt>
      <trkpt lat="47.65774" lon="6.07402">
        <ele>266</ele>
        <time>2012-08-08T08:08:20.000Z</time>
      </trkpt>
      <trkpt lat="47.65769" lon="6.07402">
        <ele>265.60000610352</ele>
        <time>2012-08-08T08:08:21.000Z</time>
      </trkpt>
      <trkpt lat="47.6576" lon="6.07402">
        <ele>265.60000610352</ele>
        <time>2012-08-08T08:08:23.000Z</time>
      </trkpt>
      <trkpt lat="47.65723" lon="6.07402">
        <ele>265.60000610352</ele>
        <time>2012-08-08T08:08:31.000Z</time>
      </trkpt>
      <trkpt lat="47.6571" lon="6.07402">
        <ele>265.60000610352</ele>
        <time>2012-08-08T08:08:34.000Z</time>
      </trkpt>
      <trkpt lat="47.65702" lon="6.07402">
        <ele>265.20001220703</ele>
        <time>2012-08-08T08:08:36.000Z</time>
      </trkpt>
      <trkpt lat="47.65698" lon="6.07402">
        <ele>264.79998779297</ele>
        <time>2012-08-08T08:08:37.000Z</time>
      </trkpt>
      <trkpt lat="47.65695" lon="6.07402">
        <ele>264.39999389648</ele>
        <time>2012-08-08T08:08:38.000Z</time>
      </trkpt>
      <trkpt lat="47.65691" lon="6.07402">
        <ele>264</ele>
        <time>2012-08-08T08:08:39.000Z</time>
      </trkpt>
      <trkpt lat="47.65687" lon="6.07402">
        <ele>263.60000610352</ele>
        <time>2012-08-08T08:08:40.000Z</time>
      </trkpt>
      <trkpt lat="47.6566" lon="6.074">
        <ele>263.60000610352</ele>
        <time>2012-08-08T08:08:47.000Z</time>
      </trkpt>
      <trkpt lat="47.65636" lon="6.07398">
        <ele>263.60000610352</ele>
        <time>2012-08-08T08:08:54.000Z</time>
      </trkpt>
      <trkpt lat="47.65611" lon="6.07398">
        <ele>263.60000610352</ele>
        <time>2012-08-08T08:09:02.000Z</time>
      </trkpt>
      <trkpt lat="47.65591" lon="6.07396">
        <ele>263.60000610352</ele>
        <time>2012-08-08T08:09:09.000Z</time>
      </trkpt>
      <trkpt lat="47.65569" lon="6.07392">
        <ele>263.60000610352</ele>
        <time>2012-08-08T08:09:18.000Z</time>
      </trkpt>
      <trkpt lat="47.65551" lon="6.07388">
        <ele>264</ele>
        <time>2012-08-08T08:09:25.000Z</time>
      </trkpt>
      <trkpt lat="47.65549" lon="6.07387">
        <ele>264.39999389648</ele>
        <time>2012-08-08T08:09:26.000Z</time>
      </trkpt>
      <trkpt lat="47.65546" lon="6.07386">
        <ele>264.79998779297</ele>
        <time>2012-08-08T08:09:27.000Z</time>
      </trkpt>
      <trkpt lat="47.65543" lon="6.07386">
        <ele>265.20001220703</ele>
        <time>2012-08-08T08:09:28.000Z</time>
      </trkpt>
      <trkpt lat="47.65541" lon="6.07385">
        <ele>265.60000610352</ele>
        <time>2012-08-08T08:09:29.000Z</time>
      </trkpt>
      <trkpt lat="47.65536" lon="6.07384">
        <ele>265.60000610352</ele>
        <time>2012-08-08T08:09:31.000Z</time>
      </trkpt>
      <trkpt lat="47.65515" lon="6.07378">
        <ele>265.60000610352</ele>
        <time>2012-08-08T08:09:39.000Z</time>
      </trkpt>
      <trkpt lat="47.65497" lon="6.07375">
        <ele>266</ele>
        <time>2012-08-08T08:09:47.000Z</time>
      </trkpt>
      <trkpt lat="47.65494" lon="6.07375">
        <ele>266.39999389648</ele>
        <time>2012-08-08T08:09:48.000Z</time>
      </trkpt>
      <trkpt lat="47.65491" lon="6.07374">
        <ele>266.79998779297</ele>
        <time>2012-08-08T08:09:49.000Z</time>
      </trkpt>
      <trkpt lat="47.65488" lon="6.07374">
        <ele>267.20001220703</ele>
        <time>2012-08-08T08:09:50.000Z</time>
      </trkpt>
      <trkpt lat="47.65485" lon="6.07374">
        <ele>267.60000610352</ele>
        <time>2012-08-08T08:09:51.000Z</time>
      </trkpt>
      <trkpt lat="47.65477" lon="6.07374">
        <ele>267.60000610352</ele>
        <time>2012-08-08T08:09:54.000Z</time>
      </trkpt>
      <trkpt lat="47.65453" lon="6.0737">
        <ele>267.60000610352</ele>
        <time>2012-08-08T08:10:01.000Z</time>
      </trkpt>
      <trkpt lat="47.65438" lon="6.07369">
        <ele>267.20001220703</ele>
        <time>2012-08-08T08:10:04.000Z</time>
      </trkpt>
      <trkpt lat="47.65433" lon="6.07367">
        <ele>266.79998779297</ele>
        <time>2012-08-08T08:10:05.000Z</time>
      </trkpt>
      <trkpt lat="47.65428" lon="6.07365">
        <ele>266.20001220703</ele>
        <time>2012-08-08T08:10:06.000Z</time>
      </trkpt>
      <trkpt lat="47.65423" lon="6.07362">
        <ele>265.79998779297</ele>
        <time>2012-08-08T08:10:07.000Z</time>
      </trkpt>
      <trkpt lat="47.65419" lon="6.07358">
        <ele>265.39999389648</ele>
        <time>2012-08-08T08:10:08.000Z</time>
      </trkpt>
      <trkpt lat="47.65415" lon="6.07352">
        <ele>265</ele>
        <time>2012-08-08T08:10:09.000Z</time>
      </trkpt>
      <trkpt lat="47.65411" lon="6.07346">
        <ele>264.20001220703</ele>
        <time>2012-08-08T08:10:10.000Z</time>
      </trkpt>
      <trkpt lat="47.65409" lon="6.07339">
        <ele>263.79998779297</ele>
        <time>2012-08-08T08:10:11.000Z</time>
      </trkpt>
      <trkpt lat="47.65407" lon="6.07331">
        <ele>263.20001220703</ele>
        <time>2012-08-08T08:10:12.000Z</time>
      </trkpt>
      <trkpt lat="47.65405" lon="6.07323">
        <ele>263.20001220703</ele>
        <time>2012-08-08T08:10:13.000Z</time>
      </trkpt>
      <trkpt lat="47.65402" lon="6.07315">
        <ele>262.79998779297</ele>
        <time>2012-08-08T08:10:14.000Z</time>
      </trkpt>
      <trkpt lat="47.65399" lon="6.07308">
        <ele>262.39999389648</ele>
        <time>2012-08-08T08:10:15.000Z</time>
      </trkpt>
      <trkpt lat="47.65397" lon="6.07299">
        <ele>262</ele>
        <time>2012-08-08T08:10:16.000Z</time>
      </trkpt>
      <trkpt lat="47.65394" lon="6.07291">
        <ele>261.60000610352</ele>
        <time>2012-08-08T08:10:17.000Z</time>
      </trkpt>
      <trkpt lat="47.65392" lon="6.07286">
        <ele>261.20001220703</ele>
        <time>2012-08-08T08:10:18.000Z</time>
      </trkpt>
      <trkpt lat="47.65384" lon="6.07269">
        <ele>261.20001220703</ele>
        <time>2012-08-08T08:10:21.000Z</time>
      </trkpt>
      <trkpt lat="47.65382" lon="6.07263">
        <ele>260.79998779297</ele>
        <time>2012-08-08T08:10:22.000Z</time>
      </trkpt>
      <trkpt lat="47.6538" lon="6.07258">
        <ele>260.39999389648</ele>
        <time>2012-08-08T08:10:23.000Z</time>
      </trkpt>
      <trkpt lat="47.65379" lon="6.07252">
        <ele>260</ele>
        <time>2012-08-08T08:10:24.000Z</time>
      </trkpt>
      <trkpt lat="47.65377" lon="6.07246">
        <ele>259.39999389648</ele>
        <time>2012-08-08T08:10:25.000Z</time>
      </trkpt>
      <trkpt lat="47.65376" lon="6.0724">
        <ele>259</ele>
        <time>2012-08-08T08:10:26.000Z</time>
      </trkpt>
      <trkpt lat="47.65374" lon="6.07234">
        <ele>259</ele>
        <time>2012-08-08T08:10:27.000Z</time>
      </trkpt>
      <trkpt lat="47.65362" lon="6.07212">
        <ele>258.60000610352</ele>
        <time>2012-08-08T08:10:31.000Z</time>
      </trkpt>
      <trkpt lat="47.65357" lon="6.07209">
        <ele>258.20001220703</ele>
        <time>2012-08-08T08:10:32.000Z</time>
      </trkpt>
      <trkpt lat="47.65353" lon="6.07208">
        <ele>257.79998779297</ele>
        <time>2012-08-08T08:10:33.000Z</time>
      </trkpt>
      <trkpt lat="47.65348" lon="6.07209">
        <ele>257</ele>
        <time>2012-08-08T08:10:34.000Z</time>
      </trkpt>
      <trkpt lat="47.65344" lon="6.0721">
        <ele>257</ele>
        <time>2012-08-08T08:10:35.000Z</time>
      </trkpt>
      <trkpt lat="47.65331" lon="6.07217">
        <ele>257</ele>
        <time>2012-08-08T08:10:38.000Z</time>
      </trkpt>
      <trkpt lat="47.65321" lon="6.07222">
        <ele>257</ele>
        <time>2012-08-08T08:10:41.000Z</time>
      </trkpt>
      <trkpt lat="47.65301" lon="6.07227">
        <ele>257</ele>
        <time>2012-08-08T08:10:47.000Z</time>
      </trkpt>
      <trkpt lat="47.6528" lon="6.0723">
        <ele>257</ele>
        <time>2012-08-08T08:10:54.000Z</time>
      </trkpt>
      <trkpt lat="47.65261" lon="6.0723">
        <ele>257</ele>
        <time>2012-08-08T08:11:00.000Z</time>
      </trkpt>
      <trkpt lat="47.6525" lon="6.07236">
        <ele>257</ele>
        <time>2012-08-08T08:11:04.000Z</time>
      </trkpt>
      <trkpt lat="47.65233" lon="6.07237">
        <ele>257</ele>
        <time>2012-08-08T08:11:10.000Z</time>
      </trkpt>
      <trkpt lat="47.65217" lon="6.07237">
        <ele>257</ele>
        <time>2012-08-08T08:11:16.000Z</time>
      </trkpt>
      <trkpt lat="47.652" lon="6.07238">
        <ele>257</ele>
        <time>2012-08-08T08:11:23.000Z</time>
      </trkpt>
      <trkpt lat="47.65181" lon="6.07241">
        <ele>257</ele>
        <time>2012-08-08T08:11:31.000Z</time>
      </trkpt>
      <trkpt lat="47.6516" lon="6.07245">
        <ele>257</ele>
        <time>2012-08-08T08:11:40.000Z</time>
      </trkpt>
      <trkpt lat="47.65141" lon="6.07247">
        <ele>257</ele>
        <time>2012-08-08T08:11:48.000Z</time>
      </trkpt>
      <trkpt lat="47.65122" lon="6.0725">
        <ele>257</ele>
        <time>2012-08-08T08:11:56.000Z</time>
      </trkpt>
      <trkpt lat="47.651" lon="6.07252">
        <ele>257</ele>
        <time>2012-08-08T08:12:05.000Z</time>
      </trkpt>
      <trkpt lat="47.65083" lon="6.07254">
        <ele>257.39999389648</ele>
        <time>2012-08-08T08:12:12.000Z</time>
      </trkpt>
      <trkpt lat="47.65081" lon="6.07254">
        <ele>258.20001220703</ele>
        <time>2012-08-08T08:12:13.000Z</time>
      </trkpt>
      <trkpt lat="47.65078" lon="6.07255">
        <ele>258.60000610352</ele>
        <time>2012-08-08T08:12:14.000Z</time>
      </trkpt>
      <trkpt lat="47.65075" lon="6.07255">
        <ele>259</ele>
        <time>2012-08-08T08:12:15.000Z</time>
      </trkpt>
      <trkpt lat="47.65056" lon="6.07257">
        <ele>259</ele>
        <time>2012-08-08T08:12:22.000Z</time>
      </trkpt>
      <trkpt lat="47.65037" lon="6.07262">
        <ele>259</ele>
        <time>2012-08-08T08:12:29.000Z</time>
      </trkpt>
      <trkpt lat="47.65022" lon="6.07267">
        <ele>259.39999389648</ele>
        <time>2012-08-08T08:12:35.000Z</time>
      </trkpt>
      <trkpt lat="47.6502" lon="6.07268">
        <ele>259.79998779297</ele>
        <time>2012-08-08T08:12:36.000Z</time>
      </trkpt>
      <trkpt lat="47.65018" lon="6.07269">
        <ele>260.39999389648</ele>
        <time>2012-08-08T08:12:37.000Z</time>
      </trkpt>
      <trkpt lat="47.65015" lon="6.07271">
        <ele>261.20001220703</ele>
        <time>2012-08-08T08:12:38.000Z</time>
      </trkpt>
      <trkpt lat="47.65003" lon="6.0728">
        <ele>261.20001220703</ele>
        <time>2012-08-08T08:12:44.000Z</time>
      </trkpt>
      <trkpt lat="47.64986" lon="6.07292">
        <ele>261.20001220703</ele>
        <time>2012-08-08T08:12:51.000Z</time>
      </trkpt>
      <trkpt lat="47.6497" lon="6.073">
        <ele>261.20001220703</ele>
        <time>2012-08-08T08:12:58.000Z</time>
      </trkpt>
      <trkpt lat="47.64967" lon="6.073">
        <ele>261.60000610352</ele>
        <time>2012-08-08T08:12:59.000Z</time>
      </trkpt>
      <trkpt lat="47.64965" lon="6.07301">
        <ele>262</ele>
        <time>2012-08-08T08:13:00.000Z</time>
      </trkpt>
      <trkpt lat="47.64962" lon="6.07301">
        <ele>262.39999389648</ele>
        <time>2012-08-08T08:13:01.000Z</time>
      </trkpt>
      <trkpt lat="47.64959" lon="6.07301">
        <ele>262.79998779297</ele>
        <time>2012-08-08T08:13:02.000Z</time>
      </trkpt>
      <trkpt lat="47.64956" lon="6.073">
        <ele>263.20001220703</ele>
        <time>2012-08-08T08:13:03.000Z</time>
      </trkpt>
      <trkpt lat="47.64936" lon="6.07291">
        <ele>263.20001220703</ele>
        <time>2012-08-08T08:13:10.000Z</time>
      </trkpt>
      <trkpt lat="47.64918" lon="6.07274">
        <ele>263.20001220703</ele>
        <time>2012-08-08T08:13:17.000Z</time>
      </trkpt>
      <trkpt lat="47.64898" lon="6.07258">
        <ele>263.20001220703</ele>
        <time>2012-08-08T08:13:24.000Z</time>
      </trkpt>
      <trkpt lat="47.64868" lon="6.07235">
        <ele>263.20001220703</ele>
        <time>2012-08-08T08:13:34.000Z</time>
      </trkpt>
      <trkpt lat="47.64841" lon="6.07217">
        <ele>263.20001220703</ele>
        <time>2012-08-08T08:13:43.000Z</time>
      </trkpt>
      <trkpt lat="47.64812" lon="6.07197">
        <ele>263.20001220703</ele>
        <time>2012-08-08T08:13:52.000Z</time>
      </trkpt>
      <trkpt lat="47.64789" lon="6.07188">
        <ele>263.20001220703</ele>
        <time>2012-08-08T08:13:59.000Z</time>
      </trkpt>
      <trkpt lat="47.64766" lon="6.07187">
        <ele>263.20001220703</ele>
        <time>2012-08-08T08:14:07.000Z</time>
      </trkpt>
      <trkpt lat="47.64741" lon="6.07194">
        <ele>263.20001220703</ele>
        <time>2012-08-08T08:14:17.000Z</time>
      </trkpt>
      <trkpt lat="47.64723" lon="6.07198">
        <ele>263.60000610352</ele>
        <time>2012-08-08T08:14:24.000Z</time>
      </trkpt>
      <trkpt lat="47.6472" lon="6.07199">
        <ele>264</ele>
        <time>2012-08-08T08:14:25.000Z</time>
      </trkpt>
      <trkpt lat="47.64718" lon="6.07199">
        <ele>264.39999389648</ele>
        <time>2012-08-08T08:14:26.000Z</time>
      </trkpt>
      <trkpt lat="47.64716" lon="6.07199">
        <ele>264.79998779297</ele>
        <time>2012-08-08T08:14:27.000Z</time>
      </trkpt>
      <trkpt lat="47.64714" lon="6.072">
        <ele>265.20001220703</ele>
        <time>2012-08-08T08:14:28.000Z</time>
      </trkpt>
      <trkpt lat="47.64702" lon="6.07202">
        <ele>265.20001220703</ele>
        <time>2012-08-08T08:14:33.000Z</time>
      </trkpt>
      <trkpt lat="47.6468" lon="6.07206">
        <ele>265.20001220703</ele>
        <time>2012-08-08T08:14:42.000Z</time>
      </trkpt>
      <trkpt lat="47.64661" lon="6.0721">
        <ele>265.20001220703</ele>
        <time>2012-08-08T08:14:50.000Z</time>
      </trkpt>
      <trkpt lat="47.64639" lon="6.0722">
        <ele>265.20001220703</ele>
        <time>2012-08-08T08:14:58.000Z</time>
      </trkpt>
      <trkpt lat="47.64616" lon="6.07237">
        <ele>265.20001220703</ele>
        <time>2012-08-08T08:15:06.000Z</time>
      </trkpt>
      <trkpt lat="47.64614" lon="6.07239">
        <ele>265.20001220703</ele>
        <time>2012-08-08T08:15:07.000Z</time>
      </trkpt>
      <trkpt lat="47.64591" lon="6.07255">
        <ele>265.20001220703</ele>
        <time>2012-08-08T08:15:15.000Z</time>
      </trkpt>
      <trkpt lat="47.64569" lon="6.07278">
        <ele>265.20001220703</ele>
        <time>2012-08-08T08:15:23.000Z</time>
      </trkpt>
      <trkpt lat="47.64552" lon="6.07307">
        <ele>265.20001220703</ele>
        <time>2012-08-08T08:15:30.000Z</time>
      </trkpt>
      <trkpt lat="47.64534" lon="6.07321">
        <ele>265.20001220703</ele>
        <time>2012-08-08T08:15:36.000Z</time>
      </trkpt>
      <trkpt lat="47.64514" lon="6.07318">
        <ele>265.20001220703</ele>
        <time>2012-08-08T08:15:42.000Z</time>
      </trkpt>
      <trkpt lat="47.64488" lon="6.07317">
        <ele>265.20001220703</ele>
        <time>2012-08-08T08:15:50.000Z</time>
      </trkpt>
      <trkpt lat="47.64464" lon="6.0732">
        <ele>265.20001220703</ele>
        <time>2012-08-08T08:15:59.000Z</time>
      </trkpt>
      <trkpt lat="47.64451" lon="6.07326">
        <ele>265.20001220703</ele>
        <time>2012-08-08T08:16:05.000Z</time>
      </trkpt>
      <trkpt lat="47.64436" lon="6.07332">
        <ele>265.60000610352</ele>
        <time>2012-08-08T08:16:12.000Z</time>
      </trkpt>
      <trkpt lat="47.64435" lon="6.07333">
        <ele>266</ele>
        <time>2012-08-08T08:16:13.000Z</time>
      </trkpt>
      <trkpt lat="47.64433" lon="6.07333">
        <ele>266.39999389648</ele>
        <time>2012-08-08T08:16:14.000Z</time>
      </trkpt>
      <trkpt lat="47.64431" lon="6.07335">
        <ele>267</ele>
        <time>2012-08-08T08:16:15.000Z</time>
      </trkpt>
      <trkpt lat="47.64429" lon="6.07336">
        <ele>267.39999389648</ele>
        <time>2012-08-08T08:16:16.000Z</time>
      </trkpt>
      <trkpt lat="47.64416" lon="6.07342">
        <ele>267.39999389648</ele>
        <time>2012-08-08T08:16:23.000Z</time>
      </trkpt>
      <trkpt lat="47.6441" lon="6.07343">
        <ele>267.79998779297</ele>
        <time>2012-08-08T08:16:26.000Z</time>
      </trkpt>
      <trkpt lat="47.64408" lon="6.07344">
        <ele>268.20001220703</ele>
        <time>2012-08-08T08:16:27.000Z</time>
      </trkpt>
      <trkpt lat="47.64406" lon="6.07344">
        <ele>268.60000610352</ele>
        <time>2012-08-08T08:16:28.000Z</time>
      </trkpt>
      <trkpt lat="47.64404" lon="6.07345">
        <ele>269</ele>
        <time>2012-08-08T08:16:29.000Z</time>
      </trkpt>
      <trkpt lat="47.64401" lon="6.07345">
        <ele>269.39999389648</ele>
        <time>2012-08-08T08:16:30.000Z</time>
      </trkpt>
      <trkpt lat="47.64398" lon="6.07346">
        <ele>269.39999389648</ele>
        <time>2012-08-08T08:16:32.000Z</time>
      </trkpt>
      <trkpt lat="47.64385" lon="6.07352">
        <ele>269.39999389648</ele>
        <time>2012-08-08T08:16:39.000Z</time>
      </trkpt>
      <trkpt lat="47.6438" lon="6.07354">
        <ele>269.79998779297</ele>
        <time>2012-08-08T08:16:42.000Z</time>
      </trkpt>
      <trkpt lat="47.64378" lon="6.07355">
        <ele>270.39999389648</ele>
        <time>2012-08-08T08:16:43.000Z</time>
      </trkpt>
      <trkpt lat="47.64376" lon="6.07355">
        <ele>270.79998779297</ele>
        <time>2012-08-08T08:16:44.000Z</time>
      </trkpt>
      <trkpt lat="47.64374" lon="6.07356">
        <ele>271.60000610352</ele>
        <time>2012-08-08T08:16:45.000Z</time>
      </trkpt>
      <trkpt lat="47.64368" lon="6.07358">
        <ele>271.60000610352</ele>
        <time>2012-08-08T08:16:49.000Z</time>
      </trkpt>
      <trkpt lat="47.64353" lon="6.07362">
        <ele>271.60000610352</ele>
        <time>2012-08-08T08:16:57.000Z</time>
      </trkpt>
      <trkpt lat="47.64348" lon="6.07364">
        <ele>272</ele>
        <time>2012-08-08T08:17:00.000Z</time>
      </trkpt>
      <trkpt lat="47.64346" lon="6.07365">
        <ele>272.39999389648</ele>
        <time>2012-08-08T08:17:01.000Z</time>
      </trkpt>
      <trkpt lat="47.64344" lon="6.07366">
        <ele>272.79998779297</ele>
        <time>2012-08-08T08:17:02.000Z</time>
      </trkpt>
      <trkpt lat="47.64343" lon="6.07366">
        <ele>273.20001220703</ele>
        <time>2012-08-08T08:17:03.000Z</time>
      </trkpt>
      <trkpt lat="47.64341" lon="6.07366">
        <ele>273.60000610352</ele>
        <time>2012-08-08T08:17:04.000Z</time>
      </trkpt>
      <trkpt lat="47.64339" lon="6.07366">
        <ele>273.60000610352</ele>
        <time>2012-08-08T08:17:05.000Z</time>
      </trkpt>
      <trkpt lat="47.64321" lon="6.07367">
        <ele>273.60000610352</ele>
        <time>2012-08-08T08:17:16.000Z</time>
      </trkpt>
      <trkpt lat="47.64314" lon="6.07365">
        <ele>274</ele>
        <time>2012-08-08T08:17:20.000Z</time>
      </trkpt>
      <trkpt lat="47.64312" lon="6.07365">
        <ele>274.39999389648</ele>
        <time>2012-08-08T08:17:21.000Z</time>
      </trkpt>
      <trkpt lat="47.6431" lon="6.07364">
        <ele>274.79998779297</ele>
        <time>2012-08-08T08:17:22.000Z</time>
      </trkpt>
      <trkpt lat="47.64309" lon="6.07363">
        <ele>275.20001220703</ele>
        <time>2012-08-08T08:17:23.000Z</time>
      </trkpt>
      <trkpt lat="47.64307" lon="6.07363">
        <ele>275.60000610352</ele>
        <time>2012-08-08T08:17:24.000Z</time>
      </trkpt>
      <trkpt lat="47.64295" lon="6.07353">
        <ele>275.60000610352</ele>
        <time>2012-08-08T08:17:31.000Z</time>
      </trkpt>
      <trkpt lat="47.64283" lon="6.07347">
        <ele>275.60000610352</ele>
        <time>2012-08-08T08:17:38.000Z</time>
      </trkpt>
      <trkpt lat="47.6427" lon="6.07343">
        <ele>276</ele>
        <time>2012-08-08T08:17:44.000Z</time>
      </trkpt>
      <trkpt lat="47.64268" lon="6.07342">
        <ele>276.39999389648</ele>
        <time>2012-08-08T08:17:45.000Z</time>
      </trkpt>
      <trkpt lat="47.64266" lon="6.07341">
        <ele>276.79998779297</ele>
        <time>2012-08-08T08:17:46.000Z</time>
      </trkpt>
      <trkpt lat="47.64264" lon="6.0734">
        <ele>277.39999389648</ele>
        <time>2012-08-08T08:17:47.000Z</time>
      </trkpt>
      <trkpt lat="47.64262" lon="6.07338">
        <ele>277.79998779297</ele>
        <time>2012-08-08T08:17:48.000Z</time>
      </trkpt>
      <trkpt lat="47.6425" lon="6.07332">
        <ele>277.79998779297</ele>
        <time>2012-08-08T08:17:54.000Z</time>
      </trkpt>
      <trkpt lat="47.64229" lon="6.07321">
        <ele>277.79998779297</ele>
        <time>2012-08-08T08:18:03.000Z</time>
      </trkpt>
      <trkpt lat="47.64211" lon="6.07315">
        <ele>277.79998779297</ele>
        <time>2012-08-08T08:18:09.000Z</time>
      </trkpt>
      <trkpt lat="47.64191" lon="6.07304">
        <ele>277.39999389648</ele>
        <time>2012-08-08T08:18:14.000Z</time>
      </trkpt>
      <trkpt lat="47.64187" lon="6.07301">
        <ele>276.79998779297</ele>
        <time>2012-08-08T08:18:15.000Z</time>
      </trkpt>
      <trkpt lat="47.64183" lon="6.07299">
        <ele>276.39999389648</ele>
        <time>2012-08-08T08:18:16.000Z</time>
      </trkpt>
      <trkpt lat="47.64179" lon="6.07297">
        <ele>276</ele>
        <time>2012-08-08T08:18:17.000Z</time>
      </trkpt>
      <trkpt lat="47.64174" lon="6.07295">
        <ele>275.60000610352</ele>
        <time>2012-08-08T08:18:18.000Z</time>
      </trkpt>
      <trkpt lat="47.6416" lon="6.07287">
        <ele>275.20001220703</ele>
        <time>2012-08-08T08:18:21.000Z</time>
      </trkpt>
      <trkpt lat="47.64156" lon="6.07285">
        <ele>274.79998779297</ele>
        <time>2012-08-08T08:18:22.000Z</time>
      </trkpt>
      <trkpt lat="47.64151" lon="6.07282">
        <ele>274.39999389648</ele>
        <time>2012-08-08T08:18:23.000Z</time>
      </trkpt>
      <trkpt lat="47.64147" lon="6.07279">
        <ele>273.60000610352</ele>
        <time>2012-08-08T08:18:24.000Z</time>
      </trkpt>
      <trkpt lat="47.64142" lon="6.07277">
        <ele>273.60000610352</ele>
        <time>2012-08-08T08:18:25.000Z</time>
      </trkpt>
      <trkpt lat="47.64137" lon="6.07274">
        <ele>273.20001220703</ele>
        <time>2012-08-08T08:18:26.000Z</time>
      </trkpt>
      <trkpt lat="47.64132" lon="6.07271">
        <ele>272.60000610352</ele>
        <time>2012-08-08T08:18:27.000Z</time>
      </trkpt>
      <trkpt lat="47.64128" lon="6.07268">
        <ele>272.20001220703</ele>
        <time>2012-08-08T08:18:28.000Z</time>
      </trkpt>
      <trkpt lat="47.64123" lon="6.07265">
        <ele>271.60000610352</ele>
        <time>2012-08-08T08:18:29.000Z</time>
      </trkpt>
      <trkpt lat="47.64118" lon="6.07263">
        <ele>271.20001220703</ele>
        <time>2012-08-08T08:18:30.000Z</time>
      </trkpt>
      <trkpt lat="47.64109" lon="6.07258">
        <ele>271.20001220703</ele>
        <time>2012-08-08T08:18:32.000Z</time>
      </trkpt>
      <trkpt lat="47.641" lon="6.07253">
        <ele>270.79998779297</ele>
        <time>2012-08-08T08:18:34.000Z</time>
      </trkpt>
      <trkpt lat="47.64095" lon="6.07251">
        <ele>270.20001220703</ele>
        <time>2012-08-08T08:18:35.000Z</time>
      </trkpt>
      <trkpt lat="47.6409" lon="6.07249">
        <ele>269.79998779297</ele>
        <time>2012-08-08T08:18:36.000Z</time>
      </trkpt>
      <trkpt lat="47.64085" lon="6.07246">
        <ele>269.39999389648</ele>
        <time>2012-08-08T08:18:37.000Z</time>
      </trkpt>
      <trkpt lat="47.6408" lon="6.07243">
        <ele>269</ele>
        <time>2012-08-08T08:18:38.000Z</time>
      </trkpt>
      <trkpt lat="47.64064" lon="6.07235">
        <ele>268.60000610352</ele>
        <time>2012-08-08T08:18:41.000Z</time>
      </trkpt>
      <trkpt lat="47.64059" lon="6.07232">
        <ele>268.20001220703</ele>
        <time>2012-08-08T08:18:42.000Z</time>
      </trkpt>
      <trkpt lat="47.64055" lon="6.0723">
        <ele>267.79998779297</ele>
        <time>2012-08-08T08:18:43.000Z</time>
      </trkpt>
      <trkpt lat="47.6405" lon="6.07227">
        <ele>267.39999389648</ele>
        <time>2012-08-08T08:18:44.000Z</time>
      </trkpt>
      <trkpt lat="47.64046" lon="6.07225">
        <ele>267</ele>
        <time>2012-08-08T08:18:45.000Z</time>
      </trkpt>
      <trkpt lat="47.64032" lon="6.07217">
        <ele>266</ele>
        <time>2012-08-08T08:18:49.000Z</time>
      </trkpt>
      <trkpt lat="47.64028" lon="6.07216">
        <ele>265.60000610352</ele>
        <time>2012-08-08T08:18:50.000Z</time>
      </trkpt>
      <trkpt lat="47.64025" lon="6.07214">
        <ele>265.20001220703</ele>
        <time>2012-08-08T08:18:51.000Z</time>
      </trkpt>
      <trkpt lat="47.64023" lon="6.07212">
        <ele>264.79998779297</ele>
        <time>2012-08-08T08:18:52.000Z</time>
      </trkpt>
      <trkpt lat="47.64019" lon="6.07209">
        <ele>264.79998779297</ele>
        <time>2012-08-08T08:18:54.000Z</time>
      </trkpt>
      <trkpt lat="47.64013" lon="6.07209">
        <ele>264.79998779297</ele>
        <time>2012-08-08T08:18:59.000Z</time>
      </trkpt>
      <trkpt lat="47.64013" lon="6.07209">
        <ele>264.79998779297</ele>
        <time>2012-08-08T08:19:00.000Z</time>
      </trkpt>
      <trkpt lat="47.6401" lon="6.0721">
        <ele>262.79998779297</ele>
        <time>2012-08-08T08:20:52.000Z</time>
      </trkpt>
      <trkpt lat="47.64007" lon="6.07206">
        <ele>262.79998779297</ele>
        <time>2012-08-08T08:20:54.000Z</time>
      </trkpt>
      <trkpt lat="47.63991" lon="6.07193">
        <ele>262.79998779297</ele>
        <time>2012-08-08T08:21:00.000Z</time>
      </trkpt>
      <trkpt lat="47.63967" lon="6.07182">
        <ele>262.79998779297</ele>
        <time>2012-08-08T08:21:06.000Z</time>
      </trkpt>
      <trkpt lat="47.63961" lon="6.07182">
        <ele>262.20001220703</ele>
        <time>2012-08-08T08:21:07.000Z</time>
      </trkpt>
      <trkpt lat="47.63955" lon="6.07181">
        <ele>261.79998779297</ele>
        <time>2012-08-08T08:21:08.000Z</time>
      </trkpt>
      <trkpt lat="47.63949" lon="6.07181">
        <ele>261.39999389648</ele>
        <time>2012-08-08T08:21:09.000Z</time>
      </trkpt>
      <trkpt lat="47.63943" lon="6.07181">
        <ele>261</ele>
        <time>2012-08-08T08:21:10.000Z</time>
      </trkpt>
      <trkpt lat="47.63936" lon="6.0718">
        <ele>260.39999389648</ele>
        <time>2012-08-08T08:21:11.000Z</time>
      </trkpt>
      <trkpt lat="47.63915" lon="6.07177">
        <ele>260</ele>
        <time>2012-08-08T08:21:14.000Z</time>
      </trkpt>
      <trkpt lat="47.63908" lon="6.07175">
        <ele>259.60000610352</ele>
        <time>2012-08-08T08:21:15.000Z</time>
      </trkpt>
      <trkpt lat="47.63901" lon="6.07173">
        <ele>259.20001220703</ele>
        <time>2012-08-08T08:21:16.000Z</time>
      </trkpt>
      <trkpt lat="47.63893" lon="6.07171">
        <ele>258.39999389648</ele>
        <time>2012-08-08T08:21:17.000Z</time>
      </trkpt>
      <trkpt lat="47.63886" lon="6.07169">
        <ele>257.79998779297</ele>
        <time>2012-08-08T08:21:18.000Z</time>
      </trkpt>
      <trkpt lat="47.63879" lon="6.07166">
        <ele>257.39999389648</ele>
        <time>2012-08-08T08:21:19.000Z</time>
      </trkpt>
      <trkpt lat="47.63872" lon="6.07162">
        <ele>257</ele>
        <time>2012-08-08T08:21:20.000Z</time>
      </trkpt>
      <trkpt lat="47.63866" lon="6.07157">
        <ele>256.39999389648</ele>
        <time>2012-08-08T08:21:21.000Z</time>
      </trkpt>
      <trkpt lat="47.6386" lon="6.07152">
        <ele>256</ele>
        <time>2012-08-08T08:21:22.000Z</time>
      </trkpt>
      <trkpt lat="47.63854" lon="6.07147">
        <ele>255.39999389648</ele>
        <time>2012-08-08T08:21:23.000Z</time>
      </trkpt>
      <trkpt lat="47.63848" lon="6.07141">
        <ele>254.80000305176</ele>
        <time>2012-08-08T08:21:24.000Z</time>
      </trkpt>
      <trkpt lat="47.63842" lon="6.07136">
        <ele>254.19999694824</ele>
        <time>2012-08-08T08:21:25.000Z</time>
      </trkpt>
      <trkpt lat="47.63836" lon="6.07131">
        <ele>253.60000610352</ele>
        <time>2012-08-08T08:21:26.000Z</time>
      </trkpt>
      <trkpt lat="47.63831" lon="6.07126">
        <ele>253</ele>
        <time>2012-08-08T08:21:27.000Z</time>
      </trkpt>
      <trkpt lat="47.63826" lon="6.0712">
        <ele>252.60000610352</ele>
        <time>2012-08-08T08:21:28.000Z</time>
      </trkpt>
      <trkpt lat="47.63822" lon="6.07113">
        <ele>251.80000305176</ele>
        <time>2012-08-08T08:21:29.000Z</time>
      </trkpt>
      <trkpt lat="47.63818" lon="6.07105">
        <ele>251.19999694824</ele>
        <time>2012-08-08T08:21:30.000Z</time>
      </trkpt>
      <trkpt lat="47.63815" lon="6.07098">
        <ele>250.60000610352</ele>
        <time>2012-08-08T08:21:31.000Z</time>
      </trkpt>
      <trkpt lat="47.63813" lon="6.07091">
        <ele>250</ele>
        <time>2012-08-08T08:21:32.000Z</time>
      </trkpt>
      <trkpt lat="47.63811" lon="6.07084">
        <ele>249.39999389648</ele>
        <time>2012-08-08T08:21:33.000Z</time>
      </trkpt>
      <trkpt lat="47.6381" lon="6.07075">
        <ele>249.39999389648</ele>
        <time>2012-08-08T08:21:35.000Z</time>
      </trkpt>
      <trkpt lat="47.6381" lon="6.07068">
        <ele>249.39999389648</ele>
        <time>2012-08-08T08:21:37.000Z</time>
      </trkpt>
      <trkpt lat="47.63808" lon="6.07058">
        <ele>249.39999389648</ele>
        <time>2012-08-08T08:21:41.000Z</time>
      </trkpt>
      <trkpt lat="47.63808" lon="6.07056">
        <ele>249.80000305176</ele>
        <time>2012-08-08T08:21:42.000Z</time>
      </trkpt>
      <trkpt lat="47.63808" lon="6.07053">
        <ele>250.19999694824</ele>
        <time>2012-08-08T08:21:43.000Z</time>
      </trkpt>
      <trkpt lat="47.63807" lon="6.07051">
        <ele>250.60000610352</ele>
        <time>2012-08-08T08:21:44.000Z</time>
      </trkpt>
      <trkpt lat="47.63807" lon="6.07048">
        <ele>251.19999694824</ele>
        <time>2012-08-08T08:21:45.000Z</time>
      </trkpt>
      <trkpt lat="47.63807" lon="6.07045">
        <ele>251.60000610352</ele>
        <time>2012-08-08T08:21:46.000Z</time>
      </trkpt>
      <trkpt lat="47.63806" lon="6.07042">
        <ele>251.60000610352</ele>
        <time>2012-08-08T08:21:47.000Z</time>
      </trkpt>
      <trkpt lat="47.63806" lon="6.0704">
        <ele>251.60000610352</ele>
        <time>2012-08-08T08:21:48.000Z</time>
      </trkpt>
      <trkpt lat="47.63804" lon="6.07031">
        <ele>252</ele>
        <time>2012-08-08T08:21:52.000Z</time>
      </trkpt>
      <trkpt lat="47.63804" lon="6.07029">
        <ele>252.39999389648</ele>
        <time>2012-08-08T08:21:53.000Z</time>
      </trkpt>
      <trkpt lat="47.63803" lon="6.07028">
        <ele>252.80000305176</ele>
        <time>2012-08-08T08:21:54.000Z</time>
      </trkpt>
      <trkpt lat="47.63803" lon="6.07026">
        <ele>253.19999694824</ele>
        <time>2012-08-08T08:21:55.000Z</time>
      </trkpt>
      <trkpt lat="47.63802" lon="6.07023">
        <ele>253.60000610352</ele>
        <time>2012-08-08T08:21:56.000Z</time>
      </trkpt>
      <trkpt lat="47.63799" lon="6.07012">
        <ele>253.60000610352</ele>
        <time>2012-08-08T08:22:02.000Z</time>
      </trkpt>
      <trkpt lat="47.63797" lon="6.07005">
        <ele>254.60000610352</ele>
        <time>2012-08-08T08:22:06.000Z</time>
      </trkpt>
      <trkpt lat="47.63796" lon="6.07003">
        <ele>255</ele>
        <time>2012-08-08T08:22:07.000Z</time>
      </trkpt>
      <trkpt lat="47.63796" lon="6.07002">
        <ele>255.39999389648</ele>
        <time>2012-08-08T08:22:08.000Z</time>
      </trkpt>
      <trkpt lat="47.63795" lon="6.07">
        <ele>255.80000305176</ele>
        <time>2012-08-08T08:22:09.000Z</time>
      </trkpt>
      <trkpt lat="47.63788" lon="6.0699">
        <ele>255.80000305176</ele>
        <time>2012-08-08T08:22:16.000Z</time>
      </trkpt>
      <trkpt lat="47.63786" lon="6.06987">
        <ele>256.20001220703</ele>
        <time>2012-08-08T08:22:18.000Z</time>
      </trkpt>
      <trkpt lat="47.63786" lon="6.06986">
        <ele>256.60000610352</ele>
        <time>2012-08-08T08:22:19.000Z</time>
      </trkpt>
      <trkpt lat="47.63785" lon="6.06984">
        <ele>257</ele>
        <time>2012-08-08T08:22:20.000Z</time>
      </trkpt>
      <trkpt lat="47.63784" lon="6.06983">
        <ele>257.39999389648</ele>
        <time>2012-08-08T08:22:21.000Z</time>
      </trkpt>
      <trkpt lat="47.63783" lon="6.06981">
        <ele>257.79998779297</ele>
        <time>2012-08-08T08:22:22.000Z</time>
      </trkpt>
      <trkpt lat="47.63782" lon="6.06979">
        <ele>257.79998779297</ele>
        <time>2012-08-08T08:22:23.000Z</time>
      </trkpt>
      <trkpt lat="47.63776" lon="6.06967">
        <ele>258.20001220703</ele>
        <time>2012-08-08T08:22:31.000Z</time>
      </trkpt>
      <trkpt lat="47.63776" lon="6.06966">
        <ele>258.60000610352</ele>
        <time>2012-08-08T08:22:32.000Z</time>
      </trkpt>
      <trkpt lat="47.63775" lon="6.06964">
        <ele>259</ele>
        <time>2012-08-08T08:22:33.000Z</time>
      </trkpt>
      <trkpt lat="47.63775" lon="6.06962">
        <ele>259.39999389648</ele>
        <time>2012-08-08T08:22:34.000Z</time>
      </trkpt>
      <trkpt lat="47.63774" lon="6.06961">
        <ele>259.79998779297</ele>
        <time>2012-08-08T08:22:35.000Z</time>
      </trkpt>
      <trkpt lat="47.63772" lon="6.06952">
        <ele>259.79998779297</ele>
        <time>2012-08-08T08:22:40.000Z</time>
      </trkpt>
      <trkpt lat="47.63771" lon="6.06945">
        <ele>260.39999389648</ele>
        <time>2012-08-08T08:22:44.000Z</time>
      </trkpt>
      <trkpt lat="47.63771" lon="6.06944">
        <ele>260.79998779297</ele>
        <time>2012-08-08T08:22:45.000Z</time>
      </trkpt>
      <trkpt lat="47.63771" lon="6.06942">
        <ele>261.20001220703</ele>
        <time>2012-08-08T08:22:46.000Z</time>
      </trkpt>
      <trkpt lat="47.63771" lon="6.06941">
        <ele>261.60000610352</ele>
        <time>2012-08-08T08:22:47.000Z</time>
      </trkpt>
      <trkpt lat="47.63771" lon="6.06939">
        <ele>262</ele>
        <time>2012-08-08T08:22:48.000Z</time>
      </trkpt>
      <trkpt lat="47.63769" lon="6.06923">
        <ele>262.79998779297</ele>
        <time>2012-08-08T08:22:56.000Z</time>
      </trkpt>
      <trkpt lat="47.63769" lon="6.06922">
        <ele>263.20001220703</ele>
        <time>2012-08-08T08:22:57.000Z</time>
      </trkpt>
      <trkpt lat="47.63769" lon="6.0692">
        <ele>263.60000610352</ele>
        <time>2012-08-08T08:22:58.000Z</time>
      </trkpt>
      <trkpt lat="47.6377" lon="6.06918">
        <ele>264</ele>
        <time>2012-08-08T08:22:59.000Z</time>
      </trkpt>
      <trkpt lat="47.63769" lon="6.06916">
        <ele>264</ele>
        <time>2012-08-08T08:23:00.000Z</time>
      </trkpt>
      <trkpt lat="47.63769" lon="6.06911">
        <ele>264</ele>
        <time>2012-08-08T08:23:03.000Z</time>
      </trkpt>
      <trkpt lat="47.63769" lon="6.06902">
        <ele>264.39999389648</ele>
        <time>2012-08-08T08:23:08.000Z</time>
      </trkpt>
      <trkpt lat="47.63769" lon="6.06901">
        <ele>265</ele>
        <time>2012-08-08T08:23:09.000Z</time>
      </trkpt>
      <trkpt lat="47.63768" lon="6.06899">
        <ele>265.39999389648</ele>
        <time>2012-08-08T08:23:10.000Z</time>
      </trkpt>
      <trkpt lat="47.63768" lon="6.06897">
        <ele>265.79998779297</ele>
        <time>2012-08-08T08:23:11.000Z</time>
      </trkpt>
      <trkpt lat="47.63768" lon="6.06896">
        <ele>266.20001220703</ele>
        <time>2012-08-08T08:23:12.000Z</time>
      </trkpt>
      <trkpt lat="47.63767" lon="6.06888">
        <ele>266.20001220703</ele>
        <time>2012-08-08T08:23:16.000Z</time>
      </trkpt>
      <trkpt lat="47.6377" lon="6.0688">
        <ele>266.20001220703</ele>
        <time>2012-08-08T08:23:22.000Z</time>
      </trkpt>
      <trkpt lat="47.63771" lon="6.06877">
        <ele>266.60000610352</ele>
        <time>2012-08-08T08:23:24.000Z</time>
      </trkpt>
      <trkpt lat="47.63772" lon="6.06875">
        <ele>267</ele>
        <time>2012-08-08T08:23:25.000Z</time>
      </trkpt>
      <trkpt lat="47.63772" lon="6.06874">
        <ele>267.60000610352</ele>
        <time>2012-08-08T08:23:26.000Z</time>
      </trkpt>
      <trkpt lat="47.63773" lon="6.06873">
        <ele>268</ele>
        <time>2012-08-08T08:23:27.000Z</time>
      </trkpt>
      <trkpt lat="47.63773" lon="6.06871">
        <ele>268.39999389648</ele>
        <time>2012-08-08T08:23:28.000Z</time>
      </trkpt>
      <trkpt lat="47.63775" lon="6.06868">
        <ele>268.39999389648</ele>
        <time>2012-08-08T08:23:30.000Z</time>
      </trkpt>
      <trkpt lat="47.63778" lon="6.06855">
        <ele>268.39999389648</ele>
        <time>2012-08-08T08:23:37.000Z</time>
      </trkpt>
      <trkpt lat="47.63782" lon="6.06851">
        <ele>268.79998779297</ele>
        <time>2012-08-08T08:23:41.000Z</time>
      </trkpt>
      <trkpt lat="47.63783" lon="6.0685">
        <ele>269.20001220703</ele>
        <time>2012-08-08T08:23:42.000Z</time>
      </trkpt>
      <trkpt lat="47.63784" lon="6.06849">
        <ele>269.60000610352</ele>
        <time>2012-08-08T08:23:43.000Z</time>
      </trkpt>
      <trkpt lat="47.63785" lon="6.06847">
        <ele>270</ele>
        <time>2012-08-08T08:23:44.000Z</time>
      </trkpt>
      <trkpt lat="47.63786" lon="6.06845">
        <ele>270.39999389648</ele>
        <time>2012-08-08T08:23:45.000Z</time>
      </trkpt>
      <trkpt lat="47.6379" lon="6.06834">
        <ele>270.39999389648</ele>
        <time>2012-08-08T08:23:51.000Z</time>
      </trkpt>
      <trkpt lat="47.63795" lon="6.0682">
        <ele>270.39999389648</ele>
        <time>2012-08-08T08:23:58.000Z</time>
      </trkpt>
      <trkpt lat="47.63803" lon="6.06811">
        <ele>270.39999389648</ele>
        <time>2012-08-08T08:24:04.000Z</time>
      </trkpt>
      <trkpt lat="47.63815" lon="6.06797">
        <ele>270.39999389648</ele>
        <time>2012-08-08T08:24:11.000Z</time>
      </trkpt>
      <trkpt lat="47.63828" lon="6.06784">
        <ele>270.39999389648</ele>
        <time>2012-08-08T08:24:18.000Z</time>
      </trkpt>
      <trkpt lat="47.63844" lon="6.06767">
        <ele>270.39999389648</ele>
        <time>2012-08-08T08:24:26.000Z</time>
      </trkpt>
      <trkpt lat="47.63855" lon="6.06756">
        <ele>270.39999389648</ele>
        <time>2012-08-08T08:24:32.000Z</time>
      </trkpt>
      <trkpt lat="47.63864" lon="6.06742">
        <ele>270.39999389648</ele>
        <time>2012-08-08T08:24:38.000Z</time>
      </trkpt>
      <trkpt lat="47.63874" lon="6.0673">
        <ele>270.39999389648</ele>
        <time>2012-08-08T08:24:44.000Z</time>
      </trkpt>
      <trkpt lat="47.63885" lon="6.06728">
        <ele>270.39999389648</ele>
        <time>2012-08-08T08:24:49.000Z</time>
      </trkpt>
      <trkpt lat="47.63893" lon="6.06724">
        <ele>270.79998779297</ele>
        <time>2012-08-08T08:24:53.000Z</time>
      </trkpt>
      <trkpt lat="47.63895" lon="6.06722">
        <ele>271.20001220703</ele>
        <time>2012-08-08T08:24:54.000Z</time>
      </trkpt>
      <trkpt lat="47.63897" lon="6.06721">
        <ele>271.60000610352</ele>
        <time>2012-08-08T08:24:55.000Z</time>
      </trkpt>
      <trkpt lat="47.63899" lon="6.0672">
        <ele>272.20001220703</ele>
        <time>2012-08-08T08:24:56.000Z</time>
      </trkpt>
      <trkpt lat="47.63901" lon="6.06718">
        <ele>272.60000610352</ele>
        <time>2012-08-08T08:24:57.000Z</time>
      </trkpt>
      <trkpt lat="47.6391" lon="6.06713">
        <ele>272.60000610352</ele>
        <time>2012-08-08T08:25:02.000Z</time>
      </trkpt>
      <trkpt lat="47.63915" lon="6.06708">
        <ele>272.60000610352</ele>
        <time>2012-08-08T08:25:05.000Z</time>
      </trkpt>
      <trkpt lat="47.63918" lon="6.06704">
        <ele>272.60000610352</ele>
        <time>2012-08-08T08:25:07.000Z</time>
      </trkpt>
      <trkpt lat="47.63925" lon="6.06703">
        <ele>272.60000610352</ele>
        <time>2012-08-08T08:25:10.000Z</time>
      </trkpt>
      <trkpt lat="47.63928" lon="6.06702">
        <ele>272.60000610352</ele>
        <time>2012-08-08T08:25:11.000Z</time>
      </trkpt>
      <trkpt lat="47.63934" lon="6.06698">
        <ele>273</ele>
        <time>2012-08-08T08:25:14.000Z</time>
      </trkpt>
      <trkpt lat="47.63936" lon="6.06697">
        <ele>273.39999389648</ele>
        <time>2012-08-08T08:25:15.000Z</time>
      </trkpt>
      <trkpt lat="47.63937" lon="6.06696">
        <ele>273.79998779297</ele>
        <time>2012-08-08T08:25:16.000Z</time>
      </trkpt>
      <trkpt lat="47.6394" lon="6.06695">
        <ele>274.20001220703</ele>
        <time>2012-08-08T08:25:17.000Z</time>
      </trkpt>
      <trkpt lat="47.63942" lon="6.06694">
        <ele>274.60000610352</ele>
        <time>2012-08-08T08:25:18.000Z</time>
      </trkpt>
      <trkpt lat="47.63949" lon="6.06682">
        <ele>274.60000610352</ele>
        <time>2012-08-08T08:25:23.000Z</time>
      </trkpt>
      <trkpt lat="47.63956" lon="6.06665">
        <ele>275</ele>
        <time>2012-08-08T08:25:29.000Z</time>
      </trkpt>
      <trkpt lat="47.63957" lon="6.06663">
        <ele>275.39999389648</ele>
        <time>2012-08-08T08:25:30.000Z</time>
      </trkpt>
      <trkpt lat="47.63958" lon="6.06661">
        <ele>275.79998779297</ele>
        <time>2012-08-08T08:25:31.000Z</time>
      </trkpt>
      <trkpt lat="47.6396" lon="6.06658">
        <ele>276.20001220703</ele>
        <time>2012-08-08T08:25:32.000Z</time>
      </trkpt>
      <trkpt lat="47.63961" lon="6.06656">
        <ele>276.60000610352</ele>
        <time>2012-08-08T08:25:33.000Z</time>
      </trkpt>
      <trkpt lat="47.63966" lon="6.06643">
        <ele>276.60000610352</ele>
        <time>2012-08-08T08:25:38.000Z</time>
      </trkpt>
      <trkpt lat="47.63976" lon="6.06629">
        <ele>276.60000610352</ele>
        <time>2012-08-08T08:25:45.000Z</time>
      </trkpt>
      <trkpt lat="47.63979" lon="6.06624">
        <ele>277</ele>
        <time>2012-08-08T08:25:47.000Z</time>
      </trkpt>
      <trkpt lat="47.6398" lon="6.06622">
        <ele>277.39999389648</ele>
        <time>2012-08-08T08:25:48.000Z</time>
      </trkpt>
      <trkpt lat="47.63981" lon="6.0662">
        <ele>278.39999389648</ele>
        <time>2012-08-08T08:25:49.000Z</time>
      </trkpt>
      <trkpt lat="47.63982" lon="6.06617">
        <ele>278.79998779297</ele>
        <time>2012-08-08T08:25:50.000Z</time>
      </trkpt>
      <trkpt lat="47.63988" lon="6.06606">
        <ele>278.79998779297</ele>
        <time>2012-08-08T08:25:55.000Z</time>
      </trkpt>
      <trkpt lat="47.64" lon="6.06589">
        <ele>278.79998779297</ele>
        <time>2012-08-08T08:26:03.000Z</time>
      </trkpt>
      <trkpt lat="47.64011" lon="6.06574">
        <ele>278.79998779297</ele>
        <time>2012-08-08T08:26:10.000Z</time>
      </trkpt>
      <trkpt lat="47.64017" lon="6.06568">
        <ele>279.60000610352</ele>
        <time>2012-08-08T08:26:13.000Z</time>
      </trkpt>
      <trkpt lat="47.6402" lon="6.06566">
        <ele>280</ele>
        <time>2012-08-08T08:26:14.000Z</time>
      </trkpt>
      <trkpt lat="47.64021" lon="6.06563">
        <ele>280.39999389648</ele>
        <time>2012-08-08T08:26:15.000Z</time>
      </trkpt>
      <trkpt lat="47.64022" lon="6.0656">
        <ele>280.79998779297</ele>
        <time>2012-08-08T08:26:16.000Z</time>
      </trkpt>
      <trkpt lat="47.64023" lon="6.06557">
        <ele>280.79998779297</ele>
        <time>2012-08-08T08:26:17.000Z</time>
      </trkpt>
      <trkpt lat="47.64033" lon="6.06547">
        <ele>280.79998779297</ele>
        <time>2012-08-08T08:26:23.000Z</time>
      </trkpt>
      <trkpt lat="47.64035" lon="6.06542">
        <ele>280.79998779297</ele>
        <time>2012-08-08T08:26:25.000Z</time>
      </trkpt>
      <trkpt lat="47.64035" lon="6.06535">
        <ele>280.79998779297</ele>
        <time>2012-08-08T08:26:28.000Z</time>
      </trkpt>
      <trkpt lat="47.64036" lon="6.06529">
        <ele>280.79998779297</ele>
        <time>2012-08-08T08:26:31.000Z</time>
      </trkpt>
      <trkpt lat="47.64037" lon="6.06526">
        <ele>280.79998779297</ele>
        <time>2012-08-08T08:26:34.000Z</time>
      </trkpt>
      <trkpt lat="47.64038" lon="6.06525">
        <ele>280.79998779297</ele>
        <time>2012-08-08T08:29:32.000Z</time>
      </trkpt>
      <trkpt lat="47.64043" lon="6.06519">
        <ele>280.79998779297</ele>
        <time>2012-08-08T08:29:35.000Z</time>
      </trkpt>
      <trkpt lat="47.64055" lon="6.06498">
        <ele>280.79998779297</ele>
        <time>2012-08-08T08:29:40.000Z</time>
      </trkpt>
      <trkpt lat="47.6408" lon="6.06459">
        <ele>280.79998779297</ele>
        <time>2012-08-08T08:29:48.000Z</time>
      </trkpt>
      <trkpt lat="47.641" lon="6.06418">
        <ele>280.79998779297</ele>
        <time>2012-08-08T08:29:56.000Z</time>
      </trkpt>
      <trkpt lat="47.6412" lon="6.06376">
        <ele>280.79998779297</ele>
        <time>2012-08-08T08:30:04.000Z</time>
      </trkpt>
      <trkpt lat="47.64139" lon="6.06329">
        <ele>280.79998779297</ele>
        <time>2012-08-08T08:30:11.000Z</time>
      </trkpt>
      <trkpt lat="47.64157" lon="6.06278">
        <ele>280.79998779297</ele>
        <time>2012-08-08T08:30:19.000Z</time>
      </trkpt>
      <trkpt lat="47.64177" lon="6.06221">
        <ele>280.39999389648</ele>
        <time>2012-08-08T08:30:27.000Z</time>
      </trkpt>
      <trkpt lat="47.64179" lon="6.06213">
        <ele>280</ele>
        <time>2012-08-08T08:30:28.000Z</time>
      </trkpt>
      <trkpt lat="47.64183" lon="6.06205">
        <ele>279.60000610352</ele>
        <time>2012-08-08T08:30:29.000Z</time>
      </trkpt>
      <trkpt lat="47.64185" lon="6.06197">
        <ele>279.20001220703</ele>
        <time>2012-08-08T08:30:30.000Z</time>
      </trkpt>
      <trkpt lat="47.64187" lon="6.06188">
        <ele>278.79998779297</ele>
        <time>2012-08-08T08:30:31.000Z</time>
      </trkpt>
      <trkpt lat="47.64194" lon="6.06162">
        <ele>278.79998779297</ele>
        <time>2012-08-08T08:30:34.000Z</time>
      </trkpt>
      <trkpt lat="47.64198" lon="6.0614">
        <ele>278.39999389648</ele>
        <time>2012-08-08T08:30:37.000Z</time>
      </trkpt>
      <trkpt lat="47.64198" lon="6.06133">
        <ele>278</ele>
        <time>2012-08-08T08:30:38.000Z</time>
      </trkpt>
      <trkpt lat="47.64196" lon="6.06126">
        <ele>277.39999389648</ele>
        <time>2012-08-08T08:30:39.000Z</time>
      </trkpt>
      <trkpt lat="47.64194" lon="6.06121">
        <ele>277</ele>
        <time>2012-08-08T08:30:40.000Z</time>
      </trkpt>
      <trkpt lat="47.64191" lon="6.06116">
        <ele>276.60000610352</ele>
        <time>2012-08-08T08:30:41.000Z</time>
      </trkpt>
      <trkpt lat="47.64188" lon="6.06112">
        <ele>276.60000610352</ele>
        <time>2012-08-08T08:30:42.000Z</time>
      </trkpt>
      <trkpt lat="47.64186" lon="6.06108">
        <ele>276.60000610352</ele>
        <time>2012-08-08T08:30:43.000Z</time>
      </trkpt>
      <trkpt lat="47.64162" lon="6.06073">
        <ele>276.60000610352</ele>
        <time>2012-08-08T08:30:51.000Z</time>
      </trkpt>
      <trkpt lat="47.64134" lon="6.06029">
        <ele>276.60000610352</ele>
        <time>2012-08-08T08:30:59.000Z</time>
      </trkpt>
      <trkpt lat="47.64115" lon="6.05998">
        <ele>276.60000610352</ele>
        <time>2012-08-08T08:31:06.000Z</time>
      </trkpt>
      <trkpt lat="47.64093" lon="6.05965">
        <ele>276.60000610352</ele>
        <time>2012-08-08T08:31:15.000Z</time>
      </trkpt>
      <trkpt lat="47.64077" lon="6.05941">
        <ele>276.60000610352</ele>
        <time>2012-08-08T08:31:21.000Z</time>
      </trkpt>
      <trkpt lat="47.64057" lon="6.0591">
        <ele>276.60000610352</ele>
        <time>2012-08-08T08:31:28.000Z</time>
      </trkpt>
      <trkpt lat="47.64039" lon="6.05874">
        <ele>276.60000610352</ele>
        <time>2012-08-08T08:31:36.000Z</time>
      </trkpt>
      <trkpt lat="47.64037" lon="6.05868">
        <ele>276.60000610352</ele>
        <time>2012-08-08T08:31:37.000Z</time>
      </trkpt>
      <trkpt lat="47.64027" lon="6.05829">
        <ele>276.60000610352</ele>
        <time>2012-08-08T08:31:44.000Z</time>
      </trkpt>
      <trkpt lat="47.64015" lon="6.05779">
        <ele>276.20001220703</ele>
        <time>2012-08-08T08:31:53.000Z</time>
      </trkpt>
      <trkpt lat="47.64014" lon="6.05774">
        <ele>275.79998779297</ele>
        <time>2012-08-08T08:31:54.000Z</time>
      </trkpt>
      <trkpt lat="47.64013" lon="6.05768">
        <ele>275.39999389648</ele>
        <time>2012-08-08T08:31:55.000Z</time>
      </trkpt>
      <trkpt lat="47.64011" lon="6.05762">
        <ele>275</ele>
        <time>2012-08-08T08:31:56.000Z</time>
      </trkpt>
      <trkpt lat="47.6401" lon="6.05756">
        <ele>274.60000610352</ele>
        <time>2012-08-08T08:31:57.000Z</time>
      </trkpt>
      <trkpt lat="47.64006" lon="6.05738">
        <ele>274.60000610352</ele>
        <time>2012-08-08T08:32:00.000Z</time>
      </trkpt>
      <trkpt lat="47.63999" lon="6.05704">
        <ele>274.60000610352</ele>
        <time>2012-08-08T08:32:07.000Z</time>
      </trkpt>
      <trkpt lat="47.63993" lon="6.05678">
        <ele>274.60000610352</ele>
        <time>2012-08-08T08:32:14.000Z</time>
      </trkpt>
      <trkpt lat="47.63988" lon="6.05657">
        <ele>274.60000610352</ele>
        <time>2012-08-08T08:32:20.000Z</time>
      </trkpt>
      <trkpt lat="47.63982" lon="6.0563">
        <ele>274.60000610352</ele>
        <time>2012-08-08T08:32:28.000Z</time>
      </trkpt>
      <trkpt lat="47.63976" lon="6.05602">
        <ele>274.60000610352</ele>
        <time>2012-08-08T08:32:35.000Z</time>
      </trkpt>
      <trkpt lat="47.63967" lon="6.05564">
        <ele>274.60000610352</ele>
        <time>2012-08-08T08:32:44.000Z</time>
      </trkpt>
      <trkpt lat="47.63963" lon="6.05546">
        <ele>275</ele>
        <time>2012-08-08T08:32:48.000Z</time>
      </trkpt>
      <trkpt lat="47.63962" lon="6.05542">
        <ele>275.39999389648</ele>
        <time>2012-08-08T08:32:49.000Z</time>
      </trkpt>
      <trkpt lat="47.63961" lon="6.05538">
        <ele>276</ele>
        <time>2012-08-08T08:32:50.000Z</time>
      </trkpt>
      <trkpt lat="47.6396" lon="6.05533">
        <ele>276.39999389648</ele>
        <time>2012-08-08T08:32:51.000Z</time>
      </trkpt>
      <trkpt lat="47.63959" lon="6.05528">
        <ele>276.79998779297</ele>
        <time>2012-08-08T08:32:52.000Z</time>
      </trkpt>
      <trkpt lat="47.6395" lon="6.05495">
        <ele>276.79998779297</ele>
        <time>2012-08-08T08:32:58.000Z</time>
      </trkpt>
      <trkpt lat="47.63948" lon="6.05483">
        <ele>276.79998779297</ele>
        <time>2012-08-08T08:33:00.000Z</time>
      </trkpt>
      <trkpt lat="47.6395" lon="6.05462">
        <ele>276.79998779297</ele>
        <time>2012-08-08T08:33:03.000Z</time>
      </trkpt>
      <trkpt lat="47.63959" lon="6.05445">
        <ele>276.79998779297</ele>
        <time>2012-08-08T08:33:06.000Z</time>
      </trkpt>
      <trkpt lat="47.6397" lon="6.05428">
        <ele>276.39999389648</ele>
        <time>2012-08-08T08:33:09.000Z</time>
      </trkpt>
      <trkpt lat="47.63973" lon="6.0542">
        <ele>276</ele>
        <time>2012-08-08T08:33:10.000Z</time>
      </trkpt>
      <trkpt lat="47.63973" lon="6.05412">
        <ele>275.60000610352</ele>
        <time>2012-08-08T08:33:11.000Z</time>
      </trkpt>
      <trkpt lat="47.63973" lon="6.05402">
        <ele>274.79998779297</ele>
        <time>2012-08-08T08:33:12.000Z</time>
      </trkpt>
      <trkpt lat="47.63969" lon="6.05385">
        <ele>274.79998779297</ele>
        <time>2012-08-08T08:33:14.000Z</time>
      </trkpt>
      <trkpt lat="47.63965" lon="6.0537">
        <ele>274.79998779297</ele>
        <time>2012-08-08T08:33:16.000Z</time>
      </trkpt>
      <trkpt lat="47.63958" lon="6.05346">
        <ele>274.20001220703</ele>
        <time>2012-08-08T08:33:19.000Z</time>
      </trkpt>
      <trkpt lat="47.63955" lon="6.05339">
        <ele>273.79998779297</ele>
        <time>2012-08-08T08:33:20.000Z</time>
      </trkpt>
      <trkpt lat="47.63953" lon="6.05331">
        <ele>273.39999389648</ele>
        <time>2012-08-08T08:33:21.000Z</time>
      </trkpt>
      <trkpt lat="47.63952" lon="6.05323">
        <ele>273</ele>
        <time>2012-08-08T08:33:22.000Z</time>
      </trkpt>
      <trkpt lat="47.6395" lon="6.05315">
        <ele>272.60000610352</ele>
        <time>2012-08-08T08:33:23.000Z</time>
      </trkpt>
      <trkpt lat="47.63943" lon="6.0528">
        <ele>272.60000610352</ele>
        <time>2012-08-08T08:33:27.000Z</time>
      </trkpt>
      <trkpt lat="47.63937" lon="6.0525">
        <ele>272.20001220703</ele>
        <time>2012-08-08T08:33:30.000Z</time>
      </trkpt>
      <trkpt lat="47.63935" lon="6.05239">
        <ele>271.79998779297</ele>
        <time>2012-08-08T08:33:31.000Z</time>
      </trkpt>
      <trkpt lat="47.63933" lon="6.05228">
        <ele>271.39999389648</ele>
        <time>2012-08-08T08:33:32.000Z</time>
      </trkpt>
      <trkpt lat="47.63931" lon="6.05218">
        <ele>271</ele>
        <time>2012-08-08T08:33:33.000Z</time>
      </trkpt>
      <trkpt lat="47.63928" lon="6.05208">
        <ele>270.60000610352</ele>
        <time>2012-08-08T08:33:34.000Z</time>
      </trkpt>
      <trkpt lat="47.63926" lon="6.052">
        <ele>270.60000610352</ele>
        <time>2012-08-08T08:33:35.000Z</time>
      </trkpt>
      <trkpt lat="47.63918" lon="6.0519">
        <ele>270.60000610352</ele>
        <time>2012-08-08T08:33:37.000Z</time>
      </trkpt>
      <trkpt lat="47.63908" lon="6.05187">
        <ele>270.60000610352</ele>
        <time>2012-08-08T08:33:40.000Z</time>
      </trkpt>
      <trkpt lat="47.63905" lon="6.05186">
        <ele>270.60000610352</ele>
        <time>2012-08-08T08:33:41.000Z</time>
      </trkpt>
      <trkpt lat="47.63898" lon="6.05185">
        <ele>270.60000610352</ele>
        <time>2012-08-08T08:33:43.000Z</time>
      </trkpt>
      <trkpt lat="47.63888" lon="6.05182">
        <ele>270.60000610352</ele>
        <time>2012-08-08T08:33:47.000Z</time>
      </trkpt>
      <trkpt lat="47.63866" lon="6.05174">
        <ele>270.60000610352</ele>
        <time>2012-08-08T08:33:55.000Z</time>
      </trkpt>
      <trkpt lat="47.63845" lon="6.05156">
        <ele>270.60000610352</ele>
        <time>2012-08-08T08:34:03.000Z</time>
      </trkpt>
      <trkpt lat="47.63833" lon="6.05135">
        <ele>270.60000610352</ele>
        <time>2012-08-08T08:34:08.000Z</time>
      </trkpt>
      <trkpt lat="47.63831" lon="6.0513">
        <ele>270.60000610352</ele>
        <time>2012-08-08T08:34:09.000Z</time>
      </trkpt>
      <trkpt lat="47.63822" lon="6.05115">
        <ele>270.60000610352</ele>
        <time>2012-08-08T08:34:12.000Z</time>
      </trkpt>
      <trkpt lat="47.63817" lon="6.05108">
        <ele>270.60000610352</ele>
        <time>2012-08-08T08:34:14.000Z</time>
      </trkpt>
      <trkpt lat="47.63801" lon="6.051">
        <ele>270.60000610352</ele>
        <time>2012-08-08T08:34:19.000Z</time>
      </trkpt>
      <trkpt lat="47.63781" lon="6.05096">
        <ele>270.60000610352</ele>
        <time>2012-08-08T08:34:25.000Z</time>
      </trkpt>
      <trkpt lat="47.63757" lon="6.0508">
        <ele>270.60000610352</ele>
        <time>2012-08-08T08:34:33.000Z</time>
      </trkpt>
      <trkpt lat="47.63744" lon="6.05085">
        <ele>270.60000610352</ele>
        <time>2012-08-08T08:34:38.000Z</time>
      </trkpt>
      <trkpt lat="47.63728" lon="6.05101">
        <ele>270.60000610352</ele>
        <time>2012-08-08T08:34:45.000Z</time>
      </trkpt>
      <trkpt lat="47.63713" lon="6.05116">
        <ele>270.60000610352</ele>
        <time>2012-08-08T08:34:50.000Z</time>
      </trkpt>
      <trkpt lat="47.63692" lon="6.05141">
        <ele>270</ele>
        <time>2012-08-08T08:34:56.000Z</time>
      </trkpt>
      <trkpt lat="47.63689" lon="6.05147">
        <ele>269.60000610352</ele>
        <time>2012-08-08T08:34:57.000Z</time>
      </trkpt>
      <trkpt lat="47.63686" lon="6.05152">
        <ele>269.20001220703</ele>
        <time>2012-08-08T08:34:58.000Z</time>
      </trkpt>
      <trkpt lat="47.63684" lon="6.05159">
        <ele>268.79998779297</ele>
        <time>2012-08-08T08:34:59.000Z</time>
      </trkpt>
      <trkpt lat="47.63682" lon="6.05165">
        <ele>268.39999389648</ele>
        <time>2012-08-08T08:35:00.000Z</time>
      </trkpt>
      <trkpt lat="47.6368" lon="6.05172">
        <ele>268.39999389648</ele>
        <time>2012-08-08T08:35:01.000Z</time>
      </trkpt>
      <trkpt lat="47.63676" lon="6.05192">
        <ele>268</ele>
        <time>2012-08-08T08:35:04.000Z</time>
      </trkpt>
      <trkpt lat="47.63674" lon="6.052">
        <ele>267.60000610352</ele>
        <time>2012-08-08T08:35:05.000Z</time>
      </trkpt>
      <trkpt lat="47.63673" lon="6.05207">
        <ele>267.20001220703</ele>
        <time>2012-08-08T08:35:06.000Z</time>
      </trkpt>
      <trkpt lat="47.63671" lon="6.05214">
        <ele>266.79998779297</ele>
        <time>2012-08-08T08:35:07.000Z</time>
      </trkpt>
      <trkpt lat="47.6367" lon="6.05222">
        <ele>266.39999389648</ele>
        <time>2012-08-08T08:35:08.000Z</time>
      </trkpt>
      <trkpt lat="47.63669" lon="6.05228">
        <ele>266.39999389648</ele>
        <time>2012-08-08T08:35:09.000Z</time>
      </trkpt>
      <trkpt lat="47.63666" lon="6.05242">
        <ele>266.39999389648</ele>
        <time>2012-08-08T08:35:11.000Z</time>
      </trkpt>
      <trkpt lat="47.6366" lon="6.05268">
        <ele>266.39999389648</ele>
        <time>2012-08-08T08:35:15.000Z</time>
      </trkpt>
      <trkpt lat="47.63658" lon="6.0528">
        <ele>266.39999389648</ele>
        <time>2012-08-08T08:35:17.000Z</time>
      </trkpt>
      <trkpt lat="47.63657" lon="6.05285">
        <ele>266</ele>
        <time>2012-08-08T08:35:18.000Z</time>
      </trkpt>
      <trkpt lat="47.63656" lon="6.0529">
        <ele>265.60000610352</ele>
        <time>2012-08-08T08:35:19.000Z</time>
      </trkpt>
      <trkpt lat="47.63655" lon="6.05295">
        <ele>265</ele>
        <time>2012-08-08T08:35:20.000Z</time>
      </trkpt>
      <trkpt lat="47.63654" lon="6.05301">
        <ele>264.60000610352</ele>
        <time>2012-08-08T08:35:21.000Z</time>
      </trkpt>
      <trkpt lat="47.63654" lon="6.05305">
        <ele>264.20001220703</ele>
        <time>2012-08-08T08:35:22.000Z</time>
      </trkpt>
      <trkpt lat="47.63654" lon="6.0531">
        <ele>264.20001220703</ele>
        <time>2012-08-08T08:35:23.000Z</time>
      </trkpt>
      <trkpt lat="47.63653" lon="6.05332">
        <ele>264.20001220703</ele>
        <time>2012-08-08T08:35:28.000Z</time>
      </trkpt>
      <trkpt lat="47.63654" lon="6.05352">
        <ele>264.20001220703</ele>
        <time>2012-08-08T08:35:34.000Z</time>
      </trkpt>
      <trkpt lat="47.6366" lon="6.0538">
        <ele>264.20001220703</ele>
        <time>2012-08-08T08:35:42.000Z</time>
      </trkpt>
      <trkpt lat="47.6366" lon="6.05401">
        <ele>264.20001220703</ele>
        <time>2012-08-08T08:35:48.000Z</time>
      </trkpt>
      <trkpt lat="47.63659" lon="6.05417">
        <ele>264.20001220703</ele>
        <time>2012-08-08T08:35:53.000Z</time>
      </trkpt>
      <trkpt lat="47.63655" lon="6.05441">
        <ele>264.20001220703</ele>
        <time>2012-08-08T08:35:58.000Z</time>
      </trkpt>
      <trkpt lat="47.63652" lon="6.05476">
        <ele>264.20001220703</ele>
        <time>2012-08-08T08:36:04.000Z</time>
      </trkpt>
      <trkpt lat="47.6365" lon="6.05492">
        <ele>263.79998779297</ele>
        <time>2012-08-08T08:36:06.000Z</time>
      </trkpt>
      <trkpt lat="47.63649" lon="6.05501">
        <ele>263.39999389648</ele>
        <time>2012-08-08T08:36:07.000Z</time>
      </trkpt>
      <trkpt lat="47.63648" lon="6.0551">
        <ele>263</ele>
        <time>2012-08-08T08:36:08.000Z</time>
      </trkpt>
      <trkpt lat="47.63647" lon="6.05519">
        <ele>262.60000610352</ele>
        <time>2012-08-08T08:36:09.000Z</time>
      </trkpt>
      <trkpt lat="47.63645" lon="6.05528">
        <ele>262.20001220703</ele>
        <time>2012-08-08T08:36:10.000Z</time>
      </trkpt>
      <trkpt lat="47.63641" lon="6.05556">
        <ele>261.79998779297</ele>
        <time>2012-08-08T08:36:13.000Z</time>
      </trkpt>
      <trkpt lat="47.63639" lon="6.05566">
        <ele>261.39999389648</ele>
        <time>2012-08-08T08:36:14.000Z</time>
      </trkpt>
      <trkpt lat="47.63638" lon="6.05576">
        <ele>260.79998779297</ele>
        <time>2012-08-08T08:36:15.000Z</time>
      </trkpt>
      <trkpt lat="47.63636" lon="6.05588">
        <ele>260.20001220703</ele>
        <time>2012-08-08T08:36:16.000Z</time>
      </trkpt>
      <trkpt lat="47.63635" lon="6.05599">
        <ele>259.60000610352</ele>
        <time>2012-08-08T08:36:17.000Z</time>
      </trkpt>
      <trkpt lat="47.63635" lon="6.05612">
        <ele>258.79998779297</ele>
        <time>2012-08-08T08:36:18.000Z</time>
      </trkpt>
      <trkpt lat="47.63636" lon="6.05625">
        <ele>258.20001220703</ele>
        <time>2012-08-08T08:36:19.000Z</time>
      </trkpt>
      <trkpt lat="47.63637" lon="6.05638">
        <ele>257.39999389648</ele>
        <time>2012-08-08T08:36:20.000Z</time>
      </trkpt>
      <trkpt lat="47.63638" lon="6.05652">
        <ele>256.79998779297</ele>
        <time>2012-08-08T08:36:21.000Z</time>
      </trkpt>
      <trkpt lat="47.63639" lon="6.05665">
        <ele>256</ele>
        <time>2012-08-08T08:36:22.000Z</time>
      </trkpt>
      <trkpt lat="47.6364" lon="6.05677">
        <ele>255.39999389648</ele>
        <time>2012-08-08T08:36:23.000Z</time>
      </trkpt>
      <trkpt lat="47.63641" lon="6.0569">
        <ele>254.60000610352</ele>
        <time>2012-08-08T08:36:24.000Z</time>
      </trkpt>
      <trkpt lat="47.63642" lon="6.05703">
        <ele>254</ele>
        <time>2012-08-08T08:36:25.000Z</time>
      </trkpt>
      <trkpt lat="47.63643" lon="6.05716">
        <ele>253.39999389648</ele>
        <time>2012-08-08T08:36:26.000Z</time>
      </trkpt>
      <trkpt lat="47.63644" lon="6.05729">
        <ele>252.80000305176</ele>
        <time>2012-08-08T08:36:27.000Z</time>
      </trkpt>
      <trkpt lat="47.63644" lon="6.05742">
        <ele>252.19999694824</ele>
        <time>2012-08-08T08:36:28.000Z</time>
      </trkpt>
      <trkpt lat="47.63645" lon="6.05755">
        <ele>251.60000610352</ele>
        <time>2012-08-08T08:36:29.000Z</time>
      </trkpt>
      <trkpt lat="47.63646" lon="6.05768">
        <ele>250.39999389648</ele>
        <time>2012-08-08T08:36:30.000Z</time>
      </trkpt>
      <trkpt lat="47.63647" lon="6.05804">
        <ele>250</ele>
        <time>2012-08-08T08:36:33.000Z</time>
      </trkpt>
      <trkpt lat="47.63647" lon="6.05815">
        <ele>249.60000610352</ele>
        <time>2012-08-08T08:36:34.000Z</time>
      </trkpt>
      <trkpt lat="47.63648" lon="6.05826">
        <ele>249.19999694824</ele>
        <time>2012-08-08T08:36:35.000Z</time>
      </trkpt>
      <trkpt lat="47.63648" lon="6.05836">
        <ele>248.80000305176</ele>
        <time>2012-08-08T08:36:36.000Z</time>
      </trkpt>
      <trkpt lat="47.63648" lon="6.05845">
        <ele>248.39999389648</ele>
        <time>2012-08-08T08:36:37.000Z</time>
      </trkpt>
      <trkpt lat="47.63649" lon="6.05868">
        <ele>248.39999389648</ele>
        <time>2012-08-08T08:36:40.000Z</time>
      </trkpt>
      <trkpt lat="47.63649" lon="6.05891">
        <ele>248.39999389648</ele>
        <time>2012-08-08T08:36:45.000Z</time>
      </trkpt>
      <trkpt lat="47.63651" lon="6.05919">
        <ele>248.39999389648</ele>
        <time>2012-08-08T08:36:53.000Z</time>
      </trkpt>
      <trkpt lat="47.63652" lon="6.05925">
        <ele>249.19999694824</ele>
        <time>2012-08-08T08:36:55.000Z</time>
      </trkpt>
      <trkpt lat="47.63653" lon="6.05928">
        <ele>249.60000610352</ele>
        <time>2012-08-08T08:36:56.000Z</time>
      </trkpt>
      <trkpt lat="47.63653" lon="6.05932">
        <ele>250</ele>
        <time>2012-08-08T08:36:57.000Z</time>
      </trkpt>
      <trkpt lat="47.63653" lon="6.05935">
        <ele>250.39999389648</ele>
        <time>2012-08-08T08:36:58.000Z</time>
      </trkpt>
      <trkpt lat="47.63654" lon="6.05941">
        <ele>250.39999389648</ele>
        <time>2012-08-08T08:37:00.000Z</time>
      </trkpt>
      <trkpt lat="47.63655" lon="6.0596">
        <ele>250.39999389648</ele>
        <time>2012-08-08T08:37:07.000Z</time>
      </trkpt>
      <trkpt lat="47.63656" lon="6.05974">
        <ele>250.80000305176</ele>
        <time>2012-08-08T08:37:12.000Z</time>
      </trkpt>
      <trkpt lat="47.63656" lon="6.05976">
        <ele>251.19999694824</ele>
        <time>2012-08-08T08:37:13.000Z</time>
      </trkpt>
      <trkpt lat="47.63656" lon="6.05978">
        <ele>251.80000305176</ele>
        <time>2012-08-08T08:37:14.000Z</time>
      </trkpt>
      <trkpt lat="47.63656" lon="6.05981">
        <ele>252.19999694824</ele>
        <time>2012-08-08T08:37:15.000Z</time>
      </trkpt>
      <trkpt lat="47.63656" lon="6.05984">
        <ele>252.60000610352</ele>
        <time>2012-08-08T08:37:16.000Z</time>
      </trkpt>
      <trkpt lat="47.63656" lon="6.06002">
        <ele>252.60000610352</ele>
        <time>2012-08-08T08:37:21.000Z</time>
      </trkpt>
      <trkpt lat="47.63656" lon="6.06016">
        <ele>253</ele>
        <time>2012-08-08T08:37:26.000Z</time>
      </trkpt>
      <trkpt lat="47.63656" lon="6.06019">
        <ele>253.39999389648</ele>
        <time>2012-08-08T08:37:27.000Z</time>
      </trkpt>
      <trkpt lat="47.63656" lon="6.06021">
        <ele>253.80000305176</ele>
        <time>2012-08-08T08:37:28.000Z</time>
      </trkpt>
      <trkpt lat="47.63656" lon="6.06024">
        <ele>254.19999694824</ele>
        <time>2012-08-08T08:37:29.000Z</time>
      </trkpt>
      <trkpt lat="47.63656" lon="6.06027">
        <ele>254.60000610352</ele>
        <time>2012-08-08T08:37:30.000Z</time>
      </trkpt>
      <trkpt lat="47.63656" lon="6.06039">
        <ele>254.60000610352</ele>
        <time>2012-08-08T08:37:35.000Z</time>
      </trkpt>
      <trkpt lat="47.63656" lon="6.06062">
        <ele>254.60000610352</ele>
        <time>2012-08-08T08:37:42.000Z</time>
      </trkpt>
      <trkpt lat="47.63655" lon="6.06088">
        <ele>254.60000610352</ele>
        <time>2012-08-08T08:37:50.000Z</time>
      </trkpt>
      <trkpt lat="47.63655" lon="6.06101">
        <ele>255</ele>
        <time>2012-08-08T08:37:54.000Z</time>
      </trkpt>
      <trkpt lat="47.63654" lon="6.06104">
        <ele>255.39999389648</ele>
        <time>2012-08-08T08:37:55.000Z</time>
      </trkpt>
      <trkpt lat="47.63654" lon="6.06107">
        <ele>255.80000305176</ele>
        <time>2012-08-08T08:37:56.000Z</time>
      </trkpt>
      <trkpt lat="47.63654" lon="6.0611">
        <ele>256.20001220703</ele>
        <time>2012-08-08T08:37:57.000Z</time>
      </trkpt>
      <trkpt lat="47.63653" lon="6.06113">
        <ele>256.60000610352</ele>
        <time>2012-08-08T08:37:58.000Z</time>
      </trkpt>
      <trkpt lat="47.63652" lon="6.0614">
        <ele>256.60000610352</ele>
        <time>2012-08-08T08:38:07.000Z</time>
      </trkpt>
      <trkpt lat="47.63651" lon="6.06166">
        <ele>256.60000610352</ele>
        <time>2012-08-08T08:38:16.000Z</time>
      </trkpt>
      <trkpt lat="47.63651" lon="6.06187">
        <ele>257</ele>
        <time>2012-08-08T08:38:23.000Z</time>
      </trkpt>
      <trkpt lat="47.63651" lon="6.0619">
        <ele>257.39999389648</ele>
        <time>2012-08-08T08:38:24.000Z</time>
      </trkpt>
      <trkpt lat="47.63651" lon="6.06193">
        <ele>257.79998779297</ele>
        <time>2012-08-08T08:38:25.000Z</time>
      </trkpt>
      <trkpt lat="47.63651" lon="6.06196">
        <ele>258.20001220703</ele>
        <time>2012-08-08T08:38:26.000Z</time>
      </trkpt>
      <trkpt lat="47.63651" lon="6.06199">
        <ele>258.60000610352</ele>
        <time>2012-08-08T08:38:27.000Z</time>
      </trkpt>
      <trkpt lat="47.63651" lon="6.06208">
        <ele>258.60000610352</ele>
        <time>2012-08-08T08:38:30.000Z</time>
      </trkpt>
      <trkpt lat="47.6365" lon="6.06232">
        <ele>258.60000610352</ele>
        <time>2012-08-08T08:38:39.000Z</time>
      </trkpt>
      <trkpt lat="47.63651" lon="6.06241">
        <ele>259</ele>
        <time>2012-08-08T08:38:42.000Z</time>
      </trkpt>
      <trkpt lat="47.63651" lon="6.06245">
        <ele>259.60000610352</ele>
        <time>2012-08-08T08:38:43.000Z</time>
      </trkpt>
      <trkpt lat="47.63651" lon="6.06249">
        <ele>260</ele>
        <time>2012-08-08T08:38:44.000Z</time>
      </trkpt>
      <trkpt lat="47.63652" lon="6.06252">
        <ele>260.39999389648</ele>
        <time>2012-08-08T08:38:45.000Z</time>
      </trkpt>
      <trkpt lat="47.63652" lon="6.06256">
        <ele>260.79998779297</ele>
        <time>2012-08-08T08:38:46.000Z</time>
      </trkpt>
      <trkpt lat="47.63655" lon="6.06274">
        <ele>260.79998779297</ele>
        <time>2012-08-08T08:38:52.000Z</time>
      </trkpt>
      <trkpt lat="47.63657" lon="6.06284">
        <ele>261.20001220703</ele>
        <time>2012-08-08T08:38:55.000Z</time>
      </trkpt>
      <trkpt lat="47.63658" lon="6.06288">
        <ele>261.60000610352</ele>
        <time>2012-08-08T08:38:56.000Z</time>
      </trkpt>
      <trkpt lat="47.63659" lon="6.06291">
        <ele>262</ele>
        <time>2012-08-08T08:38:57.000Z</time>
      </trkpt>
      <trkpt lat="47.6366" lon="6.06293">
        <ele>262.79998779297</ele>
        <time>2012-08-08T08:38:58.000Z</time>
      </trkpt>
      <trkpt lat="47.6366" lon="6.06296">
        <ele>262.79998779297</ele>
        <time>2012-08-08T08:38:59.000Z</time>
      </trkpt>
      <trkpt lat="47.63665" lon="6.06312">
        <ele>262.79998779297</ele>
        <time>2012-08-08T08:39:05.000Z</time>
      </trkpt>
      <trkpt lat="47.63666" lon="6.06315">
        <ele>263.20001220703</ele>
        <time>2012-08-08T08:39:06.000Z</time>
      </trkpt>
      <trkpt lat="47.63667" lon="6.06318">
        <ele>263.79998779297</ele>
        <time>2012-08-08T08:39:07.000Z</time>
      </trkpt>
      <trkpt lat="47.63668" lon="6.06321">
        <ele>264.20001220703</ele>
        <time>2012-08-08T08:39:08.000Z</time>
      </trkpt>
      <trkpt lat="47.63669" lon="6.06323">
        <ele>264.60000610352</ele>
        <time>2012-08-08T08:39:09.000Z</time>
      </trkpt>
      <trkpt lat="47.63669" lon="6.06326">
        <ele>265</ele>
        <time>2012-08-08T08:39:10.000Z</time>
      </trkpt>
      <trkpt lat="47.6367" lon="6.06329">
        <ele>265</ele>
        <time>2012-08-08T08:39:11.000Z</time>
      </trkpt>
      <trkpt lat="47.63676" lon="6.06354">
        <ele>265</ele>
        <time>2012-08-08T08:39:18.000Z</time>
      </trkpt>
      <trkpt lat="47.63682" lon="6.06374">
        <ele>265.39999389648</ele>
        <time>2012-08-08T08:39:23.000Z</time>
      </trkpt>
      <trkpt lat="47.63683" lon="6.06378">
        <ele>265.79998779297</ele>
        <time>2012-08-08T08:39:24.000Z</time>
      </trkpt>
      <trkpt lat="47.63684" lon="6.06382">
        <ele>266.20001220703</ele>
        <time>2012-08-08T08:39:25.000Z</time>
      </trkpt>
      <trkpt lat="47.63685" lon="6.06385">
        <ele>266.60000610352</ele>
        <time>2012-08-08T08:39:26.000Z</time>
      </trkpt>
      <trkpt lat="47.63687" lon="6.06389">
        <ele>267</ele>
        <time>2012-08-08T08:39:27.000Z</time>
      </trkpt>
      <trkpt lat="47.63694" lon="6.06414">
        <ele>267</ele>
        <time>2012-08-08T08:39:34.000Z</time>
      </trkpt>
      <trkpt lat="47.63705" lon="6.06442">
        <ele>267.39999389648</ele>
        <time>2012-08-08T08:39:43.000Z</time>
      </trkpt>
      <trkpt lat="47.63706" lon="6.06444">
        <ele>267.79998779297</ele>
        <time>2012-08-08T08:39:44.000Z</time>
      </trkpt>
      <trkpt lat="47.63707" lon="6.06447">
        <ele>268.20001220703</ele>
        <time>2012-08-08T08:39:45.000Z</time>
      </trkpt>
      <trkpt lat="47.63708" lon="6.06449">
        <ele>268.60000610352</ele>
        <time>2012-08-08T08:39:46.000Z</time>
      </trkpt>
      <trkpt lat="47.63709" lon="6.06452">
        <ele>269.20001220703</ele>
        <time>2012-08-08T08:39:47.000Z</time>
      </trkpt>
      <trkpt lat="47.63714" lon="6.06467">
        <ele>269.20001220703</ele>
        <time>2012-08-08T08:39:52.000Z</time>
      </trkpt>
      <trkpt lat="47.63722" lon="6.06488">
        <ele>269.20001220703</ele>
        <time>2012-08-08T08:39:59.000Z</time>
      </trkpt>
      <trkpt lat="47.63724" lon="6.065">
        <ele>269.20001220703</ele>
        <time>2012-08-08T08:40:05.000Z</time>
      </trkpt>
      <trkpt lat="47.63725" lon="6.065">
        <ele>269.20001220703</ele>
        <time>2012-08-08T08:40:06.000Z</time>
      </trkpt>
      <trkpt lat="47.63723" lon="6.06501">
        <ele>269.20001220703</ele>
        <time>2012-08-08T08:41:02.000Z</time>
      </trkpt>
      <trkpt lat="47.6372" lon="6.06501">
        <ele>269.20001220703</ele>
        <time>2012-08-08T08:41:04.000Z</time>
      </trkpt>
      <trkpt lat="47.63713" lon="6.06502">
        <ele>269.20001220703</ele>
        <time>2012-08-08T08:41:07.000Z</time>
      </trkpt>
      <trkpt lat="47.63705" lon="6.06505">
        <ele>269.20001220703</ele>
        <time>2012-08-08T08:41:10.000Z</time>
      </trkpt>
      <trkpt lat="47.63685" lon="6.06511">
        <ele>269.20001220703</ele>
        <time>2012-08-08T08:41:18.000Z</time>
      </trkpt>
      <trkpt lat="47.63666" lon="6.06517">
        <ele>269.20001220703</ele>
        <time>2012-08-08T08:41:25.000Z</time>
      </trkpt>
      <trkpt lat="47.63648" lon="6.06522">
        <ele>269.20001220703</ele>
        <time>2012-08-08T08:41:32.000Z</time>
      </trkpt>
      <trkpt lat="47.6363" lon="6.06528">
        <ele>269.20001220703</ele>
        <time>2012-08-08T08:41:38.000Z</time>
      </trkpt>
      <trkpt lat="47.63605" lon="6.06534">
        <ele>269.20001220703</ele>
        <time>2012-08-08T08:41:46.000Z</time>
      </trkpt>
      <trkpt lat="47.6358" lon="6.06539">
        <ele>268.79998779297</ele>
        <time>2012-08-08T08:41:53.000Z</time>
      </trkpt>
      <trkpt lat="47.63577" lon="6.06539">
        <ele>268.20001220703</ele>
        <time>2012-08-08T08:41:54.000Z</time>
      </trkpt>
      <trkpt lat="47.63573" lon="6.0654">
        <ele>267.79998779297</ele>
        <time>2012-08-08T08:41:55.000Z</time>
      </trkpt>
      <trkpt lat="47.6357" lon="6.0654">
        <ele>267.39999389648</ele>
        <time>2012-08-08T08:41:56.000Z</time>
      </trkpt>
      <trkpt lat="47.63567" lon="6.0654">
        <ele>267</ele>
        <time>2012-08-08T08:41:57.000Z</time>
      </trkpt>
      <trkpt lat="47.6356" lon="6.06541">
        <ele>267</ele>
        <time>2012-08-08T08:41:59.000Z</time>
      </trkpt>
      <trkpt lat="47.63529" lon="6.06542">
        <ele>267</ele>
        <time>2012-08-08T08:42:08.000Z</time>
      </trkpt>
      <trkpt lat="47.63506" lon="6.06542">
        <ele>267</ele>
        <time>2012-08-08T08:42:14.000Z</time>
      </trkpt>
      <trkpt lat="47.63481" lon="6.06539">
        <ele>267</ele>
        <time>2012-08-08T08:42:20.000Z</time>
      </trkpt>
      <trkpt lat="47.63477" lon="6.06538">
        <ele>266.60000610352</ele>
        <time>2012-08-08T08:42:21.000Z</time>
      </trkpt>
      <trkpt lat="47.63472" lon="6.06537">
        <ele>266.20001220703</ele>
        <time>2012-08-08T08:42:22.000Z</time>
      </trkpt>
      <trkpt lat="47.63468" lon="6.06536">
        <ele>265.79998779297</ele>
        <time>2012-08-08T08:42:23.000Z</time>
      </trkpt>
      <trkpt lat="47.63463" lon="6.06536">
        <ele>265.39999389648</ele>
        <time>2012-08-08T08:42:24.000Z</time>
      </trkpt>
      <trkpt lat="47.63458" lon="6.06535">
        <ele>265</ele>
        <time>2012-08-08T08:42:25.000Z</time>
      </trkpt>
      <trkpt lat="47.63449" lon="6.06534">
        <ele>265</ele>
        <time>2012-08-08T08:42:27.000Z</time>
      </trkpt>
      <trkpt lat="47.63416" lon="6.06529">
        <ele>265</ele>
        <time>2012-08-08T08:42:34.000Z</time>
      </trkpt>
      <trkpt lat="47.63407" lon="6.06529">
        <ele>264.60000610352</ele>
        <time>2012-08-08T08:42:36.000Z</time>
      </trkpt>
      <trkpt lat="47.63402" lon="6.06528">
        <ele>264</ele>
        <time>2012-08-08T08:42:37.000Z</time>
      </trkpt>
      <trkpt lat="47.63397" lon="6.06528">
        <ele>263.60000610352</ele>
        <time>2012-08-08T08:42:38.000Z</time>
      </trkpt>
      <trkpt lat="47.63393" lon="6.06528">
        <ele>263.20001220703</ele>
        <time>2012-08-08T08:42:39.000Z</time>
      </trkpt>
      <trkpt lat="47.63388" lon="6.06528">
        <ele>262.79998779297</ele>
        <time>2012-08-08T08:42:40.000Z</time>
      </trkpt>
      <trkpt lat="47.63384" lon="6.06528">
        <ele>262.79998779297</ele>
        <time>2012-08-08T08:42:41.000Z</time>
      </trkpt>
      <trkpt lat="47.63353" lon="6.06536">
        <ele>262.79998779297</ele>
        <time>2012-08-08T08:42:48.000Z</time>
      </trkpt>
      <trkpt lat="47.63336" lon="6.06539">
        <ele>262.39999389648</ele>
        <time>2012-08-08T08:42:52.000Z</time>
      </trkpt>
      <trkpt lat="47.63331" lon="6.06541">
        <ele>262</ele>
        <time>2012-08-08T08:42:53.000Z</time>
      </trkpt>
      <trkpt lat="47.63327" lon="6.06542">
        <ele>261.60000610352</ele>
        <time>2012-08-08T08:42:54.000Z</time>
      </trkpt>
      <trkpt lat="47.63323" lon="6.06543">
        <ele>261.20001220703</ele>
        <time>2012-08-08T08:42:55.000Z</time>
      </trkpt>
      <trkpt lat="47.63318" lon="6.06544">
        <ele>260.79998779297</ele>
        <time>2012-08-08T08:42:56.000Z</time>
      </trkpt>
      <trkpt lat="47.63289" lon="6.06553">
        <ele>260.79998779297</ele>
        <time>2012-08-08T08:43:03.000Z</time>
      </trkpt>
      <trkpt lat="47.63255" lon="6.06558">
        <ele>260.79998779297</ele>
        <time>2012-08-08T08:43:11.000Z</time>
      </trkpt>
      <trkpt lat="47.63246" lon="6.06557">
        <ele>260.20001220703</ele>
        <time>2012-08-08T08:43:13.000Z</time>
      </trkpt>
      <trkpt lat="47.63242" lon="6.06558">
        <ele>259.79998779297</ele>
        <time>2012-08-08T08:43:14.000Z</time>
      </trkpt>
      <trkpt lat="47.63238" lon="6.06558">
        <ele>259.39999389648</ele>
        <time>2012-08-08T08:43:15.000Z</time>
      </trkpt>
      <trkpt lat="47.63234" lon="6.06559">
        <ele>259</ele>
        <time>2012-08-08T08:43:16.000Z</time>
      </trkpt>
      <trkpt lat="47.6323" lon="6.0656">
        <ele>258.60000610352</ele>
        <time>2012-08-08T08:43:17.000Z</time>
      </trkpt>
      <trkpt lat="47.63205" lon="6.0656">
        <ele>258.60000610352</ele>
        <time>2012-08-08T08:43:23.000Z</time>
      </trkpt>
      <trkpt lat="47.63173" lon="6.06562">
        <ele>258.60000610352</ele>
        <time>2012-08-08T08:43:31.000Z</time>
      </trkpt>
      <trkpt lat="47.63154" lon="6.0657">
        <ele>258.60000610352</ele>
        <time>2012-08-08T08:43:36.000Z</time>
      </trkpt>
      <trkpt lat="47.63149" lon="6.06572">
        <ele>258.20001220703</ele>
        <time>2012-08-08T08:43:37.000Z</time>
      </trkpt>
      <trkpt lat="47.63145" lon="6.06575">
        <ele>257.79998779297</ele>
        <time>2012-08-08T08:43:38.000Z</time>
      </trkpt>
      <trkpt lat="47.63141" lon="6.06577">
        <ele>257.39999389648</ele>
        <time>2012-08-08T08:43:39.000Z</time>
      </trkpt>
      <trkpt lat="47.63137" lon="6.0658">
        <ele>257</ele>
        <time>2012-08-08T08:43:40.000Z</time>
      </trkpt>
      <trkpt lat="47.63133" lon="6.06585">
        <ele>256.60000610352</ele>
        <time>2012-08-08T08:43:41.000Z</time>
      </trkpt>
      <trkpt lat="47.63126" lon="6.06596">
        <ele>256.60000610352</ele>
        <time>2012-08-08T08:43:43.000Z</time>
      </trkpt>
      <trkpt lat="47.63113" lon="6.0662">
        <ele>256.20001220703</ele>
        <time>2012-08-08T08:43:47.000Z</time>
      </trkpt>
      <trkpt lat="47.63109" lon="6.06624">
        <ele>255.80000305176</ele>
        <time>2012-08-08T08:43:48.000Z</time>
      </trkpt>
      <trkpt lat="47.63104" lon="6.06629">
        <ele>255.39999389648</ele>
        <time>2012-08-08T08:43:49.000Z</time>
      </trkpt>
      <trkpt lat="47.63101" lon="6.06632">
        <ele>254.80000305176</ele>
        <time>2012-08-08T08:43:50.000Z</time>
      </trkpt>
      <trkpt lat="47.63097" lon="6.06634">
        <ele>254.39999389648</ele>
        <time>2012-08-08T08:43:51.000Z</time>
      </trkpt>
      <trkpt lat="47.63093" lon="6.06636">
        <ele>254.39999389648</ele>
        <time>2012-08-08T08:43:52.000Z</time>
      </trkpt>
      <trkpt lat="47.63089" lon="6.06637">
        <ele>254</ele>
        <time>2012-08-08T08:43:53.000Z</time>
      </trkpt>
      <trkpt lat="47.63084" lon="6.06639">
        <ele>253.60000610352</ele>
        <time>2012-08-08T08:43:54.000Z</time>
      </trkpt>
      <trkpt lat="47.6308" lon="6.0664">
        <ele>252.80000305176</ele>
        <time>2012-08-08T08:43:55.000Z</time>
      </trkpt>
      <trkpt lat="47.63076" lon="6.06641">
        <ele>252.39999389648</ele>
        <time>2012-08-08T08:43:56.000Z</time>
      </trkpt>
      <trkpt lat="47.63064" lon="6.06641">
        <ele>252.39999389648</ele>
        <time>2012-08-08T08:43:59.000Z</time>
      </trkpt>
      <trkpt lat="47.63047" lon="6.0664">
        <ele>251.80000305176</ele>
        <time>2012-08-08T08:44:03.000Z</time>
      </trkpt>
      <trkpt lat="47.63042" lon="6.06638">
        <ele>251.39999389648</ele>
        <time>2012-08-08T08:44:04.000Z</time>
      </trkpt>
      <trkpt lat="47.63038" lon="6.06638">
        <ele>251</ele>
        <time>2012-08-08T08:44:05.000Z</time>
      </trkpt>
      <trkpt lat="47.63033" lon="6.06637">
        <ele>250.60000610352</ele>
        <time>2012-08-08T08:44:06.000Z</time>
      </trkpt>
      <trkpt lat="47.63029" lon="6.06636">
        <ele>250.19999694824</ele>
        <time>2012-08-08T08:44:07.000Z</time>
      </trkpt>
      <trkpt lat="47.63008" lon="6.06633">
        <ele>250.19999694824</ele>
        <time>2012-08-08T08:44:11.000Z</time>
      </trkpt>
      <trkpt lat="47.62985" lon="6.06629">
        <ele>249.80000305176</ele>
        <time>2012-08-08T08:44:15.000Z</time>
      </trkpt>
      <trkpt lat="47.6298" lon="6.06627">
        <ele>249.39999389648</ele>
        <time>2012-08-08T08:44:16.000Z</time>
      </trkpt>
      <trkpt lat="47.62975" lon="6.06626">
        <ele>249</ele>
        <time>2012-08-08T08:44:17.000Z</time>
      </trkpt>
      <trkpt lat="47.6297" lon="6.06626">
        <ele>248.60000610352</ele>
        <time>2012-08-08T08:44:18.000Z</time>
      </trkpt>
      <trkpt lat="47.62965" lon="6.06625">
        <ele>248.19999694824</ele>
        <time>2012-08-08T08:44:19.000Z</time>
      </trkpt>
      <trkpt lat="47.62949" lon="6.06627">
        <ele>248.19999694824</ele>
        <time>2012-08-08T08:44:22.000Z</time>
      </trkpt>
      <trkpt lat="47.62944" lon="6.06629">
        <ele>248.19999694824</ele>
        <time>2012-08-08T08:44:23.000Z</time>
      </trkpt>
      <trkpt lat="47.62939" lon="6.06632">
        <ele>247.80000305176</ele>
        <time>2012-08-08T08:44:24.000Z</time>
      </trkpt>
      <trkpt lat="47.62934" lon="6.06634">
        <ele>247.19999694824</ele>
        <time>2012-08-08T08:44:25.000Z</time>
      </trkpt>
      <trkpt lat="47.62929" lon="6.06636">
        <ele>246.80000305176</ele>
        <time>2012-08-08T08:44:26.000Z</time>
      </trkpt>
      <trkpt lat="47.62924" lon="6.06638">
        <ele>246.39999389648</ele>
        <time>2012-08-08T08:44:27.000Z</time>
      </trkpt>
      <trkpt lat="47.62918" lon="6.06641">
        <ele>245.80000305176</ele>
        <time>2012-08-08T08:44:28.000Z</time>
      </trkpt>
      <trkpt lat="47.62912" lon="6.06643">
        <ele>245.39999389648</ele>
        <time>2012-08-08T08:44:29.000Z</time>
      </trkpt>
      <trkpt lat="47.62906" lon="6.06643">
        <ele>245</ele>
        <time>2012-08-08T08:44:30.000Z</time>
      </trkpt>
      <trkpt lat="47.629" lon="6.06643">
        <ele>244.39999389648</ele>
        <time>2012-08-08T08:44:31.000Z</time>
      </trkpt>
      <trkpt lat="47.62894" lon="6.06641">
        <ele>244</ele>
        <time>2012-08-08T08:44:32.000Z</time>
      </trkpt>
      <trkpt lat="47.62888" lon="6.06638">
        <ele>243.39999389648</ele>
        <time>2012-08-08T08:44:33.000Z</time>
      </trkpt>
      <trkpt lat="47.62882" lon="6.06636">
        <ele>243</ele>
        <time>2012-08-08T08:44:34.000Z</time>
      </trkpt>
      <trkpt lat="47.62875" lon="6.06633">
        <ele>242.39999389648</ele>
        <time>2012-08-08T08:44:35.000Z</time>
      </trkpt>
      <trkpt lat="47.62868" lon="6.0663">
        <ele>241.80000305176</ele>
        <time>2012-08-08T08:44:36.000Z</time>
      </trkpt>
      <trkpt lat="47.62861" lon="6.06627">
        <ele>241.39999389648</ele>
        <time>2012-08-08T08:44:37.000Z</time>
      </trkpt>
      <trkpt lat="47.62855" lon="6.06624">
        <ele>240.80000305176</ele>
        <time>2012-08-08T08:44:38.000Z</time>
      </trkpt>
      <trkpt lat="47.62849" lon="6.06621">
        <ele>240.39999389648</ele>
        <time>2012-08-08T08:44:39.000Z</time>
      </trkpt>
      <trkpt lat="47.62843" lon="6.06617">
        <ele>239.80000305176</ele>
        <time>2012-08-08T08:44:40.000Z</time>
      </trkpt>
      <trkpt lat="47.62837" lon="6.06612">
        <ele>239.39999389648</ele>
        <time>2012-08-08T08:44:41.000Z</time>
      </trkpt>
      <trkpt lat="47.62832" lon="6.06607">
        <ele>238.80000305176</ele>
        <time>2012-08-08T08:44:42.000Z</time>
      </trkpt>
      <trkpt lat="47.62826" lon="6.06603">
        <ele>238.19999694824</ele>
        <time>2012-08-08T08:44:43.000Z</time>
      </trkpt>
      <trkpt lat="47.62822" lon="6.06597">
        <ele>237</ele>
        <time>2012-08-08T08:44:44.000Z</time>
      </trkpt>
      <trkpt lat="47.62817" lon="6.06591">
        <ele>236.39999389648</ele>
        <time>2012-08-08T08:44:45.000Z</time>
      </trkpt>
      <trkpt lat="47.62813" lon="6.06585">
        <ele>235.60000610352</ele>
        <time>2012-08-08T08:44:46.000Z</time>
      </trkpt>
      <trkpt lat="47.62809" lon="6.0658">
        <ele>235</ele>
        <time>2012-08-08T08:44:47.000Z</time>
      </trkpt>
      <trkpt lat="47.62805" lon="6.06574">
        <ele>234.19999694824</ele>
        <time>2012-08-08T08:44:48.000Z</time>
      </trkpt>
      <trkpt lat="47.628" lon="6.06568">
        <ele>233.39999389648</ele>
        <time>2012-08-08T08:44:49.000Z</time>
      </trkpt>
      <trkpt lat="47.62795" lon="6.06562">
        <ele>232.60000610352</ele>
        <time>2012-08-08T08:44:50.000Z</time>
      </trkpt>
      <trkpt lat="47.62791" lon="6.06557">
        <ele>232</ele>
        <time>2012-08-08T08:44:51.000Z</time>
      </trkpt>
      <trkpt lat="47.62787" lon="6.06552">
        <ele>231.39999389648</ele>
        <time>2012-08-08T08:44:52.000Z</time>
      </trkpt>
      <trkpt lat="47.62783" lon="6.06547">
        <ele>230.80000305176</ele>
        <time>2012-08-08T08:44:53.000Z</time>
      </trkpt>
      <trkpt lat="47.62779" lon="6.06542">
        <ele>230</ele>
        <time>2012-08-08T08:44:54.000Z</time>
      </trkpt>
      <trkpt lat="47.62775" lon="6.06537">
        <ele>229.60000610352</ele>
        <time>2012-08-08T08:44:55.000Z</time>
      </trkpt>
      <trkpt lat="47.62771" lon="6.06532">
        <ele>229</ele>
        <time>2012-08-08T08:44:56.000Z</time>
      </trkpt>
      <trkpt lat="47.62767" lon="6.06528">
        <ele>228.39999389648</ele>
        <time>2012-08-08T08:44:57.000Z</time>
      </trkpt>
      <trkpt lat="47.62763" lon="6.06523">
        <ele>228</ele>
        <time>2012-08-08T08:44:58.000Z</time>
      </trkpt>
      <trkpt lat="47.62759" lon="6.06519">
        <ele>227.39999389648</ele>
        <time>2012-08-08T08:44:59.000Z</time>
      </trkpt>
      <trkpt lat="47.62755" lon="6.06514">
        <ele>227.39999389648</ele>
        <time>2012-08-08T08:45:00.000Z</time>
      </trkpt>
      <trkpt lat="47.6274" lon="6.06493">
        <ele>227</ele>
        <time>2012-08-08T08:45:04.000Z</time>
      </trkpt>
      <trkpt lat="47.62736" lon="6.06487">
        <ele>226.60000610352</ele>
        <time>2012-08-08T08:45:05.000Z</time>
      </trkpt>
      <trkpt lat="47.62732" lon="6.06481">
        <ele>226.19999694824</ele>
        <time>2012-08-08T08:45:06.000Z</time>
      </trkpt>
      <trkpt lat="47.62728" lon="6.06476">
        <ele>225.80000305176</ele>
        <time>2012-08-08T08:45:07.000Z</time>
      </trkpt>
      <trkpt lat="47.62723" lon="6.06471">
        <ele>225.19999694824</ele>
        <time>2012-08-08T08:45:08.000Z</time>
      </trkpt>
      <trkpt lat="47.62705" lon="6.06448">
        <ele>225.19999694824</ele>
        <time>2012-08-08T08:45:12.000Z</time>
      </trkpt>
      <trkpt lat="47.62673" lon="6.0641">
        <ele>225.19999694824</ele>
        <time>2012-08-08T08:45:19.000Z</time>
      </trkpt>
      <trkpt lat="47.62661" lon="6.06397">
        <ele>225.19999694824</ele>
        <time>2012-08-08T08:45:22.000Z</time>
      </trkpt>
      <trkpt lat="47.62645" lon="6.06379">
        <ele>225.19999694824</ele>
        <time>2012-08-08T08:45:26.000Z</time>
      </trkpt>
      <trkpt lat="47.62621" lon="6.06354">
        <ele>225.19999694824</ele>
        <time>2012-08-08T08:45:32.000Z</time>
      </trkpt>
      <trkpt lat="47.62613" lon="6.06346">
        <ele>225.19999694824</ele>
        <time>2012-08-08T08:45:34.000Z</time>
      </trkpt>
      <trkpt lat="47.62592" lon="6.06324">
        <ele>225.19999694824</ele>
        <time>2012-08-08T08:45:40.000Z</time>
      </trkpt>
      <trkpt lat="47.62568" lon="6.06298">
        <ele>225.19999694824</ele>
        <time>2012-08-08T08:45:48.000Z</time>
      </trkpt>
      <trkpt lat="47.62545" lon="6.06276">
        <ele>225.19999694824</ele>
        <time>2012-08-08T08:45:56.000Z</time>
      </trkpt>
      <trkpt lat="47.62523" lon="6.06249">
        <ele>225.19999694824</ele>
        <time>2012-08-08T08:46:04.000Z</time>
      </trkpt>
      <trkpt lat="47.62521" lon="6.06228">
        <ele>225.80000305176</ele>
        <time>2012-08-08T08:46:08.000Z</time>
      </trkpt>
      <trkpt lat="47.62522" lon="6.06224">
        <ele>226.19999694824</ele>
        <time>2012-08-08T08:46:09.000Z</time>
      </trkpt>
      <trkpt lat="47.62524" lon="6.06221">
        <ele>226.60000610352</ele>
        <time>2012-08-08T08:46:10.000Z</time>
      </trkpt>
      <trkpt lat="47.62526" lon="6.06218">
        <ele>227</ele>
        <time>2012-08-08T08:46:11.000Z</time>
      </trkpt>
      <trkpt lat="47.62529" lon="6.06214">
        <ele>227.60000610352</ele>
        <time>2012-08-08T08:46:12.000Z</time>
      </trkpt>
      <trkpt lat="47.62544" lon="6.06196">
        <ele>227.60000610352</ele>
        <time>2012-08-08T08:46:19.000Z</time>
      </trkpt>
      <trkpt lat="47.62553" lon="6.06185">
        <ele>228</ele>
        <time>2012-08-08T08:46:23.000Z</time>
      </trkpt>
      <trkpt lat="47.62555" lon="6.06181">
        <ele>228.39999389648</ele>
        <time>2012-08-08T08:46:24.000Z</time>
      </trkpt>
      <trkpt lat="47.62557" lon="6.06178">
        <ele>228.80000305176</ele>
        <time>2012-08-08T08:46:25.000Z</time>
      </trkpt>
      <trkpt lat="47.6256" lon="6.06176">
        <ele>229.19999694824</ele>
        <time>2012-08-08T08:46:26.000Z</time>
      </trkpt>
      <trkpt lat="47.62562" lon="6.06173">
        <ele>229.60000610352</ele>
        <time>2012-08-08T08:46:27.000Z</time>
      </trkpt>
      <trkpt lat="47.62564" lon="6.0617">
        <ele>229.60000610352</ele>
        <time>2012-08-08T08:46:28.000Z</time>
      </trkpt>
      <trkpt lat="47.62585" lon="6.06148">
        <ele>229.60000610352</ele>
        <time>2012-08-08T08:46:37.000Z</time>
      </trkpt>
      <trkpt lat="47.62606" lon="6.06133">
        <ele>229.60000610352</ele>
        <time>2012-08-08T08:46:45.000Z</time>
      </trkpt>
      <trkpt lat="47.62636" lon="6.06114">
        <ele>229.60000610352</ele>
        <time>2012-08-08T08:46:56.000Z</time>
      </trkpt>
      <trkpt lat="47.62651" lon="6.06106">
        <ele>230</ele>
        <time>2012-08-08T08:47:02.000Z</time>
      </trkpt>
      <trkpt lat="47.62654" lon="6.06104">
        <ele>230.39999389648</ele>
        <time>2012-08-08T08:47:03.000Z</time>
      </trkpt>
      <trkpt lat="47.62656" lon="6.06102">
        <ele>230.80000305176</ele>
        <time>2012-08-08T08:47:04.000Z</time>
      </trkpt>
      <trkpt lat="47.62659" lon="6.061">
        <ele>231.19999694824</ele>
        <time>2012-08-08T08:47:05.000Z</time>
      </trkpt>
      <trkpt lat="47.62661" lon="6.06098">
        <ele>231.60000610352</ele>
        <time>2012-08-08T08:47:06.000Z</time>
      </trkpt>
      <trkpt lat="47.62677" lon="6.06083">
        <ele>231.60000610352</ele>
        <time>2012-08-08T08:47:13.000Z</time>
      </trkpt>
      <trkpt lat="47.62696" lon="6.06061">
        <ele>231.60000610352</ele>
        <time>2012-08-08T08:47:21.000Z</time>
      </trkpt>
      <trkpt lat="47.62715" lon="6.06037">
        <ele>231.60000610352</ele>
        <time>2012-08-08T08:47:29.000Z</time>
      </trkpt>
      <trkpt lat="47.62738" lon="6.06009">
        <ele>231.60000610352</ele>
        <time>2012-08-08T08:47:38.000Z</time>
      </trkpt>
      <trkpt lat="47.62757" lon="6.05988">
        <ele>231.60000610352</ele>
        <time>2012-08-08T08:47:44.000Z</time>
      </trkpt>
      <trkpt lat="47.62777" lon="6.05967">
        <ele>231.60000610352</ele>
        <time>2012-08-08T08:47:50.000Z</time>
      </trkpt>
      <trkpt lat="47.62808" lon="6.05935">
        <ele>231.60000610352</ele>
        <time>2012-08-08T08:47:59.000Z</time>
      </trkpt>
      <trkpt lat="47.62819" lon="6.05921">
        <ele>231.60000610352</ele>
        <time>2012-08-08T08:48:02.000Z</time>
      </trkpt>
      <trkpt lat="47.62832" lon="6.05903">
        <ele>231.60000610352</ele>
        <time>2012-08-08T08:48:06.000Z</time>
      </trkpt>
      <trkpt lat="47.62855" lon="6.05858">
        <ele>231.60000610352</ele>
        <time>2012-08-08T08:48:14.000Z</time>
      </trkpt>
      <trkpt lat="47.62876" lon="6.05819">
        <ele>231.19999694824</ele>
        <time>2012-08-08T08:48:20.000Z</time>
      </trkpt>
      <trkpt lat="47.6288" lon="6.05812">
        <ele>230.80000305176</ele>
        <time>2012-08-08T08:48:21.000Z</time>
      </trkpt>
      <trkpt lat="47.62884" lon="6.05806">
        <ele>230.39999389648</ele>
        <time>2012-08-08T08:48:22.000Z</time>
      </trkpt>
      <trkpt lat="47.62888" lon="6.05799">
        <ele>230</ele>
        <time>2012-08-08T08:48:23.000Z</time>
      </trkpt>
      <trkpt lat="47.62892" lon="6.05793">
        <ele>229.60000610352</ele>
        <time>2012-08-08T08:48:24.000Z</time>
      </trkpt>
      <trkpt lat="47.62912" lon="6.05762">
        <ele>229.60000610352</ele>
        <time>2012-08-08T08:48:29.000Z</time>
      </trkpt>
      <trkpt lat="47.62928" lon="6.05729">
        <ele>229.60000610352</ele>
        <time>2012-08-08T08:48:34.000Z</time>
      </trkpt>
      <trkpt lat="47.62927" lon="6.0572">
        <ele>229.60000610352</ele>
        <time>2012-08-08T08:48:35.000Z</time>
      </trkpt>
      <trkpt lat="47.62924" lon="6.05679">
        <ele>229.60000610352</ele>
        <time>2012-08-08T08:48:41.000Z</time>
      </trkpt>
      <trkpt lat="47.62913" lon="6.05639">
        <ele>229.60000610352</ele>
        <time>2012-08-08T08:48:47.000Z</time>
      </trkpt>
      <trkpt lat="47.6291" lon="6.05622">
        <ele>229.19999694824</ele>
        <time>2012-08-08T08:48:49.000Z</time>
      </trkpt>
      <trkpt lat="47.62909" lon="6.05614">
        <ele>228.80000305176</ele>
        <time>2012-08-08T08:48:50.000Z</time>
      </trkpt>
      <trkpt lat="47.62909" lon="6.05604">
        <ele>228</ele>
        <time>2012-08-08T08:48:51.000Z</time>
      </trkpt>
      <trkpt lat="47.62909" lon="6.05593">
        <ele>227.60000610352</ele>
        <time>2012-08-08T08:48:52.000Z</time>
      </trkpt>
      <trkpt lat="47.62909" lon="6.05559">
        <ele>227.19999694824</ele>
        <time>2012-08-08T08:48:55.000Z</time>
      </trkpt>
      <trkpt lat="47.62908" lon="6.05548">
        <ele>226.60000610352</ele>
        <time>2012-08-08T08:48:56.000Z</time>
      </trkpt>
      <trkpt lat="47.62908" lon="6.05537">
        <ele>226.19999694824</ele>
        <time>2012-08-08T08:48:57.000Z</time>
      </trkpt>
      <trkpt lat="47.62908" lon="6.05527">
        <ele>225.80000305176</ele>
        <time>2012-08-08T08:48:58.000Z</time>
      </trkpt>
      <trkpt lat="47.62908" lon="6.05517">
        <ele>225.39999389648</ele>
        <time>2012-08-08T08:48:59.000Z</time>
      </trkpt>
      <trkpt lat="47.62904" lon="6.05479">
        <ele>225.39999389648</ele>
        <time>2012-08-08T08:49:03.000Z</time>
      </trkpt>
      <trkpt lat="47.62895" lon="6.05442">
        <ele>225.39999389648</ele>
        <time>2012-08-08T08:49:08.000Z</time>
      </trkpt>
      <trkpt lat="47.62893" lon="6.05435">
        <ele>225.39999389648</ele>
        <time>2012-08-08T08:49:09.000Z</time>
      </trkpt>
      <trkpt lat="47.62885" lon="6.05411">
        <ele>225.39999389648</ele>
        <time>2012-08-08T08:49:13.000Z</time>
      </trkpt>
      <trkpt lat="47.62883" lon="6.05406">
        <ele>225.39999389648</ele>
        <time>2012-08-08T08:49:14.000Z</time>
      </trkpt>
      <trkpt lat="47.62873" lon="6.05376">
        <ele>225.39999389648</ele>
        <time>2012-08-08T08:49:19.000Z</time>
      </trkpt>
      <trkpt lat="47.62872" lon="6.0537">
        <ele>225.39999389648</ele>
        <time>2012-08-08T08:49:20.000Z</time>
      </trkpt>
      <trkpt lat="47.62873" lon="6.05351">
        <ele>225.39999389648</ele>
        <time>2012-08-08T08:49:23.000Z</time>
      </trkpt>
      <trkpt lat="47.62872" lon="6.05332">
        <ele>225.39999389648</ele>
        <time>2012-08-08T08:49:27.000Z</time>
      </trkpt>
      <trkpt lat="47.6287" lon="6.05308">
        <ele>225.39999389648</ele>
        <time>2012-08-08T08:49:33.000Z</time>
      </trkpt>
      <trkpt lat="47.62864" lon="6.05282">
        <ele>225.39999389648</ele>
        <time>2012-08-08T08:49:39.000Z</time>
      </trkpt>
      <trkpt lat="47.62851" lon="6.05242">
        <ele>225.39999389648</ele>
        <time>2012-08-08T08:49:45.000Z</time>
      </trkpt>
      <trkpt lat="47.62836" lon="6.05191">
        <ele>225.39999389648</ele>
        <time>2012-08-08T08:49:52.000Z</time>
      </trkpt>
      <trkpt lat="47.62833" lon="6.05182">
        <ele>225</ele>
        <time>2012-08-08T08:49:53.000Z</time>
      </trkpt>
      <trkpt lat="47.6283" lon="6.05173">
        <ele>224.39999389648</ele>
        <time>2012-08-08T08:49:54.000Z</time>
      </trkpt>
      <trkpt lat="47.62827" lon="6.05162">
        <ele>224</ele>
        <time>2012-08-08T08:49:55.000Z</time>
      </trkpt>
      <trkpt lat="47.62825" lon="6.05152">
        <ele>223.60000610352</ele>
        <time>2012-08-08T08:49:56.000Z</time>
      </trkpt>
      <trkpt lat="47.62823" lon="6.05141">
        <ele>223.19999694824</ele>
        <time>2012-08-08T08:49:57.000Z</time>
      </trkpt>
      <trkpt lat="47.62822" lon="6.0513">
        <ele>223.19999694824</ele>
        <time>2012-08-08T08:49:58.000Z</time>
      </trkpt>
      <trkpt lat="47.62812" lon="6.05074">
        <ele>223.19999694824</ele>
        <time>2012-08-08T08:50:04.000Z</time>
      </trkpt>
      <trkpt lat="47.62806" lon="6.05028">
        <ele>223.19999694824</ele>
        <time>2012-08-08T08:50:10.000Z</time>
      </trkpt>
      <trkpt lat="47.62797" lon="6.04988">
        <ele>223.19999694824</ele>
        <time>2012-08-08T08:50:16.000Z</time>
      </trkpt>
      <trkpt lat="47.62788" lon="6.04961">
        <ele>222.80000305176</ele>
        <time>2012-08-08T08:50:20.000Z</time>
      </trkpt>
      <trkpt lat="47.62786" lon="6.04953">
        <ele>222.19999694824</ele>
        <time>2012-08-08T08:50:21.000Z</time>
      </trkpt>
      <trkpt lat="47.62785" lon="6.04946">
        <ele>221.80000305176</ele>
        <time>2012-08-08T08:50:22.000Z</time>
      </trkpt>
      <trkpt lat="47.62783" lon="6.04939">
        <ele>221.39999389648</ele>
        <time>2012-08-08T08:50:23.000Z</time>
      </trkpt>
      <trkpt lat="47.62782" lon="6.04931">
        <ele>221</ele>
        <time>2012-08-08T08:50:24.000Z</time>
      </trkpt>
      <trkpt lat="47.6278" lon="6.04919">
        <ele>221</ele>
        <time>2012-08-08T08:50:26.000Z</time>
      </trkpt>
      <trkpt lat="47.62773" lon="6.04883">
        <ele>221</ele>
        <time>2012-08-08T08:50:32.000Z</time>
      </trkpt>
      <trkpt lat="47.62769" lon="6.0484">
        <ele>221</ele>
        <time>2012-08-08T08:50:37.000Z</time>
      </trkpt>
      <trkpt lat="47.62767" lon="6.04767">
        <ele>221</ele>
        <time>2012-08-08T08:50:44.000Z</time>
      </trkpt>
      <trkpt lat="47.62768" lon="6.04728">
        <ele>221</ele>
        <time>2012-08-08T08:50:49.000Z</time>
      </trkpt>
      <trkpt lat="47.62769" lon="6.04713">
        <ele>221</ele>
        <time>2012-08-08T08:50:51.000Z</time>
      </trkpt>
      <trkpt lat="47.6277" lon="6.04683">
        <ele>221</ele>
        <time>2012-08-08T08:50:55.000Z</time>
      </trkpt>
      <trkpt lat="47.62773" lon="6.04635">
        <ele>221</ele>
        <time>2012-08-08T08:51:01.000Z</time>
      </trkpt>
      <trkpt lat="47.62776" lon="6.04572">
        <ele>221</ele>
        <time>2012-08-08T08:51:09.000Z</time>
      </trkpt>
      <trkpt lat="47.62775" lon="6.04566">
        <ele>221</ele>
        <time>2012-08-08T08:51:10.000Z</time>
      </trkpt>
      <trkpt lat="47.62775" lon="6.04549">
        <ele>221</ele>
        <time>2012-08-08T08:51:13.000Z</time>
      </trkpt>
      <trkpt lat="47.62778" lon="6.04515">
        <ele>221</ele>
        <time>2012-08-08T08:51:20.000Z</time>
      </trkpt>
      <trkpt lat="47.62781" lon="6.0447">
        <ele>221</ele>
        <time>2012-08-08T08:51:27.000Z</time>
      </trkpt>
      <trkpt lat="47.62786" lon="6.04407">
        <ele>221</ele>
        <time>2012-08-08T08:51:36.000Z</time>
      </trkpt>
      <trkpt lat="47.62797" lon="6.04358">
        <ele>221</ele>
        <time>2012-08-08T08:51:43.000Z</time>
      </trkpt>
      <trkpt lat="47.62809" lon="6.04323">
        <ele>221</ele>
        <time>2012-08-08T08:51:49.000Z</time>
      </trkpt>
      <trkpt lat="47.62816" lon="6.04307">
        <ele>221</ele>
        <time>2012-08-08T08:51:52.000Z</time>
      </trkpt>
      <trkpt lat="47.62837" lon="6.0426">
        <ele>221</ele>
        <time>2012-08-08T08:52:01.000Z</time>
      </trkpt>
      <trkpt lat="47.62855" lon="6.0422">
        <ele>221</ele>
        <time>2012-08-08T08:52:09.000Z</time>
      </trkpt>
      <trkpt lat="47.62869" lon="6.0419">
        <ele>221</ele>
        <time>2012-08-08T08:52:16.000Z</time>
      </trkpt>
      <trkpt lat="47.62876" lon="6.04175">
        <ele>221</ele>
        <time>2012-08-08T08:52:22.000Z</time>
      </trkpt>
      <trkpt lat="47.62879" lon="6.04163">
        <ele>221</ele>
        <time>2012-08-08T08:52:29.000Z</time>
      </trkpt>
      <trkpt lat="47.62879" lon="6.04163">
        <ele>221</ele>
        <time>2012-08-08T08:52:31.000Z</time>
      </trkpt>
      <trkpt lat="47.6288" lon="6.04163">
        <ele>221</ele>
        <time>2012-08-08T08:57:19.000Z</time>
      </trkpt>
      <trkpt lat="47.62881" lon="6.04161">
        <ele>221</ele>
        <time>2012-08-08T08:57:20.000Z</time>
      </trkpt>
      <trkpt lat="47.6289" lon="6.04141">
        <ele>221</ele>
        <time>2012-08-08T08:57:28.000Z</time>
      </trkpt>
      <trkpt lat="47.62903" lon="6.04111">
        <ele>221</ele>
        <time>2012-08-08T08:57:37.000Z</time>
      </trkpt>
      <trkpt lat="47.62921" lon="6.04074">
        <ele>221</ele>
        <time>2012-08-08T08:57:47.000Z</time>
      </trkpt>
      <trkpt lat="47.62937" lon="6.04046">
        <ele>221</ele>
        <time>2012-08-08T08:57:54.000Z</time>
      </trkpt>
      <trkpt lat="47.6296" lon="6.04016">
        <ele>221</ele>
        <time>2012-08-08T08:58:01.000Z</time>
      </trkpt>
      <trkpt lat="47.62984" lon="6.03987">
        <ele>221</ele>
        <time>2012-08-08T08:58:08.000Z</time>
      </trkpt>
      <trkpt lat="47.63011" lon="6.03957">
        <ele>221</ele>
        <time>2012-08-08T08:58:16.000Z</time>
      </trkpt>
      <trkpt lat="47.63019" lon="6.0395">
        <ele>221</ele>
        <time>2012-08-08T08:58:18.000Z</time>
      </trkpt>
      <trkpt lat="47.63031" lon="6.03946">
        <ele>221</ele>
        <time>2012-08-08T08:58:21.000Z</time>
      </trkpt>
      <trkpt lat="47.63035" lon="6.03946">
        <ele>221</ele>
        <time>2012-08-08T08:58:22.000Z</time>
      </trkpt>
      <trkpt lat="47.63065" lon="6.03949">
        <ele>221</ele>
        <time>2012-08-08T08:58:29.000Z</time>
      </trkpt>
      <trkpt lat="47.63096" lon="6.03961">
        <ele>221</ele>
        <time>2012-08-08T08:58:37.000Z</time>
      </trkpt>
      <trkpt lat="47.63123" lon="6.03988">
        <ele>221</ele>
        <time>2012-08-08T08:58:45.000Z</time>
      </trkpt>
      <trkpt lat="47.63144" lon="6.04002">
        <ele>221</ele>
        <time>2012-08-08T08:58:51.000Z</time>
      </trkpt>
      <trkpt lat="47.63165" lon="6.04002">
        <ele>221</ele>
        <time>2012-08-08T08:58:57.000Z</time>
      </trkpt>
      <trkpt lat="47.63186" lon="6.03994">
        <ele>221</ele>
        <time>2012-08-08T08:59:03.000Z</time>
      </trkpt>
      <trkpt lat="47.63213" lon="6.03975">
        <ele>221</ele>
        <time>2012-08-08T08:59:10.000Z</time>
      </trkpt>
      <trkpt lat="47.63217" lon="6.03972">
        <ele>221</ele>
        <time>2012-08-08T08:59:11.000Z</time>
      </trkpt>
      <trkpt lat="47.63231" lon="6.03961">
        <ele>221</ele>
        <time>2012-08-08T08:59:15.000Z</time>
      </trkpt>
      <trkpt lat="47.63238" lon="6.03956">
        <ele>221</ele>
        <time>2012-08-08T08:59:17.000Z</time>
      </trkpt>
      <trkpt lat="47.63254" lon="6.03945">
        <ele>221</ele>
        <time>2012-08-08T08:59:21.000Z</time>
      </trkpt>
      <trkpt lat="47.63287" lon="6.03923">
        <ele>220.60000610352</ele>
        <time>2012-08-08T08:59:28.000Z</time>
      </trkpt>
      <trkpt lat="47.63291" lon="6.0392">
        <ele>220.19999694824</ele>
        <time>2012-08-08T08:59:29.000Z</time>
      </trkpt>
      <trkpt lat="47.63296" lon="6.03917">
        <ele>219.80000305176</ele>
        <time>2012-08-08T08:59:30.000Z</time>
      </trkpt>
      <trkpt lat="47.63301" lon="6.03915">
        <ele>219.39999389648</ele>
        <time>2012-08-08T08:59:31.000Z</time>
      </trkpt>
      <trkpt lat="47.63305" lon="6.03912">
        <ele>219</ele>
        <time>2012-08-08T08:59:32.000Z</time>
      </trkpt>
      <trkpt lat="47.63332" lon="6.03893">
        <ele>219</ele>
        <time>2012-08-08T08:59:38.000Z</time>
      </trkpt>
      <trkpt lat="47.63364" lon="6.0387">
        <ele>219</ele>
        <time>2012-08-08T08:59:45.000Z</time>
      </trkpt>
      <trkpt lat="47.63368" lon="6.03865">
        <ele>219</ele>
        <time>2012-08-08T08:59:46.000Z</time>
      </trkpt>
      <trkpt lat="47.63408" lon="6.03822">
        <ele>219</ele>
        <time>2012-08-08T08:59:55.000Z</time>
      </trkpt>
      <trkpt lat="47.63442" lon="6.03786">
        <ele>219</ele>
        <time>2012-08-08T09:00:03.000Z</time>
      </trkpt>
      <trkpt lat="47.6345" lon="6.03778">
        <ele>219</ele>
        <time>2012-08-08T09:00:05.000Z</time>
      </trkpt>
      <trkpt lat="47.63462" lon="6.03768">
        <ele>219</ele>
        <time>2012-08-08T09:00:08.000Z</time>
      </trkpt>
      <trkpt lat="47.63469" lon="6.03761">
        <ele>219</ele>
        <time>2012-08-08T09:00:10.000Z</time>
      </trkpt>
      <trkpt lat="47.6349" lon="6.03742">
        <ele>219</ele>
        <time>2012-08-08T09:00:16.000Z</time>
      </trkpt>
      <trkpt lat="47.63493" lon="6.03738">
        <ele>219</ele>
        <time>2012-08-08T09:00:17.000Z</time>
      </trkpt>
      <trkpt lat="47.63524" lon="6.0371">
        <ele>219</ele>
        <time>2012-08-08T09:00:25.000Z</time>
      </trkpt>
      <trkpt lat="47.63556" lon="6.03685">
        <ele>219</ele>
        <time>2012-08-08T09:00:33.000Z</time>
      </trkpt>
      <trkpt lat="47.63585" lon="6.03665">
        <ele>219</ele>
        <time>2012-08-08T09:00:40.000Z</time>
      </trkpt>
      <trkpt lat="47.63593" lon="6.03658">
        <ele>219</ele>
        <time>2012-08-08T09:00:42.000Z</time>
      </trkpt>
      <trkpt lat="47.63611" lon="6.03641">
        <ele>219</ele>
        <time>2012-08-08T09:00:46.000Z</time>
      </trkpt>
      <trkpt lat="47.63632" lon="6.03623">
        <ele>219</ele>
        <time>2012-08-08T09:00:51.000Z</time>
      </trkpt>
      <trkpt lat="47.63636" lon="6.03619">
        <ele>219</ele>
        <time>2012-08-08T09:00:52.000Z</time>
      </trkpt>
      <trkpt lat="47.63649" lon="6.03604">
        <ele>219</ele>
        <time>2012-08-08T09:00:56.000Z</time>
      </trkpt>
      <trkpt lat="47.63668" lon="6.03578">
        <ele>219</ele>
        <time>2012-08-08T09:01:03.000Z</time>
      </trkpt>
      <trkpt lat="47.63686" lon="6.03549">
        <ele>219</ele>
        <time>2012-08-08T09:01:10.000Z</time>
      </trkpt>
      <trkpt lat="47.63698" lon="6.0353">
        <ele>219</ele>
        <time>2012-08-08T09:01:15.000Z</time>
      </trkpt>
      <trkpt lat="47.63716" lon="6.03525">
        <ele>219</ele>
        <time>2012-08-08T09:01:20.000Z</time>
      </trkpt>
      <trkpt lat="47.63737" lon="6.03519">
        <ele>219</ele>
        <time>2012-08-08T09:01:27.000Z</time>
      </trkpt>
      <trkpt lat="47.63743" lon="6.03518">
        <ele>219.39999389648</ele>
        <time>2012-08-08T09:01:29.000Z</time>
      </trkpt>
      <trkpt lat="47.63746" lon="6.03517">
        <ele>219.80000305176</ele>
        <time>2012-08-08T09:01:30.000Z</time>
      </trkpt>
      <trkpt lat="47.63749" lon="6.03516">
        <ele>220.19999694824</ele>
        <time>2012-08-08T09:01:31.000Z</time>
      </trkpt>
      <trkpt lat="47.63752" lon="6.03515">
        <ele>220.60000610352</ele>
        <time>2012-08-08T09:01:32.000Z</time>
      </trkpt>
      <trkpt lat="47.63756" lon="6.03514">
        <ele>221</ele>
        <time>2012-08-08T09:01:33.000Z</time>
      </trkpt>
      <trkpt lat="47.63759" lon="6.03513">
        <ele>221</ele>
        <time>2012-08-08T09:01:34.000Z</time>
      </trkpt>
      <trkpt lat="47.63778" lon="6.03515">
        <ele>221</ele>
        <time>2012-08-08T09:01:41.000Z</time>
      </trkpt>
      <trkpt lat="47.63786" lon="6.03516">
        <ele>221.39999389648</ele>
        <time>2012-08-08T09:01:44.000Z</time>
      </trkpt>
      <trkpt lat="47.63789" lon="6.03517">
        <ele>221.80000305176</ele>
        <time>2012-08-08T09:01:45.000Z</time>
      </trkpt>
      <trkpt lat="47.63792" lon="6.03519">
        <ele>222.39999389648</ele>
        <time>2012-08-08T09:01:46.000Z</time>
      </trkpt>
      <trkpt lat="47.63794" lon="6.0352">
        <ele>222.80000305176</ele>
        <time>2012-08-08T09:01:47.000Z</time>
      </trkpt>
      <trkpt lat="47.63796" lon="6.03521">
        <ele>223.19999694824</ele>
        <time>2012-08-08T09:01:48.000Z</time>
      </trkpt>
      <trkpt lat="47.63806" lon="6.03523">
        <ele>223.19999694824</ele>
        <time>2012-08-08T09:01:52.000Z</time>
      </trkpt>
      <trkpt lat="47.63826" lon="6.03527">
        <ele>223.19999694824</ele>
        <time>2012-08-08T09:01:59.000Z</time>
      </trkpt>
      <trkpt lat="47.63831" lon="6.03527">
        <ele>223.60000610352</ele>
        <time>2012-08-08T09:02:01.000Z</time>
      </trkpt>
      <trkpt lat="47.63833" lon="6.03528">
        <ele>224.39999389648</ele>
        <time>2012-08-08T09:02:02.000Z</time>
      </trkpt>
      <trkpt lat="47.63837" lon="6.03529">
        <ele>224.80000305176</ele>
        <time>2012-08-08T09:02:03.000Z</time>
      </trkpt>
      <trkpt lat="47.63839" lon="6.03529">
        <ele>225.19999694824</ele>
        <time>2012-08-08T09:02:04.000Z</time>
      </trkpt>
      <trkpt lat="47.63842" lon="6.0353">
        <ele>225.19999694824</ele>
        <time>2012-08-08T09:02:05.000Z</time>
      </trkpt>
      <trkpt lat="47.63856" lon="6.03534">
        <ele>225.19999694824</ele>
        <time>2012-08-08T09:02:11.000Z</time>
      </trkpt>
      <trkpt lat="47.63868" lon="6.0354">
        <ele>225.60000610352</ele>
        <time>2012-08-08T09:02:16.000Z</time>
      </trkpt>
      <trkpt lat="47.63871" lon="6.03541">
        <ele>226</ele>
        <time>2012-08-08T09:02:17.000Z</time>
      </trkpt>
      <trkpt lat="47.63873" lon="6.03542">
        <ele>226.39999389648</ele>
        <time>2012-08-08T09:02:18.000Z</time>
      </trkpt>
      <trkpt lat="47.63876" lon="6.03544">
        <ele>227</ele>
        <time>2012-08-08T09:02:19.000Z</time>
      </trkpt>
      <trkpt lat="47.63879" lon="6.03546">
        <ele>227.39999389648</ele>
        <time>2012-08-08T09:02:20.000Z</time>
      </trkpt>
      <trkpt lat="47.63886" lon="6.03551">
        <ele>227.39999389648</ele>
        <time>2012-08-08T09:02:23.000Z</time>
      </trkpt>
      <trkpt lat="47.63902" lon="6.03563">
        <ele>227.39999389648</ele>
        <time>2012-08-08T09:02:30.000Z</time>
      </trkpt>
      <trkpt lat="47.63921" lon="6.0357">
        <ele>227.39999389648</ele>
        <time>2012-08-08T09:02:38.000Z</time>
      </trkpt>
      <trkpt lat="47.63936" lon="6.03574">
        <ele>227.80000305176</ele>
        <time>2012-08-08T09:02:43.000Z</time>
      </trkpt>
      <trkpt lat="47.63939" lon="6.03574">
        <ele>228.19999694824</ele>
        <time>2012-08-08T09:02:44.000Z</time>
      </trkpt>
      <trkpt lat="47.63943" lon="6.03575">
        <ele>228.60000610352</ele>
        <time>2012-08-08T09:02:45.000Z</time>
      </trkpt>
      <trkpt lat="47.63946" lon="6.03577">
        <ele>229</ele>
        <time>2012-08-08T09:02:46.000Z</time>
      </trkpt>
      <trkpt lat="47.6395" lon="6.03579">
        <ele>229.39999389648</ele>
        <time>2012-08-08T09:02:47.000Z</time>
      </trkpt>
      <trkpt lat="47.63965" lon="6.03583">
        <ele>229.39999389648</ele>
        <time>2012-08-08T09:02:51.000Z</time>
      </trkpt>
      <trkpt lat="47.6399" lon="6.03597">
        <ele>229.39999389648</ele>
        <time>2012-08-08T09:02:59.000Z</time>
      </trkpt>
      <trkpt lat="47.6401" lon="6.0361">
        <ele>229.39999389648</ele>
        <time>2012-08-08T09:03:07.000Z</time>
      </trkpt>
      <trkpt lat="47.64028" lon="6.03624">
        <ele>229.39999389648</ele>
        <time>2012-08-08T09:03:14.000Z</time>
      </trkpt>
      <trkpt lat="47.64048" lon="6.03639">
        <ele>229.80000305176</ele>
        <time>2012-08-08T09:03:21.000Z</time>
      </trkpt>
      <trkpt lat="47.6405" lon="6.0364">
        <ele>230.19999694824</ele>
        <time>2012-08-08T09:03:22.000Z</time>
      </trkpt>
      <trkpt lat="47.64053" lon="6.03642">
        <ele>230.60000610352</ele>
        <time>2012-08-08T09:03:23.000Z</time>
      </trkpt>
      <trkpt lat="47.64057" lon="6.03643">
        <ele>231</ele>
        <time>2012-08-08T09:03:24.000Z</time>
      </trkpt>
      <trkpt lat="47.6406" lon="6.03645">
        <ele>231.39999389648</ele>
        <time>2012-08-08T09:03:25.000Z</time>
      </trkpt>
      <trkpt lat="47.64066" lon="6.0365">
        <ele>231.39999389648</ele>
        <time>2012-08-08T09:03:27.000Z</time>
      </trkpt>
      <trkpt lat="47.64089" lon="6.0366">
        <ele>231.39999389648</ele>
        <time>2012-08-08T09:03:33.000Z</time>
      </trkpt>
      <trkpt lat="47.64118" lon="6.03674">
        <ele>231.39999389648</ele>
        <time>2012-08-08T09:03:40.000Z</time>
      </trkpt>
      <trkpt lat="47.64151" lon="6.03684">
        <ele>231.39999389648</ele>
        <time>2012-08-08T09:03:47.000Z</time>
      </trkpt>
      <trkpt lat="47.64161" lon="6.03685">
        <ele>231.39999389648</ele>
        <time>2012-08-08T09:03:49.000Z</time>
      </trkpt>
      <trkpt lat="47.64187" lon="6.03685">
        <ele>231.39999389648</ele>
        <time>2012-08-08T09:03:54.000Z</time>
      </trkpt>
      <trkpt lat="47.64221" lon="6.03692">
        <ele>231.39999389648</ele>
        <time>2012-08-08T09:04:01.000Z</time>
      </trkpt>
      <trkpt lat="47.64264" lon="6.03703">
        <ele>231.39999389648</ele>
        <time>2012-08-08T09:04:10.000Z</time>
      </trkpt>
      <trkpt lat="47.64286" lon="6.03709">
        <ele>231.39999389648</ele>
        <time>2012-08-08T09:04:16.000Z</time>
      </trkpt>
      <trkpt lat="47.64315" lon="6.03709">
        <ele>231.39999389648</ele>
        <time>2012-08-08T09:04:24.000Z</time>
      </trkpt>
      <trkpt lat="47.6434" lon="6.03706">
        <ele>231.39999389648</ele>
        <time>2012-08-08T09:04:30.000Z</time>
      </trkpt>
      <trkpt lat="47.64378" lon="6.03697">
        <ele>231.39999389648</ele>
        <time>2012-08-08T09:04:38.000Z</time>
      </trkpt>
      <trkpt lat="47.64383" lon="6.03694">
        <ele>230.80000305176</ele>
        <time>2012-08-08T09:04:39.000Z</time>
      </trkpt>
      <trkpt lat="47.64388" lon="6.0369">
        <ele>230.39999389648</ele>
        <time>2012-08-08T09:04:40.000Z</time>
      </trkpt>
      <trkpt lat="47.64394" lon="6.03685">
        <ele>229.80000305176</ele>
        <time>2012-08-08T09:04:41.000Z</time>
      </trkpt>
      <trkpt lat="47.64399" lon="6.03678">
        <ele>229.39999389648</ele>
        <time>2012-08-08T09:04:42.000Z</time>
      </trkpt>
      <trkpt lat="47.64402" lon="6.03669">
        <ele>228.80000305176</ele>
        <time>2012-08-08T09:04:43.000Z</time>
      </trkpt>
      <trkpt lat="47.64405" lon="6.0366">
        <ele>228.19999694824</ele>
        <time>2012-08-08T09:04:44.000Z</time>
      </trkpt>
      <trkpt lat="47.64408" lon="6.03651">
        <ele>227.60000610352</ele>
        <time>2012-08-08T09:04:45.000Z</time>
      </trkpt>
      <trkpt lat="47.64412" lon="6.03642">
        <ele>227</ele>
        <time>2012-08-08T09:04:46.000Z</time>
      </trkpt>
      <trkpt lat="47.64416" lon="6.03635">
        <ele>226.39999389648</ele>
        <time>2012-08-08T09:04:47.000Z</time>
      </trkpt>
      <trkpt lat="47.64421" lon="6.03629">
        <ele>226</ele>
        <time>2012-08-08T09:04:48.000Z</time>
      </trkpt>
      <trkpt lat="47.64427" lon="6.03625">
        <ele>225</ele>
        <time>2012-08-08T09:04:49.000Z</time>
      </trkpt>
      <trkpt lat="47.64433" lon="6.03622">
        <ele>224.39999389648</ele>
        <time>2012-08-08T09:04:50.000Z</time>
      </trkpt>
      <trkpt lat="47.64445" lon="6.03622">
        <ele>224.39999389648</ele>
        <time>2012-08-08T09:04:52.000Z</time>
      </trkpt>
      <trkpt lat="47.64451" lon="6.03623">
        <ele>224.39999389648</ele>
        <time>2012-08-08T09:04:53.000Z</time>
      </trkpt>
      <trkpt lat="47.64483" lon="6.03624">
        <ele>224.39999389648</ele>
        <time>2012-08-08T09:04:59.000Z</time>
      </trkpt>
      <trkpt lat="47.64517" lon="6.03622">
        <ele>224.39999389648</ele>
        <time>2012-08-08T09:05:07.000Z</time>
      </trkpt>
      <trkpt lat="47.64548" lon="6.03609">
        <ele>224.39999389648</ele>
        <time>2012-08-08T09:05:15.000Z</time>
      </trkpt>
      <trkpt lat="47.64568" lon="6.03595">
        <ele>224.39999389648</ele>
        <time>2012-08-08T09:05:20.000Z</time>
      </trkpt>
      <trkpt lat="47.64572" lon="6.03591">
        <ele>224.39999389648</ele>
        <time>2012-08-08T09:05:21.000Z</time>
      </trkpt>
      <trkpt lat="47.64592" lon="6.03563">
        <ele>224.39999389648</ele>
        <time>2012-08-08T09:05:27.000Z</time>
      </trkpt>
      <trkpt lat="47.64624" lon="6.03523">
        <ele>224.39999389648</ele>
        <time>2012-08-08T09:05:35.000Z</time>
      </trkpt>
      <trkpt lat="47.64647" lon="6.03493">
        <ele>224.39999389648</ele>
        <time>2012-08-08T09:05:41.000Z</time>
      </trkpt>
      <trkpt lat="47.64654" lon="6.03484">
        <ele>224.39999389648</ele>
        <time>2012-08-08T09:05:43.000Z</time>
      </trkpt>
      <trkpt lat="47.64664" lon="6.03471">
        <ele>224</ele>
        <time>2012-08-08T09:05:46.000Z</time>
      </trkpt>
      <trkpt lat="47.64668" lon="6.03467">
        <ele>223.60000610352</ele>
        <time>2012-08-08T09:05:47.000Z</time>
      </trkpt>
      <trkpt lat="47.64672" lon="6.03463">
        <ele>223.19999694824</ele>
        <time>2012-08-08T09:05:48.000Z</time>
      </trkpt>
      <trkpt lat="47.64676" lon="6.03459">
        <ele>222.80000305176</ele>
        <time>2012-08-08T09:05:49.000Z</time>
      </trkpt>
      <trkpt lat="47.6468" lon="6.03455">
        <ele>222.39999389648</ele>
        <time>2012-08-08T09:05:50.000Z</time>
      </trkpt>
      <trkpt lat="47.64717" lon="6.03427">
        <ele>222.39999389648</ele>
        <time>2012-08-08T09:05:59.000Z</time>
      </trkpt>
      <trkpt lat="47.64749" lon="6.03403">
        <ele>222.39999389648</ele>
        <time>2012-08-08T09:06:07.000Z</time>
      </trkpt>
      <trkpt lat="47.64773" lon="6.03387">
        <ele>222.39999389648</ele>
        <time>2012-08-08T09:06:13.000Z</time>
      </trkpt>
      <trkpt lat="47.6478" lon="6.03382">
        <ele>222.39999389648</ele>
        <time>2012-08-08T09:06:15.000Z</time>
      </trkpt>
      <trkpt lat="47.64796" lon="6.03373">
        <ele>222.39999389648</ele>
        <time>2012-08-08T09:06:19.000Z</time>
      </trkpt>
      <trkpt lat="47.6482" lon="6.03357">
        <ele>222.39999389648</ele>
        <time>2012-08-08T09:06:25.000Z</time>
      </trkpt>
      <trkpt lat="47.64825" lon="6.03355">
        <ele>222.39999389648</ele>
        <time>2012-08-08T09:06:26.000Z</time>
      </trkpt>
      <trkpt lat="47.64854" lon="6.03338">
        <ele>222</ele>
        <time>2012-08-08T09:06:32.000Z</time>
      </trkpt>
      <trkpt lat="47.64859" lon="6.03336">
        <ele>221.60000610352</ele>
        <time>2012-08-08T09:06:33.000Z</time>
      </trkpt>
      <trkpt lat="47.64864" lon="6.03333">
        <ele>221.19999694824</ele>
        <time>2012-08-08T09:06:34.000Z</time>
      </trkpt>
      <trkpt lat="47.64868" lon="6.0333">
        <ele>220.80000305176</ele>
        <time>2012-08-08T09:06:35.000Z</time>
      </trkpt>
      <trkpt lat="47.64873" lon="6.03327">
        <ele>220.39999389648</ele>
        <time>2012-08-08T09:06:36.000Z</time>
      </trkpt>
      <trkpt lat="47.64898" lon="6.03312">
        <ele>220.39999389648</ele>
        <time>2012-08-08T09:06:42.000Z</time>
      </trkpt>
      <trkpt lat="47.64934" lon="6.03292">
        <ele>220.39999389648</ele>
        <time>2012-08-08T09:06:51.000Z</time>
      </trkpt>
      <trkpt lat="47.64969" lon="6.0327">
        <ele>220.39999389648</ele>
        <time>2012-08-08T09:07:00.000Z</time>
      </trkpt>
      <trkpt lat="47.64995" lon="6.03253">
        <ele>220.39999389648</ele>
        <time>2012-08-08T09:07:08.000Z</time>
      </trkpt>
      <trkpt lat="47.65006" lon="6.03246">
        <ele>220.39999389648</ele>
        <time>2012-08-08T09:07:12.000Z</time>
      </trkpt>
      <trkpt lat="47.65023" lon="6.03229">
        <ele>220.39999389648</ele>
        <time>2012-08-08T09:07:18.000Z</time>
      </trkpt>
      <trkpt lat="47.65041" lon="6.03204">
        <ele>220.39999389648</ele>
        <time>2012-08-08T09:07:25.000Z</time>
      </trkpt>
      <trkpt lat="47.65066" lon="6.03161">
        <ele>220.39999389648</ele>
        <time>2012-08-08T09:07:33.000Z</time>
      </trkpt>
      <trkpt lat="47.65082" lon="6.03122">
        <ele>220.39999389648</ele>
        <time>2012-08-08T09:07:39.000Z</time>
      </trkpt>
      <trkpt lat="47.65082" lon="6.03116">
        <ele>220.39999389648</ele>
        <time>2012-08-08T09:07:40.000Z</time>
      </trkpt>
      <trkpt lat="47.65081" lon="6.03101">
        <ele>219.60000610352</ele>
        <time>2012-08-08T09:07:42.000Z</time>
      </trkpt>
      <trkpt lat="47.65079" lon="6.03094">
        <ele>219.19999694824</ele>
        <time>2012-08-08T09:07:43.000Z</time>
      </trkpt>
      <trkpt lat="47.65077" lon="6.03088">
        <ele>218.80000305176</ele>
        <time>2012-08-08T09:07:44.000Z</time>
      </trkpt>
      <trkpt lat="47.65075" lon="6.03082">
        <ele>218.39999389648</ele>
        <time>2012-08-08T09:07:45.000Z</time>
      </trkpt>
      <trkpt lat="47.65066" lon="6.0305">
        <ele>218.39999389648</ele>
        <time>2012-08-08T09:07:51.000Z</time>
      </trkpt>
      <trkpt lat="47.65067" lon="6.03045">
        <ele>218.39999389648</ele>
        <time>2012-08-08T09:07:52.000Z</time>
      </trkpt>
      <trkpt lat="47.65067" lon="6.03034">
        <ele>218.39999389648</ele>
        <time>2012-08-08T09:07:54.000Z</time>
      </trkpt>
      <trkpt lat="47.65058" lon="6.03019">
        <ele>218</ele>
        <time>2012-08-08T09:07:57.000Z</time>
      </trkpt>
      <trkpt lat="47.65055" lon="6.03015">
        <ele>217.60000610352</ele>
        <time>2012-08-08T09:07:58.000Z</time>
      </trkpt>
      <trkpt lat="47.65052" lon="6.0301">
        <ele>217.19999694824</ele>
        <time>2012-08-08T09:07:59.000Z</time>
      </trkpt>
      <trkpt lat="47.65049" lon="6.03005">
        <ele>216.80000305176</ele>
        <time>2012-08-08T09:08:00.000Z</time>
      </trkpt>
      <trkpt lat="47.65046" lon="6.03">
        <ele>216.39999389648</ele>
        <time>2012-08-08T09:08:01.000Z</time>
      </trkpt>
      <trkpt lat="47.65039" lon="6.0299">
        <ele>216.39999389648</ele>
        <time>2012-08-08T09:08:03.000Z</time>
      </trkpt>
      <trkpt lat="47.65017" lon="6.0295">
        <ele>216.39999389648</ele>
        <time>2012-08-08T09:08:10.000Z</time>
      </trkpt>
      <trkpt lat="47.65004" lon="6.02908">
        <ele>216.39999389648</ele>
        <time>2012-08-08T09:08:16.000Z</time>
      </trkpt>
      <trkpt lat="47.64993" lon="6.02853">
        <ele>216.39999389648</ele>
        <time>2012-08-08T09:08:24.000Z</time>
      </trkpt>
      <trkpt lat="47.64987" lon="6.02793">
        <ele>216.39999389648</ele>
        <time>2012-08-08T09:08:33.000Z</time>
      </trkpt>
      <trkpt lat="47.64981" lon="6.02744">
        <ele>216.39999389648</ele>
        <time>2012-08-08T09:08:40.000Z</time>
      </trkpt>
      <trkpt lat="47.64975" lon="6.02697">
        <ele>216.39999389648</ele>
        <time>2012-08-08T09:08:47.000Z</time>
      </trkpt>
      <trkpt lat="47.64968" lon="6.02642">
        <ele>216.39999389648</ele>
        <time>2012-08-08T09:08:55.000Z</time>
      </trkpt>
      <trkpt lat="47.64962" lon="6.02589">
        <ele>216.39999389648</ele>
        <time>2012-08-08T09:09:03.000Z</time>
      </trkpt>
      <trkpt lat="47.64956" lon="6.0254">
        <ele>216.39999389648</ele>
        <time>2012-08-08T09:09:11.000Z</time>
      </trkpt>
      <trkpt lat="47.6495" lon="6.02502">
        <ele>216.39999389648</ele>
        <time>2012-08-08T09:09:18.000Z</time>
      </trkpt>
      <trkpt lat="47.64945" lon="6.02482">
        <ele>216.39999389648</ele>
        <time>2012-08-08T09:09:24.000Z</time>
      </trkpt>
      <trkpt lat="47.64945" lon="6.02462">
        <ele>216.39999389648</ele>
        <time>2012-08-08T09:09:30.000Z</time>
      </trkpt>
      <trkpt lat="47.64942" lon="6.02443">
        <ele>216.39999389648</ele>
        <time>2012-08-08T09:09:35.000Z</time>
      </trkpt>
      <trkpt lat="47.64941" lon="6.02414">
        <ele>216.39999389648</ele>
        <time>2012-08-08T09:09:41.000Z</time>
      </trkpt>
      <trkpt lat="47.64944" lon="6.0241">
        <ele>216.39999389648</ele>
        <time>2012-08-08T09:09:42.000Z</time>
      </trkpt>
      <trkpt lat="47.6495" lon="6.02404">
        <ele>216.39999389648</ele>
        <time>2012-08-08T09:09:44.000Z</time>
      </trkpt>
      <trkpt lat="47.64957" lon="6.02396">
        <ele>216.39999389648</ele>
        <time>2012-08-08T09:09:46.000Z</time>
      </trkpt>
      <trkpt lat="47.64963" lon="6.02387">
        <ele>216.39999389648</ele>
        <time>2012-08-08T09:09:48.000Z</time>
      </trkpt>
      <trkpt lat="47.64965" lon="6.02381">
        <ele>216.39999389648</ele>
        <time>2012-08-08T09:09:49.000Z</time>
      </trkpt>
      <trkpt lat="47.64968" lon="6.02354">
        <ele>216.39999389648</ele>
        <time>2012-08-08T09:09:53.000Z</time>
      </trkpt>
      <trkpt lat="47.64971" lon="6.02329">
        <ele>216.39999389648</ele>
        <time>2012-08-08T09:09:57.000Z</time>
      </trkpt>
      <trkpt lat="47.64973" lon="6.02322">
        <ele>216.39999389648</ele>
        <time>2012-08-08T09:09:58.000Z</time>
      </trkpt>
      <trkpt lat="47.64974" lon="6.02314">
        <ele>216.39999389648</ele>
        <time>2012-08-08T09:09:59.000Z</time>
      </trkpt>
      <trkpt lat="47.64972" lon="6.02292">
        <ele>216.39999389648</ele>
        <time>2012-08-08T09:10:02.000Z</time>
      </trkpt>
      <trkpt lat="47.64968" lon="6.02279">
        <ele>216.39999389648</ele>
        <time>2012-08-08T09:10:04.000Z</time>
      </trkpt>
      <trkpt lat="47.64961" lon="6.02254">
        <ele>216.39999389648</ele>
        <time>2012-08-08T09:10:08.000Z</time>
      </trkpt>
      <trkpt lat="47.64949" lon="6.02217">
        <ele>216.39999389648</ele>
        <time>2012-08-08T09:10:15.000Z</time>
      </trkpt>
      <trkpt lat="47.6494" lon="6.02196">
        <ele>216.39999389648</ele>
        <time>2012-08-08T09:10:20.000Z</time>
      </trkpt>
      <trkpt lat="47.6493" lon="6.02174">
        <ele>216.39999389648</ele>
        <time>2012-08-08T09:10:27.000Z</time>
      </trkpt>
      <trkpt lat="47.64926" lon="6.02158">
        <ele>216.39999389648</ele>
        <time>2012-08-08T09:10:32.000Z</time>
      </trkpt>
      <trkpt lat="47.64921" lon="6.02133">
        <ele>216.39999389648</ele>
        <time>2012-08-08T09:10:37.000Z</time>
      </trkpt>
      <trkpt lat="47.64908" lon="6.02103">
        <ele>216.39999389648</ele>
        <time>2012-08-08T09:10:43.000Z</time>
      </trkpt>
      <trkpt lat="47.64904" lon="6.02097">
        <ele>216.39999389648</ele>
        <time>2012-08-08T09:10:44.000Z</time>
      </trkpt>
      <trkpt lat="47.64899" lon="6.02085">
        <ele>216.39999389648</ele>
        <time>2012-08-08T09:10:46.000Z</time>
      </trkpt>
      <trkpt lat="47.64898" lon="6.02078">
        <ele>216.39999389648</ele>
        <time>2012-08-08T09:10:47.000Z</time>
      </trkpt>
      <trkpt lat="47.64891" lon="6.0207">
        <ele>216.39999389648</ele>
        <time>2012-08-08T09:10:50.000Z</time>
      </trkpt>
      <trkpt lat="47.64887" lon="6.02074">
        <ele>216.39999389648</ele>
        <time>2012-08-08T09:10:53.000Z</time>
      </trkpt>
      <trkpt lat="47.64887" lon="6.02086">
        <ele>216.39999389648</ele>
        <time>2012-08-08T09:10:57.000Z</time>
      </trkpt>
      <trkpt lat="47.64888" lon="6.02088">
        <ele>216.39999389648</ele>
        <time>2012-08-08T09:10:58.000Z</time>
      </trkpt>
      <trkpt lat="47.64894" lon="6.02093">
        <ele>216.39999389648</ele>
        <time>2012-08-08T09:11:01.000Z</time>
      </trkpt>
      <trkpt lat="47.64898" lon="6.02095">
        <ele>216.80000305176</ele>
        <time>2012-08-08T09:11:03.000Z</time>
      </trkpt>
      <trkpt lat="47.64899" lon="6.02095">
        <ele>217.19999694824</ele>
        <time>2012-08-08T09:11:04.000Z</time>
      </trkpt>
      <trkpt lat="47.64901" lon="6.02093">
        <ele>217.60000610352</ele>
        <time>2012-08-08T09:11:05.000Z</time>
      </trkpt>
      <trkpt lat="47.64902" lon="6.02091">
        <ele>218</ele>
        <time>2012-08-08T09:11:06.000Z</time>
      </trkpt>
      <trkpt lat="47.64905" lon="6.02089">
        <ele>218.39999389648</ele>
        <time>2012-08-08T09:11:07.000Z</time>
      </trkpt>
      <trkpt lat="47.64918" lon="6.02078">
        <ele>218.39999389648</ele>
        <time>2012-08-08T09:11:12.000Z</time>
      </trkpt>
      <trkpt lat="47.64929" lon="6.0207">
        <ele>218.39999389648</ele>
        <time>2012-08-08T09:11:17.000Z</time>
      </trkpt>
      <trkpt lat="47.64945" lon="6.02057">
        <ele>218.39999389648</ele>
        <time>2012-08-08T09:11:23.000Z</time>
      </trkpt>
      <trkpt lat="47.64964" lon="6.02045">
        <ele>218.39999389648</ele>
        <time>2012-08-08T09:11:28.000Z</time>
      </trkpt>
      <trkpt lat="47.64968" lon="6.02041">
        <ele>218.39999389648</ele>
        <time>2012-08-08T09:11:29.000Z</time>
      </trkpt>
      <trkpt lat="47.64983" lon="6.0203">
        <ele>218.39999389648</ele>
        <time>2012-08-08T09:11:32.000Z</time>
      </trkpt>
      <trkpt lat="47.64989" lon="6.02027">
        <ele>218</ele>
        <time>2012-08-08T09:11:33.000Z</time>
      </trkpt>
      <trkpt lat="47.64995" lon="6.02027">
        <ele>217.39999389648</ele>
        <time>2012-08-08T09:11:34.000Z</time>
      </trkpt>
      <trkpt lat="47.65" lon="6.02029">
        <ele>217</ele>
        <time>2012-08-08T09:11:35.000Z</time>
      </trkpt>
      <trkpt lat="47.65005" lon="6.02031">
        <ele>216.60000610352</ele>
        <time>2012-08-08T09:11:36.000Z</time>
      </trkpt>
      <trkpt lat="47.65011" lon="6.02033">
        <ele>216.19999694824</ele>
        <time>2012-08-08T09:11:37.000Z</time>
      </trkpt>
      <trkpt lat="47.65015" lon="6.02035">
        <ele>216.19999694824</ele>
        <time>2012-08-08T09:11:38.000Z</time>
      </trkpt>
      <trkpt lat="47.65023" lon="6.0204">
        <ele>216.19999694824</ele>
        <time>2012-08-08T09:11:40.000Z</time>
      </trkpt>
      <trkpt lat="47.65032" lon="6.02045">
        <ele>216.19999694824</ele>
        <time>2012-08-08T09:11:43.000Z</time>
      </trkpt>
      <trkpt lat="47.65037" lon="6.02047">
        <ele>216.19999694824</ele>
        <time>2012-08-08T09:11:45.000Z</time>
      </trkpt>
      <trkpt lat="47.65062" lon="6.02057">
        <ele>216.19999694824</ele>
        <time>2012-08-08T09:11:53.000Z</time>
      </trkpt>
      <trkpt lat="47.65085" lon="6.02066">
        <ele>216.19999694824</ele>
        <time>2012-08-08T09:12:01.000Z</time>
      </trkpt>
      <trkpt lat="47.65106" lon="6.02074">
        <ele>216.19999694824</ele>
        <time>2012-08-08T09:12:08.000Z</time>
      </trkpt>
      <trkpt lat="47.65112" lon="6.02077">
        <ele>216.60000610352</ele>
        <time>2012-08-08T09:12:10.000Z</time>
      </trkpt>
      <trkpt lat="47.65116" lon="6.02078">
        <ele>217</ele>
        <time>2012-08-08T09:12:11.000Z</time>
      </trkpt>
      <trkpt lat="47.65119" lon="6.0208">
        <ele>217.80000305176</ele>
        <time>2012-08-08T09:12:12.000Z</time>
      </trkpt>
      <trkpt lat="47.65122" lon="6.02081">
        <ele>218.19999694824</ele>
        <time>2012-08-08T09:12:13.000Z</time>
      </trkpt>
      <trkpt lat="47.65129" lon="6.02084">
        <ele>218.19999694824</ele>
        <time>2012-08-08T09:12:15.000Z</time>
      </trkpt>
      <trkpt lat="47.65158" lon="6.02094">
        <ele>218.19999694824</ele>
        <time>2012-08-08T09:12:23.000Z</time>
      </trkpt>
      <trkpt lat="47.6519" lon="6.02103">
        <ele>218.19999694824</ele>
        <time>2012-08-08T09:12:32.000Z</time>
      </trkpt>
      <trkpt lat="47.6522" lon="6.02106">
        <ele>218.19999694824</ele>
        <time>2012-08-08T09:12:40.000Z</time>
      </trkpt>
      <trkpt lat="47.65244" lon="6.02105">
        <ele>218.19999694824</ele>
        <time>2012-08-08T09:12:47.000Z</time>
      </trkpt>
      <trkpt lat="47.65269" lon="6.02103">
        <ele>218.19999694824</ele>
        <time>2012-08-08T09:12:54.000Z</time>
      </trkpt>
      <trkpt lat="47.65297" lon="6.02096">
        <ele>218.19999694824</ele>
        <time>2012-08-08T09:13:02.000Z</time>
      </trkpt>
      <trkpt lat="47.65323" lon="6.02087">
        <ele>218.19999694824</ele>
        <time>2012-08-08T09:13:09.000Z</time>
      </trkpt>
      <trkpt lat="47.65349" lon="6.02074">
        <ele>218.19999694824</ele>
        <time>2012-08-08T09:13:15.000Z</time>
      </trkpt>
      <trkpt lat="47.65368" lon="6.02063">
        <ele>218.19999694824</ele>
        <time>2012-08-08T09:13:19.000Z</time>
      </trkpt>
      <trkpt lat="47.65377" lon="6.02057">
        <ele>218.19999694824</ele>
        <time>2012-08-08T09:13:21.000Z</time>
      </trkpt>
      <trkpt lat="47.65398" lon="6.0204">
        <ele>218.19999694824</ele>
        <time>2012-08-08T09:13:26.000Z</time>
      </trkpt>
      <trkpt lat="47.65402" lon="6.02038">
        <ele>218.19999694824</ele>
        <time>2012-08-08T09:13:27.000Z</time>
      </trkpt>
      <trkpt lat="47.65414" lon="6.02028">
        <ele>218.19999694824</ele>
        <time>2012-08-08T09:13:30.000Z</time>
      </trkpt>
      <trkpt lat="47.65429" lon="6.02015">
        <ele>218.19999694824</ele>
        <time>2012-08-08T09:13:34.000Z</time>
      </trkpt>
      <trkpt lat="47.6544" lon="6.02006">
        <ele>218.19999694824</ele>
        <time>2012-08-08T09:13:37.000Z</time>
      </trkpt>
      <trkpt lat="47.6545" lon="6.01997">
        <ele>218.19999694824</ele>
        <time>2012-08-08T09:13:40.000Z</time>
      </trkpt>
      <trkpt lat="47.65483" lon="6.01972">
        <ele>218.19999694824</ele>
        <time>2012-08-08T09:13:49.000Z</time>
      </trkpt>
      <trkpt lat="47.65509" lon="6.01957">
        <ele>218.19999694824</ele>
        <time>2012-08-08T09:13:56.000Z</time>
      </trkpt>
      <trkpt lat="47.65525" lon="6.01939">
        <ele>218.19999694824</ele>
        <time>2012-08-08T09:14:02.000Z</time>
      </trkpt>
      <trkpt lat="47.65533" lon="6.01919">
        <ele>218.19999694824</ele>
        <time>2012-08-08T09:14:07.000Z</time>
      </trkpt>
      <trkpt lat="47.65532" lon="6.01915">
        <ele>218.60000610352</ele>
        <time>2012-08-08T09:14:08.000Z</time>
      </trkpt>
      <trkpt lat="47.65531" lon="6.01911">
        <ele>219.19999694824</ele>
        <time>2012-08-08T09:14:09.000Z</time>
      </trkpt>
      <trkpt lat="47.65529" lon="6.01908">
        <ele>219.60000610352</ele>
        <time>2012-08-08T09:14:10.000Z</time>
      </trkpt>
      <trkpt lat="47.65528" lon="6.01904">
        <ele>220</ele>
        <time>2012-08-08T09:14:11.000Z</time>
      </trkpt>
      <trkpt lat="47.65527" lon="6.019">
        <ele>220.60000610352</ele>
        <time>2012-08-08T09:14:12.000Z</time>
      </trkpt>
      <trkpt lat="47.65522" lon="6.01885">
        <ele>220.60000610352</ele>
        <time>2012-08-08T09:14:17.000Z</time>
      </trkpt>
      <trkpt lat="47.65517" lon="6.01866">
        <ele>220.60000610352</ele>
        <time>2012-08-08T09:14:21.000Z</time>
      </trkpt>
      <trkpt lat="47.65522" lon="6.01839">
        <ele>220.60000610352</ele>
        <time>2012-08-08T09:14:25.000Z</time>
      </trkpt>
      <trkpt lat="47.65534" lon="6.01826">
        <ele>220.19999694824</ele>
        <time>2012-08-08T09:14:28.000Z</time>
      </trkpt>
      <trkpt lat="47.65538" lon="6.01823">
        <ele>219.80000305176</ele>
        <time>2012-08-08T09:14:29.000Z</time>
      </trkpt>
      <trkpt lat="47.65542" lon="6.0182">
        <ele>219.19999694824</ele>
        <time>2012-08-08T09:14:30.000Z</time>
      </trkpt>
      <trkpt lat="47.65547" lon="6.01816">
        <ele>218.80000305176</ele>
        <time>2012-08-08T09:14:31.000Z</time>
      </trkpt>
      <trkpt lat="47.65551" lon="6.01813">
        <ele>218.39999389648</ele>
        <time>2012-08-08T09:14:32.000Z</time>
      </trkpt>
      <trkpt lat="47.65561" lon="6.01805">
        <ele>218.39999389648</ele>
        <time>2012-08-08T09:14:34.000Z</time>
      </trkpt>
      <trkpt lat="47.65566" lon="6.018">
        <ele>218.39999389648</ele>
        <time>2012-08-08T09:14:35.000Z</time>
      </trkpt>
      <trkpt lat="47.65574" lon="6.0179">
        <ele>218</ele>
        <time>2012-08-08T09:14:37.000Z</time>
      </trkpt>
      <trkpt lat="47.65577" lon="6.01784">
        <ele>217.60000610352</ele>
        <time>2012-08-08T09:14:38.000Z</time>
      </trkpt>
      <trkpt lat="47.6558" lon="6.01778">
        <ele>217.19999694824</ele>
        <time>2012-08-08T09:14:39.000Z</time>
      </trkpt>
      <trkpt lat="47.65583" lon="6.01773">
        <ele>216.19999694824</ele>
        <time>2012-08-08T09:14:40.000Z</time>
      </trkpt>
      <trkpt lat="47.65597" lon="6.01749">
        <ele>216.19999694824</ele>
        <time>2012-08-08T09:14:45.000Z</time>
      </trkpt>
      <trkpt lat="47.65611" lon="6.01726">
        <ele>216.19999694824</ele>
        <time>2012-08-08T09:14:52.000Z</time>
      </trkpt>
      <trkpt lat="47.65628" lon="6.01704">
        <ele>216.19999694824</ele>
        <time>2012-08-08T09:15:00.000Z</time>
      </trkpt>
      <trkpt lat="47.65643" lon="6.01692">
        <ele>216.19999694824</ele>
        <time>2012-08-08T09:15:07.000Z</time>
      </trkpt>
      <trkpt lat="47.65653" lon="6.01682">
        <ele>216.19999694824</ele>
        <time>2012-08-08T09:15:13.000Z</time>
      </trkpt>
      <trkpt lat="47.6566" lon="6.01677">
        <ele>216.19999694824</ele>
        <time>2012-08-08T09:15:17.000Z</time>
      </trkpt>
      <trkpt lat="47.65662" lon="6.01679">
        <ele>216.19999694824</ele>
        <time>2012-08-08T09:15:18.000Z</time>
      </trkpt>
      <trkpt lat="47.6567" lon="6.01695">
        <ele>216.19999694824</ele>
        <time>2012-08-08T09:15:23.000Z</time>
      </trkpt>
      <trkpt lat="47.65684" lon="6.01701">
        <ele>216.19999694824</ele>
        <time>2012-08-08T09:15:28.000Z</time>
      </trkpt>
      <trkpt lat="47.657" lon="6.01692">
        <ele>216.19999694824</ele>
        <time>2012-08-08T09:15:33.000Z</time>
      </trkpt>
      <trkpt lat="47.65722" lon="6.01678">
        <ele>216.19999694824</ele>
        <time>2012-08-08T09:15:40.000Z</time>
      </trkpt>
      <trkpt lat="47.65745" lon="6.01666">
        <ele>216.19999694824</ele>
        <time>2012-08-08T09:15:47.000Z</time>
      </trkpt>
      <trkpt lat="47.65768" lon="6.0165">
        <ele>216.19999694824</ele>
        <time>2012-08-08T09:15:54.000Z</time>
      </trkpt>
      <trkpt lat="47.65794" lon="6.01628">
        <ele>216.19999694824</ele>
        <time>2012-08-08T09:16:01.000Z</time>
      </trkpt>
      <trkpt lat="47.65818" lon="6.01607">
        <ele>216.19999694824</ele>
        <time>2012-08-08T09:16:07.000Z</time>
      </trkpt>
      <trkpt lat="47.65821" lon="6.01604">
        <ele>216.19999694824</ele>
        <time>2012-08-08T09:16:08.000Z</time>
      </trkpt>
      <trkpt lat="47.6584" lon="6.0159">
        <ele>216.19999694824</ele>
        <time>2012-08-08T09:16:13.000Z</time>
      </trkpt>
      <trkpt lat="47.65863" lon="6.01573">
        <ele>216.19999694824</ele>
        <time>2012-08-08T09:16:20.000Z</time>
      </trkpt>
      <trkpt lat="47.6588" lon="6.01567">
        <ele>216.19999694824</ele>
        <time>2012-08-08T09:16:25.000Z</time>
      </trkpt>
      <trkpt lat="47.65902" lon="6.01554">
        <ele>216.19999694824</ele>
        <time>2012-08-08T09:16:31.000Z</time>
      </trkpt>
      <trkpt lat="47.65926" lon="6.01542">
        <ele>216.19999694824</ele>
        <time>2012-08-08T09:16:37.000Z</time>
      </trkpt>
      <trkpt lat="47.65952" lon="6.0153">
        <ele>216.19999694824</ele>
        <time>2012-08-08T09:16:44.000Z</time>
      </trkpt>
      <trkpt lat="47.6597" lon="6.01523">
        <ele>216.19999694824</ele>
        <time>2012-08-08T09:16:48.000Z</time>
      </trkpt>
      <trkpt lat="47.65975" lon="6.01521">
        <ele>216.19999694824</ele>
        <time>2012-08-08T09:16:49.000Z</time>
      </trkpt>
      <trkpt lat="47.6599" lon="6.01512">
        <ele>216.19999694824</ele>
        <time>2012-08-08T09:16:52.000Z</time>
      </trkpt>
      <trkpt lat="47.66005" lon="6.01507">
        <ele>216.19999694824</ele>
        <time>2012-08-08T09:16:55.000Z</time>
      </trkpt>
      <trkpt lat="47.66018" lon="6.01503">
        <ele>216.19999694824</ele>
        <time>2012-08-08T09:16:58.000Z</time>
      </trkpt>
      <trkpt lat="47.66032" lon="6.01499">
        <ele>216.19999694824</ele>
        <time>2012-08-08T09:17:01.000Z</time>
      </trkpt>
      <trkpt lat="47.66061" lon="6.01492">
        <ele>216.19999694824</ele>
        <time>2012-08-08T09:17:08.000Z</time>
      </trkpt>
      <trkpt lat="47.6609" lon="6.01486">
        <ele>216.19999694824</ele>
        <time>2012-08-08T09:17:15.000Z</time>
      </trkpt>
      <trkpt lat="47.66122" lon="6.01481">
        <ele>216.19999694824</ele>
        <time>2012-08-08T09:17:23.000Z</time>
      </trkpt>
      <trkpt lat="47.66126" lon="6.01481">
        <ele>216.19999694824</ele>
        <time>2012-08-08T09:17:24.000Z</time>
      </trkpt>
      <trkpt lat="47.66142" lon="6.01478">
        <ele>216.19999694824</ele>
        <time>2012-08-08T09:17:28.000Z</time>
      </trkpt>
      <trkpt lat="47.66174" lon="6.01476">
        <ele>216.19999694824</ele>
        <time>2012-08-08T09:17:36.000Z</time>
      </trkpt>
      <trkpt lat="47.66202" lon="6.01475">
        <ele>216.19999694824</ele>
        <time>2012-08-08T09:17:43.000Z</time>
      </trkpt>
      <trkpt lat="47.66224" lon="6.0148">
        <ele>216.19999694824</ele>
        <time>2012-08-08T09:17:49.000Z</time>
      </trkpt>
      <trkpt lat="47.66262" lon="6.01488">
        <ele>216.19999694824</ele>
        <time>2012-08-08T09:17:58.000Z</time>
      </trkpt>
      <trkpt lat="47.66289" lon="6.01496">
        <ele>216.19999694824</ele>
        <time>2012-08-08T09:18:03.000Z</time>
      </trkpt>
      <trkpt lat="47.66326" lon="6.01511">
        <ele>216.19999694824</ele>
        <time>2012-08-08T09:18:09.000Z</time>
      </trkpt>
      <trkpt lat="47.66358" lon="6.01526">
        <ele>216.19999694824</ele>
        <time>2012-08-08T09:18:15.000Z</time>
      </trkpt>
      <trkpt lat="47.66368" lon="6.01532">
        <ele>216.19999694824</ele>
        <time>2012-08-08T09:18:17.000Z</time>
      </trkpt>
      <trkpt lat="47.66382" lon="6.01541">
        <ele>216.19999694824</ele>
        <time>2012-08-08T09:18:20.000Z</time>
      </trkpt>
      <trkpt lat="47.66412" lon="6.01559">
        <ele>216.19999694824</ele>
        <time>2012-08-08T09:18:27.000Z</time>
      </trkpt>
      <trkpt lat="47.6645" lon="6.01588">
        <ele>216.19999694824</ele>
        <time>2012-08-08T09:18:37.000Z</time>
      </trkpt>
      <trkpt lat="47.66482" lon="6.01613">
        <ele>216.19999694824</ele>
        <time>2012-08-08T09:18:46.000Z</time>
      </trkpt>
      <trkpt lat="47.66515" lon="6.01642">
        <ele>216.19999694824</ele>
        <time>2012-08-08T09:18:55.000Z</time>
      </trkpt>
      <trkpt lat="47.66544" lon="6.01672">
        <ele>216.19999694824</ele>
        <time>2012-08-08T09:19:03.000Z</time>
      </trkpt>
      <trkpt lat="47.6657" lon="6.01699">
        <ele>216.19999694824</ele>
        <time>2012-08-08T09:19:10.000Z</time>
      </trkpt>
      <trkpt lat="47.66591" lon="6.0172">
        <ele>216.19999694824</ele>
        <time>2012-08-08T09:19:16.000Z</time>
      </trkpt>
      <trkpt lat="47.66612" lon="6.01743">
        <ele>216.19999694824</ele>
        <time>2012-08-08T09:19:22.000Z</time>
      </trkpt>
      <trkpt lat="47.66634" lon="6.01775">
        <ele>216.19999694824</ele>
        <time>2012-08-08T09:19:29.000Z</time>
      </trkpt>
      <trkpt lat="47.6665" lon="6.018">
        <ele>216.19999694824</ele>
        <time>2012-08-08T09:19:34.000Z</time>
      </trkpt>
      <trkpt lat="47.66651" lon="6.01806">
        <ele>216.19999694824</ele>
        <time>2012-08-08T09:19:35.000Z</time>
      </trkpt>
      <trkpt lat="47.66659" lon="6.01824">
        <ele>216.19999694824</ele>
        <time>2012-08-08T09:19:38.000Z</time>
      </trkpt>
      <trkpt lat="47.66665" lon="6.01834">
        <ele>216.19999694824</ele>
        <time>2012-08-08T09:19:40.000Z</time>
      </trkpt>
      <trkpt lat="47.66683" lon="6.01865">
        <ele>216.19999694824</ele>
        <time>2012-08-08T09:19:47.000Z</time>
      </trkpt>
      <trkpt lat="47.66695" lon="6.01886">
        <ele>216.19999694824</ele>
        <time>2012-08-08T09:19:52.000Z</time>
      </trkpt>
      <trkpt lat="47.66706" lon="6.0191">
        <ele>216.19999694824</ele>
        <time>2012-08-08T09:19:57.000Z</time>
      </trkpt>
      <trkpt lat="47.66721" lon="6.01941">
        <ele>216.19999694824</ele>
        <time>2012-08-08T09:20:03.000Z</time>
      </trkpt>
      <trkpt lat="47.66725" lon="6.01953">
        <ele>216.19999694824</ele>
        <time>2012-08-08T09:20:05.000Z</time>
      </trkpt>
      <trkpt lat="47.66736" lon="6.01994">
        <ele>216.19999694824</ele>
        <time>2012-08-08T09:20:12.000Z</time>
      </trkpt>
      <trkpt lat="47.66751" lon="6.02046">
        <ele>216.19999694824</ele>
        <time>2012-08-08T09:20:20.000Z</time>
      </trkpt>
      <trkpt lat="47.66759" lon="6.0208">
        <ele>216.19999694824</ele>
        <time>2012-08-08T09:20:26.000Z</time>
      </trkpt>
      <trkpt lat="47.66768" lon="6.02114">
        <ele>216.19999694824</ele>
        <time>2012-08-08T09:20:32.000Z</time>
      </trkpt>
      <trkpt lat="47.66776" lon="6.02148">
        <ele>216.19999694824</ele>
        <time>2012-08-08T09:20:38.000Z</time>
      </trkpt>
      <trkpt lat="47.66789" lon="6.02201">
        <ele>216.19999694824</ele>
        <time>2012-08-08T09:20:47.000Z</time>
      </trkpt>
      <trkpt lat="47.6679" lon="6.02207">
        <ele>216.19999694824</ele>
        <time>2012-08-08T09:20:48.000Z</time>
      </trkpt>
      <trkpt lat="47.668" lon="6.02244">
        <ele>216.19999694824</ele>
        <time>2012-08-08T09:20:54.000Z</time>
      </trkpt>
      <trkpt lat="47.66814" lon="6.0229">
        <ele>216.19999694824</ele>
        <time>2012-08-08T09:21:01.000Z</time>
      </trkpt>
      <trkpt lat="47.6683" lon="6.02328">
        <ele>216.19999694824</ele>
        <time>2012-08-08T09:21:08.000Z</time>
      </trkpt>
      <trkpt lat="47.66843" lon="6.02356">
        <ele>216.19999694824</ele>
        <time>2012-08-08T09:21:14.000Z</time>
      </trkpt>
      <trkpt lat="47.66858" lon="6.02391">
        <ele>216.19999694824</ele>
        <time>2012-08-08T09:21:21.000Z</time>
      </trkpt>
      <trkpt lat="47.6686" lon="6.02396">
        <ele>216.19999694824</ele>
        <time>2012-08-08T09:21:22.000Z</time>
      </trkpt>
      <trkpt lat="47.6687" lon="6.02415">
        <ele>216.19999694824</ele>
        <time>2012-08-08T09:21:26.000Z</time>
      </trkpt>
      <trkpt lat="47.6689" lon="6.02454">
        <ele>216.19999694824</ele>
        <time>2012-08-08T09:21:34.000Z</time>
      </trkpt>
      <trkpt lat="47.66911" lon="6.0249">
        <ele>216.19999694824</ele>
        <time>2012-08-08T09:21:42.000Z</time>
      </trkpt>
      <trkpt lat="47.66935" lon="6.02529">
        <ele>216.19999694824</ele>
        <time>2012-08-08T09:21:51.000Z</time>
      </trkpt>
      <trkpt lat="47.66954" lon="6.02562">
        <ele>216.19999694824</ele>
        <time>2012-08-08T09:21:58.000Z</time>
      </trkpt>
      <trkpt lat="47.66975" lon="6.02597">
        <ele>216.19999694824</ele>
        <time>2012-08-08T09:22:06.000Z</time>
      </trkpt>
      <trkpt lat="47.66993" lon="6.02629">
        <ele>216.19999694824</ele>
        <time>2012-08-08T09:22:13.000Z</time>
      </trkpt>
      <trkpt lat="47.67013" lon="6.02662">
        <ele>216.19999694824</ele>
        <time>2012-08-08T09:22:20.000Z</time>
      </trkpt>
      <trkpt lat="47.67034" lon="6.02691">
        <ele>216.19999694824</ele>
        <time>2012-08-08T09:22:27.000Z</time>
      </trkpt>
      <trkpt lat="47.67044" lon="6.02703">
        <ele>216.19999694824</ele>
        <time>2012-08-08T09:22:30.000Z</time>
      </trkpt>
      <trkpt lat="47.67064" lon="6.02726">
        <ele>216.19999694824</ele>
        <time>2012-08-08T09:22:36.000Z</time>
      </trkpt>
      <trkpt lat="47.67091" lon="6.02758">
        <ele>216.19999694824</ele>
        <time>2012-08-08T09:22:44.000Z</time>
      </trkpt>
      <trkpt lat="47.67114" lon="6.02786">
        <ele>216.19999694824</ele>
        <time>2012-08-08T09:22:51.000Z</time>
      </trkpt>
      <trkpt lat="47.67141" lon="6.02823">
        <ele>216.19999694824</ele>
        <time>2012-08-08T09:23:00.000Z</time>
      </trkpt>
      <trkpt lat="47.67159" lon="6.02859">
        <ele>216.19999694824</ele>
        <time>2012-08-08T09:23:07.000Z</time>
      </trkpt>
      <trkpt lat="47.67175" lon="6.02895">
        <ele>216.19999694824</ele>
        <time>2012-08-08T09:23:14.000Z</time>
      </trkpt>
      <trkpt lat="47.67187" lon="6.02926">
        <ele>216.19999694824</ele>
        <time>2012-08-08T09:23:20.000Z</time>
      </trkpt>
      <trkpt lat="47.67201" lon="6.02967">
        <ele>216.19999694824</ele>
        <time>2012-08-08T09:23:27.000Z</time>
      </trkpt>
      <trkpt lat="47.67206" lon="6.02986">
        <ele>216.19999694824</ele>
        <time>2012-08-08T09:23:30.000Z</time>
      </trkpt>
      <trkpt lat="47.67209" lon="6.03005">
        <ele>216.19999694824</ele>
        <time>2012-08-08T09:23:33.000Z</time>
      </trkpt>
      <trkpt lat="47.67214" lon="6.03044">
        <ele>216.19999694824</ele>
        <time>2012-08-08T09:23:39.000Z</time>
      </trkpt>
      <trkpt lat="47.67218" lon="6.0308">
        <ele>216.19999694824</ele>
        <time>2012-08-08T09:23:45.000Z</time>
      </trkpt>
      <trkpt lat="47.67222" lon="6.03121">
        <ele>216.19999694824</ele>
        <time>2012-08-08T09:23:52.000Z</time>
      </trkpt>
      <trkpt lat="47.67227" lon="6.03161">
        <ele>216.19999694824</ele>
        <time>2012-08-08T09:23:58.000Z</time>
      </trkpt>
      <trkpt lat="47.67231" lon="6.03205">
        <ele>216.19999694824</ele>
        <time>2012-08-08T09:24:05.000Z</time>
      </trkpt>
      <trkpt lat="47.67238" lon="6.03251">
        <ele>216.19999694824</ele>
        <time>2012-08-08T09:24:12.000Z</time>
      </trkpt>
      <trkpt lat="47.67246" lon="6.03284">
        <ele>216.19999694824</ele>
        <time>2012-08-08T09:24:18.000Z</time>
      </trkpt>
      <trkpt lat="47.67262" lon="6.03334">
        <ele>216.19999694824</ele>
        <time>2012-08-08T09:24:27.000Z</time>
      </trkpt>
      <trkpt lat="47.67273" lon="6.03371">
        <ele>216.19999694824</ele>
        <time>2012-08-08T09:24:34.000Z</time>
      </trkpt>
      <trkpt lat="47.67284" lon="6.03414">
        <ele>216.19999694824</ele>
        <time>2012-08-08T09:24:41.000Z</time>
      </trkpt>
      <trkpt lat="47.67295" lon="6.03466">
        <ele>216.19999694824</ele>
        <time>2012-08-08T09:24:49.000Z</time>
      </trkpt>
      <trkpt lat="47.67304" lon="6.03506">
        <ele>216.19999694824</ele>
        <time>2012-08-08T09:24:56.000Z</time>
      </trkpt>
      <trkpt lat="47.67313" lon="6.03552">
        <ele>216.19999694824</ele>
        <time>2012-08-08T09:25:04.000Z</time>
      </trkpt>
      <trkpt lat="47.67323" lon="6.03593">
        <ele>216.19999694824</ele>
        <time>2012-08-08T09:25:11.000Z</time>
      </trkpt>
      <trkpt lat="47.67328" lon="6.03616">
        <ele>216.19999694824</ele>
        <time>2012-08-08T09:25:15.000Z</time>
      </trkpt>
      <trkpt lat="47.67333" lon="6.03634">
        <ele>216.19999694824</ele>
        <time>2012-08-08T09:25:18.000Z</time>
      </trkpt>
      <trkpt lat="47.67347" lon="6.03681">
        <ele>216.19999694824</ele>
        <time>2012-08-08T09:25:26.000Z</time>
      </trkpt>
      <trkpt lat="47.67361" lon="6.03718">
        <ele>216.19999694824</ele>
        <time>2012-08-08T09:25:33.000Z</time>
      </trkpt>
      <trkpt lat="47.67377" lon="6.03749">
        <ele>216.19999694824</ele>
        <time>2012-08-08T09:25:40.000Z</time>
      </trkpt>
      <trkpt lat="47.67397" lon="6.03781">
        <ele>216.19999694824</ele>
        <time>2012-08-08T09:25:48.000Z</time>
      </trkpt>
      <trkpt lat="47.67412" lon="6.03809">
        <ele>216.19999694824</ele>
        <time>2012-08-08T09:25:54.000Z</time>
      </trkpt>
      <trkpt lat="47.67418" lon="6.03818">
        <ele>216.19999694824</ele>
        <time>2012-08-08T09:25:56.000Z</time>
      </trkpt>
      <trkpt lat="47.67428" lon="6.03835">
        <ele>216.19999694824</ele>
        <time>2012-08-08T09:26:00.000Z</time>
      </trkpt>
      <trkpt lat="47.67439" lon="6.03858">
        <ele>216.19999694824</ele>
        <time>2012-08-08T09:26:05.000Z</time>
      </trkpt>
      <trkpt lat="47.67457" lon="6.03886">
        <ele>216.19999694824</ele>
        <time>2012-08-08T09:26:12.000Z</time>
      </trkpt>
      <trkpt lat="47.6746" lon="6.0389">
        <ele>216.19999694824</ele>
        <time>2012-08-08T09:26:13.000Z</time>
      </trkpt>
      <trkpt lat="47.67471" lon="6.03909">
        <ele>216.19999694824</ele>
        <time>2012-08-08T09:26:17.000Z</time>
      </trkpt>
      <trkpt lat="47.6749" lon="6.03939">
        <ele>216.19999694824</ele>
        <time>2012-08-08T09:26:24.000Z</time>
      </trkpt>
      <trkpt lat="47.67516" lon="6.0398">
        <ele>216.19999694824</ele>
        <time>2012-08-08T09:26:34.000Z</time>
      </trkpt>
      <trkpt lat="47.67533" lon="6.03991">
        <ele>216.19999694824</ele>
        <time>2012-08-08T09:26:39.000Z</time>
      </trkpt>
      <trkpt lat="47.67556" lon="6.03988">
        <ele>216.19999694824</ele>
        <time>2012-08-08T09:26:45.000Z</time>
      </trkpt>
      <trkpt lat="47.67582" lon="6.0397">
        <ele>216.19999694824</ele>
        <time>2012-08-08T09:26:52.000Z</time>
      </trkpt>
      <trkpt lat="47.67602" lon="6.03943">
        <ele>216.19999694824</ele>
        <time>2012-08-08T09:26:59.000Z</time>
      </trkpt>
      <trkpt lat="47.67623" lon="6.03919">
        <ele>216.19999694824</ele>
        <time>2012-08-08T09:27:06.000Z</time>
      </trkpt>
      <trkpt lat="47.67637" lon="6.03901">
        <ele>216.19999694824</ele>
        <time>2012-08-08T09:27:12.000Z</time>
      </trkpt>
      <trkpt lat="47.67656" lon="6.03879">
        <ele>216.19999694824</ele>
        <time>2012-08-08T09:27:19.000Z</time>
      </trkpt>
      <trkpt lat="47.67682" lon="6.03851">
        <ele>216.19999694824</ele>
        <time>2012-08-08T09:27:27.000Z</time>
      </trkpt>
      <trkpt lat="47.67707" lon="6.03825">
        <ele>216.19999694824</ele>
        <time>2012-08-08T09:27:34.000Z</time>
      </trkpt>
      <trkpt lat="47.67736" lon="6.03797">
        <ele>216.19999694824</ele>
        <time>2012-08-08T09:27:42.000Z</time>
      </trkpt>
      <trkpt lat="47.67772" lon="6.03762">
        <ele>216.19999694824</ele>
        <time>2012-08-08T09:27:52.000Z</time>
      </trkpt>
      <trkpt lat="47.67801" lon="6.03736">
        <ele>216.19999694824</ele>
        <time>2012-08-08T09:28:00.000Z</time>
      </trkpt>
      <trkpt lat="47.67804" lon="6.03733">
        <ele>216.19999694824</ele>
        <time>2012-08-08T09:28:01.000Z</time>
      </trkpt>
      <trkpt lat="47.67823" lon="6.03718">
        <ele>216.19999694824</ele>
        <time>2012-08-08T09:28:06.000Z</time>
      </trkpt>
      <trkpt lat="47.67858" lon="6.03693">
        <ele>216.19999694824</ele>
        <time>2012-08-08T09:28:15.000Z</time>
      </trkpt>
      <trkpt lat="47.67889" lon="6.03675">
        <ele>216.19999694824</ele>
        <time>2012-08-08T09:28:23.000Z</time>
      </trkpt>
      <trkpt lat="47.6792" lon="6.03656">
        <ele>216.19999694824</ele>
        <time>2012-08-08T09:28:31.000Z</time>
      </trkpt>
      <trkpt lat="47.67955" lon="6.03634">
        <ele>216.19999694824</ele>
        <time>2012-08-08T09:28:40.000Z</time>
      </trkpt>
      <trkpt lat="47.67983" lon="6.03616">
        <ele>216.19999694824</ele>
        <time>2012-08-08T09:28:47.000Z</time>
      </trkpt>
      <trkpt lat="47.68011" lon="6.03595">
        <ele>216.19999694824</ele>
        <time>2012-08-08T09:28:54.000Z</time>
      </trkpt>
      <trkpt lat="47.6804" lon="6.03572">
        <ele>216.19999694824</ele>
        <time>2012-08-08T09:29:02.000Z</time>
      </trkpt>
      <trkpt lat="47.68059" lon="6.03572">
        <ele>216.19999694824</ele>
        <time>2012-08-08T09:29:06.000Z</time>
      </trkpt>
      <trkpt lat="47.68093" lon="6.03578">
        <ele>216.19999694824</ele>
        <time>2012-08-08T09:29:14.000Z</time>
      </trkpt>
      <trkpt lat="47.68126" lon="6.03584">
        <ele>216.19999694824</ele>
        <time>2012-08-08T09:29:22.000Z</time>
      </trkpt>
      <trkpt lat="47.68156" lon="6.03579">
        <ele>216.19999694824</ele>
        <time>2012-08-08T09:29:29.000Z</time>
      </trkpt>
      <trkpt lat="47.68189" lon="6.03572">
        <ele>216.19999694824</ele>
        <time>2012-08-08T09:29:37.000Z</time>
      </trkpt>
      <trkpt lat="47.68213" lon="6.0357">
        <ele>216.19999694824</ele>
        <time>2012-08-08T09:29:43.000Z</time>
      </trkpt>
      <trkpt lat="47.68243" lon="6.0357">
        <ele>216.19999694824</ele>
        <time>2012-08-08T09:29:50.000Z</time>
      </trkpt>
      <trkpt lat="47.68248" lon="6.03571">
        <ele>216.19999694824</ele>
        <time>2012-08-08T09:29:51.000Z</time>
      </trkpt>
      <trkpt lat="47.68283" lon="6.03575">
        <ele>216.19999694824</ele>
        <time>2012-08-08T09:29:59.000Z</time>
      </trkpt>
      <trkpt lat="47.68328" lon="6.03585">
        <ele>216.19999694824</ele>
        <time>2012-08-08T09:30:09.000Z</time>
      </trkpt>
      <trkpt lat="47.6836" lon="6.03595">
        <ele>216.19999694824</ele>
        <time>2012-08-08T09:30:16.000Z</time>
      </trkpt>
      <trkpt lat="47.68373" lon="6.036">
        <ele>216.19999694824</ele>
        <time>2012-08-08T09:30:19.000Z</time>
      </trkpt>
      <trkpt lat="47.68391" lon="6.03609">
        <ele>216.19999694824</ele>
        <time>2012-08-08T09:30:23.000Z</time>
      </trkpt>
      <trkpt lat="47.6842" lon="6.03625">
        <ele>216.19999694824</ele>
        <time>2012-08-08T09:30:30.000Z</time>
      </trkpt>
      <trkpt lat="47.68432" lon="6.03629">
        <ele>216.19999694824</ele>
        <time>2012-08-08T09:30:33.000Z</time>
      </trkpt>
      <trkpt lat="47.68441" lon="6.03626">
        <ele>216.19999694824</ele>
        <time>2012-08-08T09:30:35.000Z</time>
      </trkpt>
      <trkpt lat="47.68472" lon="6.03618">
        <ele>216.19999694824</ele>
        <time>2012-08-08T09:30:43.000Z</time>
      </trkpt>
      <trkpt lat="47.68494" lon="6.03627">
        <ele>216.19999694824</ele>
        <time>2012-08-08T09:30:49.000Z</time>
      </trkpt>
      <trkpt lat="47.68509" lon="6.03635">
        <ele>216.19999694824</ele>
        <time>2012-08-08T09:30:53.000Z</time>
      </trkpt>
      <trkpt lat="47.68517" lon="6.03638">
        <ele>216.19999694824</ele>
        <time>2012-08-08T09:30:55.000Z</time>
      </trkpt>
      <trkpt lat="47.6854" lon="6.03649">
        <ele>216.19999694824</ele>
        <time>2012-08-08T09:31:02.000Z</time>
      </trkpt>
      <trkpt lat="47.68564" lon="6.03653">
        <ele>216.19999694824</ele>
        <time>2012-08-08T09:31:08.000Z</time>
      </trkpt>
      <trkpt lat="47.68581" lon="6.03652">
        <ele>216.19999694824</ele>
        <time>2012-08-08T09:31:12.000Z</time>
      </trkpt>
      <trkpt lat="47.68593" lon="6.03647">
        <ele>216.80000305176</ele>
        <time>2012-08-08T09:31:15.000Z</time>
      </trkpt>
      <trkpt lat="47.68596" lon="6.03645">
        <ele>217.19999694824</ele>
        <time>2012-08-08T09:31:16.000Z</time>
      </trkpt>
      <trkpt lat="47.68599" lon="6.03643">
        <ele>217.60000610352</ele>
        <time>2012-08-08T09:31:17.000Z</time>
      </trkpt>
      <trkpt lat="47.68602" lon="6.0364">
        <ele>218</ele>
        <time>2012-08-08T09:31:18.000Z</time>
      </trkpt>
      <trkpt lat="47.68606" lon="6.03637">
        <ele>218.39999389648</ele>
        <time>2012-08-08T09:31:19.000Z</time>
      </trkpt>
      <trkpt lat="47.68613" lon="6.03631">
        <ele>218.39999389648</ele>
        <time>2012-08-08T09:31:21.000Z</time>
      </trkpt>
      <trkpt lat="47.6863" lon="6.0363">
        <ele>218.39999389648</ele>
        <time>2012-08-08T09:31:25.000Z</time>
      </trkpt>
      <trkpt lat="47.68647" lon="6.03633">
        <ele>218.39999389648</ele>
        <time>2012-08-08T09:31:29.000Z</time>
      </trkpt>
      <trkpt lat="47.68652" lon="6.03634">
        <ele>218.39999389648</ele>
        <time>2012-08-08T09:31:30.000Z</time>
      </trkpt>
      <trkpt lat="47.68681" lon="6.03639">
        <ele>218.39999389648</ele>
        <time>2012-08-08T09:31:36.000Z</time>
      </trkpt>
      <trkpt lat="47.68713" lon="6.03645">
        <ele>218.39999389648</ele>
        <time>2012-08-08T09:31:43.000Z</time>
      </trkpt>
      <trkpt lat="47.68727" lon="6.03648">
        <ele>218.39999389648</ele>
        <time>2012-08-08T09:31:46.000Z</time>
      </trkpt>
      <trkpt lat="47.6874" lon="6.03651">
        <ele>218.39999389648</ele>
        <time>2012-08-08T09:31:49.000Z</time>
      </trkpt>
      <trkpt lat="47.68753" lon="6.03653">
        <ele>218.39999389648</ele>
        <time>2012-08-08T09:31:52.000Z</time>
      </trkpt>
      <trkpt lat="47.68765" lon="6.03656">
        <ele>218.39999389648</ele>
        <time>2012-08-08T09:31:55.000Z</time>
      </trkpt>
      <trkpt lat="47.68783" lon="6.03658">
        <ele>218.39999389648</ele>
        <time>2012-08-08T09:31:59.000Z</time>
      </trkpt>
      <trkpt lat="47.68796" lon="6.03659">
        <ele>218.39999389648</ele>
        <time>2012-08-08T09:32:02.000Z</time>
      </trkpt>
      <trkpt lat="47.68834" lon="6.03661">
        <ele>218.39999389648</ele>
        <time>2012-08-08T09:32:10.000Z</time>
      </trkpt>
      <trkpt lat="47.68862" lon="6.0366">
        <ele>218.39999389648</ele>
        <time>2012-08-08T09:32:16.000Z</time>
      </trkpt>
      <trkpt lat="47.68867" lon="6.0366">
        <ele>218.39999389648</ele>
        <time>2012-08-08T09:32:17.000Z</time>
      </trkpt>
      <trkpt lat="47.68903" lon="6.03666">
        <ele>218.39999389648</ele>
        <time>2012-08-08T09:32:25.000Z</time>
      </trkpt>
      <trkpt lat="47.68912" lon="6.03669">
        <ele>218.39999389648</ele>
        <time>2012-08-08T09:32:27.000Z</time>
      </trkpt>
      <trkpt lat="47.68934" lon="6.03679">
        <ele>218.39999389648</ele>
        <time>2012-08-08T09:32:32.000Z</time>
      </trkpt>
      <trkpt lat="47.68961" lon="6.03695">
        <ele>218.39999389648</ele>
        <time>2012-08-08T09:32:38.000Z</time>
      </trkpt>
      <trkpt lat="47.68965" lon="6.03698">
        <ele>218.39999389648</ele>
        <time>2012-08-08T09:32:39.000Z</time>
      </trkpt>
      <trkpt lat="47.6898" lon="6.03711">
        <ele>218.39999389648</ele>
        <time>2012-08-08T09:32:43.000Z</time>
      </trkpt>
      <trkpt lat="47.68985" lon="6.03714">
        <ele>218.39999389648</ele>
        <time>2012-08-08T09:32:44.000Z</time>
      </trkpt>
      <trkpt lat="47.69011" lon="6.03734">
        <ele>218.39999389648</ele>
        <time>2012-08-08T09:32:51.000Z</time>
      </trkpt>
      <trkpt lat="47.6904" lon="6.03757">
        <ele>218.39999389648</ele>
        <time>2012-08-08T09:32:58.000Z</time>
      </trkpt>
      <trkpt lat="47.69073" lon="6.0378">
        <ele>218.39999389648</ele>
        <time>2012-08-08T09:33:04.000Z</time>
      </trkpt>
      <trkpt lat="47.69088" lon="6.03793">
        <ele>218.39999389648</ele>
        <time>2012-08-08T09:33:07.000Z</time>
      </trkpt>
      <trkpt lat="47.69091" lon="6.03799">
        <ele>218.39999389648</ele>
        <time>2012-08-08T09:33:08.000Z</time>
      </trkpt>
      <trkpt lat="47.69092" lon="6.03804">
        <ele>218.80000305176</ele>
        <time>2012-08-08T09:33:09.000Z</time>
      </trkpt>
      <trkpt lat="47.69092" lon="6.03809">
        <ele>219.19999694824</ele>
        <time>2012-08-08T09:33:10.000Z</time>
      </trkpt>
      <trkpt lat="47.69091" lon="6.03814">
        <ele>219.60000610352</ele>
        <time>2012-08-08T09:33:11.000Z</time>
      </trkpt>
      <trkpt lat="47.6909" lon="6.03819">
        <ele>220</ele>
        <time>2012-08-08T09:33:12.000Z</time>
      </trkpt>
      <trkpt lat="47.69088" lon="6.03823">
        <ele>220.39999389648</ele>
        <time>2012-08-08T09:33:13.000Z</time>
      </trkpt>
      <trkpt lat="47.6908" lon="6.03842">
        <ele>220.80000305176</ele>
        <time>2012-08-08T09:33:17.000Z</time>
      </trkpt>
      <trkpt lat="47.69078" lon="6.03847">
        <ele>221.19999694824</ele>
        <time>2012-08-08T09:33:18.000Z</time>
      </trkpt>
      <trkpt lat="47.69076" lon="6.03852">
        <ele>221.60000610352</ele>
        <time>2012-08-08T09:33:19.000Z</time>
      </trkpt>
      <trkpt lat="47.69074" lon="6.03857">
        <ele>222</ele>
        <time>2012-08-08T09:33:20.000Z</time>
      </trkpt>
      <trkpt lat="47.69072" lon="6.03862">
        <ele>222.39999389648</ele>
        <time>2012-08-08T09:33:21.000Z</time>
      </trkpt>
      <trkpt lat="47.69057" lon="6.03898">
        <ele>222.39999389648</ele>
        <time>2012-08-08T09:33:28.000Z</time>
      </trkpt>
      <trkpt lat="47.6904" lon="6.03938">
        <ele>222.39999389648</ele>
        <time>2012-08-08T09:33:35.000Z</time>
      </trkpt>
      <trkpt lat="47.69016" lon="6.03998">
        <ele>222.39999389648</ele>
        <time>2012-08-08T09:33:44.000Z</time>
      </trkpt>
      <trkpt lat="47.68996" lon="6.04048">
        <ele>222.39999389648</ele>
        <time>2012-08-08T09:33:51.000Z</time>
      </trkpt>
      <trkpt lat="47.68979" lon="6.04093">
        <ele>222.39999389648</ele>
        <time>2012-08-08T09:33:57.000Z</time>
      </trkpt>
      <trkpt lat="47.68961" lon="6.04137">
        <ele>222.39999389648</ele>
        <time>2012-08-08T09:34:03.000Z</time>
      </trkpt>
      <trkpt lat="47.68942" lon="6.04188">
        <ele>222.39999389648</ele>
        <time>2012-08-08T09:34:10.000Z</time>
      </trkpt>
      <trkpt lat="47.68921" lon="6.04241">
        <ele>222.39999389648</ele>
        <time>2012-08-08T09:34:18.000Z</time>
      </trkpt>
      <trkpt lat="47.68897" lon="6.04299">
        <ele>222.39999389648</ele>
        <time>2012-08-08T09:34:27.000Z</time>
      </trkpt>
      <trkpt lat="47.68886" lon="6.04323">
        <ele>222.39999389648</ele>
        <time>2012-08-08T09:34:31.000Z</time>
      </trkpt>
      <trkpt lat="47.6888" lon="6.04333">
        <ele>222.39999389648</ele>
        <time>2012-08-08T09:34:33.000Z</time>
      </trkpt>
      <trkpt lat="47.68867" lon="6.04352">
        <ele>222.39999389648</ele>
        <time>2012-08-08T09:34:37.000Z</time>
      </trkpt>
      <trkpt lat="47.68863" lon="6.04362">
        <ele>222.39999389648</ele>
        <time>2012-08-08T09:34:39.000Z</time>
      </trkpt>
      <trkpt lat="47.6886" lon="6.04373">
        <ele>222.39999389648</ele>
        <time>2012-08-08T09:34:41.000Z</time>
      </trkpt>
      <trkpt lat="47.68851" lon="6.04406">
        <ele>222.39999389648</ele>
        <time>2012-08-08T09:34:47.000Z</time>
      </trkpt>
      <trkpt lat="47.68844" lon="6.0443">
        <ele>223.39999389648</ele>
        <time>2012-08-08T09:34:51.000Z</time>
      </trkpt>
      <trkpt lat="47.68843" lon="6.04437">
        <ele>223.80000305176</ele>
        <time>2012-08-08T09:34:52.000Z</time>
      </trkpt>
      <trkpt lat="47.68842" lon="6.04444">
        <ele>224.19999694824</ele>
        <time>2012-08-08T09:34:53.000Z</time>
      </trkpt>
      <trkpt lat="47.68841" lon="6.04451">
        <ele>224.80000305176</ele>
        <time>2012-08-08T09:34:54.000Z</time>
      </trkpt>
      <trkpt lat="47.68837" lon="6.04484">
        <ele>225.19999694824</ele>
        <time>2012-08-08T09:35:00.000Z</time>
      </trkpt>
      <trkpt lat="47.68836" lon="6.04489">
        <ele>225.60000610352</ele>
        <time>2012-08-08T09:35:01.000Z</time>
      </trkpt>
      <trkpt lat="47.68834" lon="6.04494">
        <ele>226</ele>
        <time>2012-08-08T09:35:02.000Z</time>
      </trkpt>
      <trkpt lat="47.68834" lon="6.04498">
        <ele>226.39999389648</ele>
        <time>2012-08-08T09:35:03.000Z</time>
      </trkpt>
      <trkpt lat="47.68833" lon="6.04503">
        <ele>226.80000305176</ele>
        <time>2012-08-08T09:35:04.000Z</time>
      </trkpt>
      <trkpt lat="47.68829" lon="6.04516">
        <ele>226.80000305176</ele>
        <time>2012-08-08T09:35:07.000Z</time>
      </trkpt>
      <trkpt lat="47.68821" lon="6.04549">
        <ele>226.80000305176</ele>
        <time>2012-08-08T09:35:14.000Z</time>
      </trkpt>
      <trkpt lat="47.68821" lon="6.04568">
        <ele>227.19999694824</ele>
        <time>2012-08-08T09:35:18.000Z</time>
      </trkpt>
      <trkpt lat="47.68821" lon="6.04574">
        <ele>227.60000610352</ele>
        <time>2012-08-08T09:35:19.000Z</time>
      </trkpt>
      <trkpt lat="47.68821" lon="6.04579">
        <ele>228</ele>
        <time>2012-08-08T09:35:20.000Z</time>
      </trkpt>
      <trkpt lat="47.68821" lon="6.04583">
        <ele>228.39999389648</ele>
        <time>2012-08-08T09:35:21.000Z</time>
      </trkpt>
      <trkpt lat="47.68821" lon="6.04588">
        <ele>228.80000305176</ele>
        <time>2012-08-08T09:35:22.000Z</time>
      </trkpt>
      <trkpt lat="47.68823" lon="6.04612">
        <ele>228.80000305176</ele>
        <time>2012-08-08T09:35:27.000Z</time>
      </trkpt>
      <trkpt lat="47.68822" lon="6.04642">
        <ele>228.80000305176</ele>
        <time>2012-08-08T09:35:34.000Z</time>
      </trkpt>
      <trkpt lat="47.68822" lon="6.04689">
        <ele>228.80000305176</ele>
        <time>2012-08-08T09:35:44.000Z</time>
      </trkpt>
      <trkpt lat="47.68823" lon="6.04725">
        <ele>228.80000305176</ele>
        <time>2012-08-08T09:35:51.000Z</time>
      </trkpt>
      <trkpt lat="47.68823" lon="6.04757">
        <ele>229.19999694824</ele>
        <time>2012-08-08T09:35:57.000Z</time>
      </trkpt>
      <trkpt lat="47.68822" lon="6.04762">
        <ele>229.60000610352</ele>
        <time>2012-08-08T09:35:58.000Z</time>
      </trkpt>
      <trkpt lat="47.68822" lon="6.04768">
        <ele>230</ele>
        <time>2012-08-08T09:35:59.000Z</time>
      </trkpt>
      <trkpt lat="47.68822" lon="6.04773">
        <ele>230.39999389648</ele>
        <time>2012-08-08T09:36:00.000Z</time>
      </trkpt>
      <trkpt lat="47.68822" lon="6.04779">
        <ele>230.80000305176</ele>
        <time>2012-08-08T09:36:01.000Z</time>
      </trkpt>
      <trkpt lat="47.6882" lon="6.04807">
        <ele>230.80000305176</ele>
        <time>2012-08-08T09:36:06.000Z</time>
      </trkpt>
      <trkpt lat="47.68818" lon="6.04819">
        <ele>230.80000305176</ele>
        <time>2012-08-08T09:36:08.000Z</time>
      </trkpt>
      <trkpt lat="47.68816" lon="6.04843">
        <ele>231.19999694824</ele>
        <time>2012-08-08T09:36:12.000Z</time>
      </trkpt>
      <trkpt lat="47.68815" lon="6.04849">
        <ele>231.80000305176</ele>
        <time>2012-08-08T09:36:13.000Z</time>
      </trkpt>
      <trkpt lat="47.68814" lon="6.04855">
        <ele>232.19999694824</ele>
        <time>2012-08-08T09:36:14.000Z</time>
      </trkpt>
      <trkpt lat="47.68813" lon="6.04861">
        <ele>232.60000610352</ele>
        <time>2012-08-08T09:36:15.000Z</time>
      </trkpt>
      <trkpt lat="47.68811" lon="6.04866">
        <ele>233</ele>
        <time>2012-08-08T09:36:16.000Z</time>
      </trkpt>
      <trkpt lat="47.68809" lon="6.04871">
        <ele>233</ele>
        <time>2012-08-08T09:36:17.000Z</time>
      </trkpt>
      <trkpt lat="47.68799" lon="6.04875">
        <ele>233.39999389648</ele>
        <time>2012-08-08T09:36:20.000Z</time>
      </trkpt>
      <trkpt lat="47.68796" lon="6.04876">
        <ele>234</ele>
        <time>2012-08-08T09:36:21.000Z</time>
      </trkpt>
      <trkpt lat="47.68794" lon="6.04877">
        <ele>234.39999389648</ele>
        <time>2012-08-08T09:36:22.000Z</time>
      </trkpt>
      <trkpt lat="47.6879" lon="6.04878">
        <ele>234.80000305176</ele>
        <time>2012-08-08T09:36:23.000Z</time>
      </trkpt>
      <trkpt lat="47.68787" lon="6.04877">
        <ele>235.19999694824</ele>
        <time>2012-08-08T09:36:24.000Z</time>
      </trkpt>
      <trkpt lat="47.68782" lon="6.04873">
        <ele>235.19999694824</ele>
        <time>2012-08-08T09:36:26.000Z</time>
      </trkpt>
      <trkpt lat="47.68776" lon="6.04855">
        <ele>235.19999694824</ele>
        <time>2012-08-08T09:36:30.000Z</time>
      </trkpt>
      <trkpt lat="47.68769" lon="6.04831">
        <ele>235.60000610352</ele>
        <time>2012-08-08T09:36:36.000Z</time>
      </trkpt>
      <trkpt lat="47.68768" lon="6.04827">
        <ele>236</ele>
        <time>2012-08-08T09:36:37.000Z</time>
      </trkpt>
      <trkpt lat="47.68767" lon="6.04823">
        <ele>236.39999389648</ele>
        <time>2012-08-08T09:36:38.000Z</time>
      </trkpt>
      <trkpt lat="47.68766" lon="6.04818">
        <ele>236.80000305176</ele>
        <time>2012-08-08T09:36:39.000Z</time>
      </trkpt>
      <trkpt lat="47.68765" lon="6.04814">
        <ele>237.19999694824</ele>
        <time>2012-08-08T09:36:40.000Z</time>
      </trkpt>
      <trkpt lat="47.68758" lon="6.04794">
        <ele>237.19999694824</ele>
        <time>2012-08-08T09:36:45.000Z</time>
      </trkpt>
      <trkpt lat="47.68752" lon="6.04767">
        <ele>237.19999694824</ele>
        <time>2012-08-08T09:36:52.000Z</time>
      </trkpt>
      <trkpt lat="47.68751" lon="6.04763">
        <ele>237.60000610352</ele>
        <time>2012-08-08T09:36:53.000Z</time>
      </trkpt>
      <trkpt lat="47.6875" lon="6.04759">
        <ele>238.19999694824</ele>
        <time>2012-08-08T09:36:54.000Z</time>
      </trkpt>
      <trkpt lat="47.68749" lon="6.04754">
        <ele>238.60000610352</ele>
        <time>2012-08-08T09:36:55.000Z</time>
      </trkpt>
      <trkpt lat="47.68747" lon="6.0475">
        <ele>239.39999389648</ele>
        <time>2012-08-08T09:36:56.000Z</time>
      </trkpt>
      <trkpt lat="47.68743" lon="6.04737">
        <ele>239.39999389648</ele>
        <time>2012-08-08T09:36:59.000Z</time>
      </trkpt>
      <trkpt lat="47.68734" lon="6.04706">
        <ele>239.39999389648</ele>
        <time>2012-08-08T09:37:06.000Z</time>
      </trkpt>
      <trkpt lat="47.68721" lon="6.0468">
        <ele>239.39999389648</ele>
        <time>2012-08-08T09:37:12.000Z</time>
      </trkpt>
      <trkpt lat="47.68699" lon="6.04633">
        <ele>239.39999389648</ele>
        <time>2012-08-08T09:37:21.000Z</time>
      </trkpt>
      <trkpt lat="47.68692" lon="6.04618">
        <ele>239.39999389648</ele>
        <time>2012-08-08T09:37:24.000Z</time>
      </trkpt>
      <trkpt lat="47.68686" lon="6.04598">
        <ele>239.39999389648</ele>
        <time>2012-08-08T09:37:27.000Z</time>
      </trkpt>
      <trkpt lat="47.68681" lon="6.04585">
        <ele>239.39999389648</ele>
        <time>2012-08-08T09:37:29.000Z</time>
      </trkpt>
      <trkpt lat="47.68667" lon="6.04559">
        <ele>239.39999389648</ele>
        <time>2012-08-08T09:37:33.000Z</time>
      </trkpt>
      <trkpt lat="47.68645" lon="6.04538">
        <ele>239.39999389648</ele>
        <time>2012-08-08T09:37:37.000Z</time>
      </trkpt>
      <trkpt lat="47.68639" lon="6.04535">
        <ele>239.39999389648</ele>
        <time>2012-08-08T09:37:38.000Z</time>
      </trkpt>
      <trkpt lat="47.68631" lon="6.04536">
        <ele>239.39999389648</ele>
        <time>2012-08-08T09:37:40.000Z</time>
      </trkpt>
      <trkpt lat="47.68626" lon="6.04545">
        <ele>239</ele>
        <time>2012-08-08T09:37:42.000Z</time>
      </trkpt>
      <trkpt lat="47.68625" lon="6.04548">
        <ele>238.60000610352</ele>
        <time>2012-08-08T09:37:43.000Z</time>
      </trkpt>
      <trkpt lat="47.68626" lon="6.04551">
        <ele>238.19999694824</ele>
        <time>2012-08-08T09:37:44.000Z</time>
      </trkpt>
      <trkpt lat="47.68626" lon="6.04552">
        <ele>237.39999389648</ele>
        <time>2012-08-08T09:37:45.000Z</time>
      </trkpt>
      <trkpt lat="47.68627" lon="6.04552">
        <ele>237.39999389648</ele>
        <time>2012-08-08T09:37:46.000Z</time>
      </trkpt>
    </trkseg>
  </trk>
</gpx>